Date StartTime U_cm/s V_cm/s W_cm/s Ustd_cm/s Vstd_cm/s Wstd_cm/s Uvar_(cm/s)^2 Vvar_(cm/s)^2 Wvar_(cm/s)^2 KE_(m/s)^2 TurbulentKE_(m/s)^2 HorizWindSpeed_cm/s FrictionSpeec_cm/s DragCoef SpeedOfSound_m/s SonicTemperature_C Pressure_mb 
10/12/2014  00:00:00      -83.843       18.422       -4.448       78.896       62.223       41.413     6224.599     3871.670     1715.074        0.960        0.591       85.843       26.897        0.098      341.324       15.958      864.856
10/12/2014  00:01:00       -5.212      184.168        0.679      100.642      151.706       64.066    10128.731    23014.829     4104.428        3.559        1.862      184.242       59.763        0.105      341.247       15.826      864.904
10/12/2014  00:02:00      -73.589      151.816      -19.232       57.885       99.270       46.174     3350.724     9854.437     2132.056        2.208        0.767      168.711       44.318        0.069      341.308       15.929      864.969
10/12/2014  00:03:00      -79.243      211.497      -16.558       69.373       75.933       39.599     4812.563     5765.845     1568.103        3.171        0.607      225.855       36.443        0.026      341.279       15.878      865.010
10/12/2014  00:04:00      -72.299      237.235      -31.670       62.716       71.807       40.289     3933.315     5156.225     1623.231        3.661        0.536      248.008       28.528        0.013      341.303       15.918      865.057
10/12/2014  00:05:00      -79.299      166.083      -14.361       58.659       84.019       40.040     3440.919     7059.131     1603.230        2.309        0.605      184.043       29.214        0.025      341.261       15.850      865.076
10/12/2014  00:06:00      -99.677      233.283      -34.962       75.380       90.882       38.077     5682.130     8259.465     1449.834        4.048        0.770      253.686       36.515        0.021      341.268       15.861      865.090
10/12/2014  00:07:00       -3.341      211.224      -25.884       66.736       78.225       47.444     4453.678     6119.162     2250.924        2.906        0.641      211.251       39.274        0.035      341.203       15.750      865.092
10/12/2014  00:08:00      -57.838      241.140      -26.649       72.991       65.239       36.554     5327.640     4256.135     1336.161        3.656        0.546      247.979       30.323        0.015      341.205       15.752      865.108
10/12/2014  00:09:00      -68.643      122.455       -9.385       58.423       88.292       32.233     3413.255     7795.436     1038.996        1.602        0.612      140.382       40.708        0.084      341.204       15.755      865.119
10/12/2014  00:10:00      -21.132      151.612      -16.136       86.265       99.504       47.208     7441.620     9901.106     2228.616        2.163        0.979      153.078       45.593        0.089      341.158       15.676      865.145
10/12/2014  00:11:00      -41.844      223.427      -24.540       83.786       97.529       47.651     7020.080     9511.929     2270.593        3.553        0.940      227.312       43.201        0.036      341.153       15.665      865.170
10/12/2014  00:12:00       -6.739      233.609      -30.477       56.486      127.801       48.150     3190.639    16333.072     2318.399        3.869        1.092      233.706       58.506        0.063      341.053       15.497      865.224
10/12/2014  00:13:00        5.288      326.607      -41.392       65.702       92.960       44.386     4316.817     8641.576     1970.099        6.167        0.746      326.650       48.299        0.022      341.053       15.494      865.281
10/12/2014  00:14:00       22.270      315.400      -41.351       83.653       99.296       51.521     6997.863     9859.759     2654.453        6.059        0.976      316.186       50.343        0.025      340.959       15.336      865.337
10/12/2014  00:15:00       -8.414      358.145      -35.019       79.029      119.129       58.561     6245.569    14191.762     3429.446        7.671        1.193      358.243       60.919        0.029      340.948       15.317      865.379
10/12/2014  00:16:00       68.680      201.402       -3.107       93.253      154.729       85.192     8696.077    23941.039     7257.617        4.259        1.995      212.790       87.859        0.170      340.945       15.313      865.420
10/12/2014  00:17:00       19.160      401.788      -46.611       83.141      118.362       61.096     6912.393    14009.487     3732.701        9.431        1.233      402.245       54.500        0.018      341.106       15.585      865.454
10/12/2014  00:18:00       54.910      287.981      -33.158       73.735      125.999       66.364     5436.847    15875.851     4404.124        5.638        1.286      293.169       60.833        0.043      341.122       15.612      865.458
10/12/2014  00:19:00       84.204      219.924       -1.849       94.675      148.204       73.996     8963.301    21964.466     5475.410        4.593        1.820      235.493       74.932        0.101      341.063       15.513      865.474
10/12/2014  00:20:00       34.803      282.410      -41.392       63.784       78.352       48.162     4068.432     6139.071     2319.577        4.760        0.626      284.546       44.013        0.024      341.030       15.457      865.494
10/12/2014  00:21:00       37.436      210.568       -8.616      105.623       89.580       72.029    11156.313     8024.524     5188.106        3.509        1.218      213.869       64.698        0.092      341.021       15.441      865.467
10/12/2014  00:22:00      -10.935      439.200      -56.747       77.289      127.377       55.068     5973.593    16224.820     3032.473       11.073        1.262      439.336       63.846        0.021      341.078       15.536      865.468
10/12/2014  00:23:00       82.173      285.890      -30.626       96.021      157.084       87.424     9219.952    24675.347     7643.024        6.547        2.077      297.465      100.895        0.115      341.086       15.551      865.429
10/12/2014  00:24:00      152.945      138.937       13.068      125.319       91.172       73.488    15704.755     8312.368     5400.469        3.614        1.471      206.629       58.088        0.079      341.061       15.511      865.380
10/12/2014  00:25:00       44.445      302.300      -24.379       74.443      217.674       76.861     5541.738    47381.914     5907.564        7.638        2.942      305.550      107.904        0.125      341.004       15.413      865.393
10/12/2014  00:26:00       -7.979      436.100      -65.756      108.389      141.563       66.520    11748.189    20040.170     4424.854       11.539        1.811      436.173       62.468        0.021      340.993       15.394      865.387
10/12/2014  00:27:00      -37.177      319.657      -38.602      133.066      143.049       65.105    17706.614    20462.935     4238.676        7.372        2.120      321.811       73.304        0.052      340.967       15.350      865.356
10/12/2014  00:28:00      -23.157      394.258      -43.156       80.829      161.695       62.214     6533.302    26145.286     3870.557        9.719        1.827      394.937       78.994        0.040      340.942       15.308      865.355
10/12/2014  00:29:00      -55.182      401.196      -42.079       71.912       97.420       54.118     5171.356     9490.684     2928.717        9.168        0.880      404.973       50.145        0.015      340.954       15.328      865.372
10/12/2014  00:30:00      -92.243      407.254      -46.747       77.053      140.360       48.075     5937.112    19701.054     2311.223       10.225        1.397      417.570       53.112        0.016      340.969       15.353      865.401
10/12/2014  00:31:00     -152.675      382.835      -45.252       93.197      118.783       63.270     8685.604    14109.329     4003.045        9.935        1.340      412.156       60.326        0.021      340.986       15.381      865.454
10/12/2014  00:32:00      -46.185      443.960      -45.735      119.537      188.251       88.655    14289.143    35438.496     7859.787       12.945        2.879      446.356       98.112        0.048      341.015       15.432      865.456
10/12/2014  00:33:00       -4.999      532.287      -64.970      111.297      154.171       76.058    12386.929    23768.624     5784.831       16.475        2.097      532.310       74.900        0.020      341.036       15.467      865.461
10/12/2014  00:34:00      -38.378      388.197      -40.084       91.270      140.143       77.926     8330.155    19640.147     6072.505        9.390        1.702      390.089       79.360        0.041      341.010       15.423      865.483
10/12/2014  00:35:00      -34.079      410.163      -43.992       80.794      148.839       58.271     6527.658    22153.079     3395.531       10.170        1.604      411.576       65.320        0.025      340.978       15.368      865.488
10/12/2014  00:36:00     -127.075      285.428      -40.212       90.194      113.761       50.748     8134.875    12941.514     2575.332        6.144        1.183      312.437       47.659        0.023      340.965       15.345      865.499
10/12/2014  00:37:00     -167.854      217.589      -39.345       77.420      136.281       53.015     5993.880    18572.399     2810.557        5.222        1.369      274.809       55.147        0.040      340.983       15.377      865.533
10/12/2014  00:38:00     -263.076      270.591      -60.341      121.874      116.174       62.246    14853.281    13496.496     3874.504        8.914        1.611      377.397       68.114        0.033      341.003       15.412      865.564
10/12/2014  00:39:00     -152.746      264.583      -39.161       93.911       96.237       54.947     8819.242     9261.631     3019.133        5.798        1.055      305.509       54.705        0.032      340.924       15.276      865.593
10/12/2014  00:40:00     -149.325      228.110      -32.149       73.475       76.804       49.710     5398.553     5898.800     2471.072        4.456        0.688      272.639       47.246        0.030      340.904       15.244      865.626
10/12/2014  00:41:00      -75.099      375.617      -47.548       79.097       86.611       35.977     6256.300     7501.540     1294.351        8.202        0.753      383.051       33.463        0.008      340.851       15.152      865.646
10/12/2014  00:42:00     -133.388      218.136      -32.000       84.153       85.530       50.854     7081.688     7315.329     2586.109        4.169        0.849      255.686       40.489        0.025      340.848       15.146      865.680
10/12/2014  00:43:00     -112.926      337.428      -41.568       70.514      122.675       52.682     4972.206    15049.175     2775.368        7.556        1.140      355.823       54.535        0.023      340.858       15.164      865.717
10/12/2014  00:44:00     -140.394      305.097      -40.601       58.331       85.732       49.507     3402.483     7349.967     2450.918        6.382        0.660      335.849       39.117        0.014      340.840       15.134      865.735
10/12/2014  00:45:00     -129.119      221.921      -30.063       61.826       76.643       41.069     3822.468     5874.104     1686.679        3.910        0.569      256.750       36.612        0.020      340.796       15.059      865.741
10/12/2014  00:46:00     -138.173      306.344      -43.048       81.001       97.451       45.987     6561.081     9496.794     2114.804        6.648        0.909      336.063       49.418        0.022      340.813       15.089      865.766
10/12/2014  00:47:00     -130.156      301.390      -40.260       45.158       86.837       45.874     2039.226     7540.733     2104.465        6.054        0.584      328.293       43.421        0.017      340.802       15.071      865.746
10/12/2014  00:48:00      -89.825      138.971      -22.046       64.767       69.793       38.102     4194.755     4871.087     1451.725        1.919        0.526      165.473       35.974        0.047      340.755       14.993      865.747
10/12/2014  00:49:00      -87.440      161.317      -24.621       83.605       73.791       44.887     6989.738     5445.159     2014.864        2.436        0.722      183.491       53.736        0.086      340.748       14.982      865.706
10/12/2014  00:50:00     -194.808      217.613      -42.911       77.722      103.568       49.998     6040.769    10726.251     2499.796        5.320        0.963      292.071       49.172        0.028      340.791       15.052      865.706
10/12/2014  00:51:00     -165.342      187.266      -24.616      101.105       95.148       59.316    10222.250     9053.100     3518.357        4.290        1.140      249.813       56.942        0.052      340.774       15.025      865.711
10/12/2014  00:52:00     -203.133      202.646      -48.394      122.697      142.756       64.070    15054.464    20379.173     4104.967        6.210        1.977      286.930       82.108        0.082      340.802       15.072      865.707
10/12/2014  00:53:00      -72.397      284.066      -21.343       65.197       80.633       52.917     4250.699     6501.732     2800.223        4.997        0.678      293.146       39.834        0.018      340.825       15.109      865.696
10/12/2014  00:54:00     -124.834      126.337      -28.619       50.624       74.328       27.709     2562.774     5524.705      767.800        2.061        0.443      177.607       25.740        0.021      340.790       15.053      865.709
10/12/2014  00:55:00     -125.040       85.038      -19.787       55.853       66.731       33.468     3119.554     4453.068     1120.131        1.597        0.435      151.216       29.881        0.039      340.745       14.978      865.731
10/12/2014  00:56:00     -102.574      145.568      -19.422       43.508       64.509       34.335     1892.966     4161.438     1178.891        1.966        0.362      178.077       26.838        0.023      340.709       14.915      865.763
10/12/2014  00:57:00      -71.897      162.992      -30.041       36.551       52.200       28.108     1335.957     2724.883      790.054        1.874        0.243      178.144       22.645        0.016      340.758       15.000      865.829
10/12/2014  00:58:00      -51.657      130.844      -17.126       42.392       33.518       27.159     1797.078     1123.428      737.633        1.187        0.183      140.671       26.121        0.034      340.701       14.904      865.887
10/12/2014  00:59:00       12.754      155.497      -19.375       37.718       43.687       29.774     1422.617     1908.544      886.482        1.447        0.211      156.019       25.448        0.027      340.618       14.762      865.930
10/12/2014  01:00:00       38.836      120.228      -15.889       50.848       52.544       35.615     2585.534     2760.905     1268.456        1.141        0.331      126.345       32.165        0.065      340.614       14.755      865.977
10/12/2014  01:01:00        4.037      280.988      -35.963       45.059       78.387       38.922     2030.282     6144.470     1514.902        4.498        0.484      281.017       39.961        0.020      340.610       14.744      866.049
10/12/2014  01:02:00      -76.465      223.663      -30.415       61.900       70.112       42.700     3831.613     4915.753     1823.318        3.368        0.529      236.373       37.078        0.025      340.611       14.746      866.085
10/12/2014  01:03:00      -35.805      231.313      -36.635       38.719       41.925       22.352     1499.187     1757.703      499.607        2.994        0.188      234.068       16.426        0.005      340.622       14.766      866.076
10/12/2014  01:04:00      -15.004      256.553      -43.026       48.085       76.130       27.713     2312.144     5795.739      768.005        3.838        0.444      256.992       29.281        0.013      340.629       14.777      866.070
10/12/2014  01:05:00     -112.822       97.454      -22.423       55.824       47.700       24.442     3116.331     2275.252      597.407        1.436        0.299      149.084       26.443        0.031      340.617       14.760      866.064
10/12/2014  01:06:00      -83.107      209.321      -23.871       47.641       68.951       37.507     2269.695     4754.191     1406.812        2.986        0.422      225.215       37.170        0.027      340.564       14.667      866.037
10/12/2014  01:07:00     -123.510      180.611      -34.216       40.818       72.881       36.488     1666.099     5311.690     1331.378        2.868        0.415      218.803       36.645        0.028      340.493       14.550      866.042
10/12/2014  01:08:00     -159.767      145.751      -41.408       62.654       56.923       31.914     3925.558     3240.209     1018.522        2.833        0.409      216.261       23.322        0.012      340.501       14.561      866.072
10/12/2014  01:09:00     -174.161      150.397      -36.122       54.862       62.903       41.302     3009.894     3956.836     1705.834        3.146        0.434      230.111       39.396        0.029      340.637       14.791      866.079
10/12/2014  01:10:00     -161.217      211.869      -38.456       80.347       94.645       50.973     6455.613     8957.583     2598.213        4.518        0.901      266.232       49.272        0.034      340.568       14.675      866.108
10/12/2014  01:11:00     -220.061      228.594      -61.818       62.376       91.182       42.362     3890.752     8314.241     1794.516        5.925        0.700      317.304       44.358        0.020      340.743       14.970      866.121
10/12/2014  01:12:00      -95.371      155.431      -21.002       67.931       62.835       36.644     4614.642     3948.273     1342.810        2.180        0.495      182.358       39.063        0.046      340.637       14.791      866.082
10/12/2014  01:13:00      -93.355      148.859      -34.615       62.076       75.987       30.120     3853.401     5774.075      907.223        2.130        0.527      175.711       29.633        0.028      340.653       14.820      866.064
10/12/2014  01:14:00     -103.737      115.469      -10.149       62.728       93.503       34.436     3934.826     8742.782     1185.849        1.903        0.693      155.223       33.486        0.047      340.577       14.693      866.070
10/12/2014  01:15:00     -176.201       16.370      -20.851       78.693       84.904       43.275     6192.664     7208.702     1872.709        2.351        0.764      176.960       37.778        0.046      340.646       14.809      866.052
10/12/2014  01:16:00     -137.832       92.183        9.839      117.270       69.463       70.581    13752.369     4825.144     4981.673        2.557        1.178      165.817       72.214        0.190      340.631       14.784      866.045
10/12/2014  01:17:00     -184.611      156.922      -52.706      108.000       94.464       40.709    11664.081     8923.355     1657.228        4.186        1.112      242.293       45.614        0.035      340.739       14.966      866.102
10/12/2014  01:18:00     -136.063      133.205      -26.460       84.386       89.854       43.054     7121.059     8073.710     1853.636        2.700        0.852      190.412       50.834        0.071      340.670       14.847      866.150
10/12/2014  01:19:00     -165.543      259.674      -52.071       84.726      111.120       58.420     7178.526    12347.554     3412.924        6.024        1.147      307.953       63.317        0.042      340.731       14.949      866.193
10/12/2014  01:20:00     -166.110      171.192      -47.719       82.365       77.574       50.265     6784.054     6017.770     2526.528        3.725        0.766      238.536       45.281        0.036      340.791       15.053      866.214
10/12/2014  01:21:00     -177.295       55.367      -23.523       64.362       47.588       34.890     4142.499     2264.578     1217.337        2.134        0.381      185.739       11.831        0.004      340.797       15.064      866.222
10/12/2014  01:22:00     -160.882       85.379      -29.217       74.173      127.549       55.101     5501.607    16268.843     3036.115        2.941        1.240      182.134       53.083        0.085      340.768       15.015      866.273
10/12/2014  01:23:00     -159.343      240.691      -42.451       72.116       80.314       44.131     5200.704     6450.271     1947.538        4.936        0.680      288.656       32.744        0.013      340.692       14.883      866.309
10/12/2014  01:24:00     -187.902      206.696      -41.826       78.634       82.258       51.677     6183.314     6766.341     2670.546        4.770        0.781      279.339       48.289        0.030      340.676       14.857      866.338
10/12/2014  01:25:00     -144.610      169.976      -38.399      105.980      102.708       45.452    11231.834    10548.917     2065.889        3.756        1.192      223.168       32.584        0.021      340.711       14.916      866.330
10/12/2014  01:26:00     -148.162      111.771      -28.178       82.624       70.500       40.803     6826.735     4970.308     1664.898        2.435        0.673      185.593       34.851        0.035      340.679       14.865      866.318
10/12/2014  01:27:00     -217.039       14.637      -30.665      152.487      122.829       72.215    23252.228    15086.976     5215.046        4.590        2.178      217.532       64.421        0.088      340.665       14.838      866.293
10/12/2014  01:28:00     -191.355       42.970      -19.810       85.957       71.215       52.837     7388.559     5071.582     2791.706        2.705        0.763      196.120       44.016        0.050      340.621       14.764      866.293
10/12/2014  01:29:00     -178.899      116.788      -19.179      107.021       63.308       61.421    11453.601     4007.925     3772.498        3.262        0.962      213.645       53.874        0.064      340.583       14.700      866.319
10/12/2014  01:30:00     -227.435       86.426      -32.739      115.495       73.700       45.756    13339.050     5431.629     2093.653        4.056        1.043      243.302       52.588        0.047      340.559       14.663      866.350
10/12/2014  01:31:00      -67.338      -25.010       13.016       43.575       58.533       37.435     1898.766     3426.125     1401.410        0.603        0.336       71.833       26.807        0.139      340.537       14.626      866.348
10/12/2014  01:32:00      -68.727       63.613       -8.764       90.212       86.031       47.801     8138.136     7401.249     2284.983        1.333        0.891       93.648       56.495        0.364      340.485       14.536      866.414
10/12/2014  01:33:00     -179.626      107.614      -27.607       91.404       77.849       42.784     8354.752     6060.502     1830.465        3.042        0.812      209.396       40.822        0.038      340.460       14.491      866.464
10/12/2014  01:34:00      -56.993       32.412       -8.705       36.666       78.207       30.044     1344.386     6116.413      902.631        0.637        0.418       65.565       36.489        0.310      340.452       14.480      866.494
10/12/2014  01:35:00      -51.962      111.337      -14.680       55.458       40.445       31.655     3075.607     1635.837     1002.013        1.051        0.286      122.865       26.634        0.047      340.434       14.452      866.547
10/12/2014  01:36:00      -47.188      168.473      -17.446       66.532       77.860       51.117     4426.453     6062.256     2612.956        2.201        0.655      174.957       42.839        0.060      340.440       14.460      866.576
10/12/2014  01:37:00      -42.790      146.814      -21.553       86.076       99.168       46.818     7409.162     9834.390     2191.971        2.164        0.972      152.922       61.779        0.163      340.454       14.484      866.564
10/12/2014  01:38:00      -56.103      162.328      -24.705       67.715       64.116       40.621     4585.257     4110.849     1650.037        2.023        0.517      171.749       44.440        0.067      340.401       14.393      866.577
10/12/2014  01:39:00      -45.059      241.296      -23.444       62.010      122.946       47.001     3845.223    15115.786     2209.096        4.098        1.059      245.467       55.625        0.051      340.397       14.386      866.593
10/12/2014  01:40:00     -108.043      257.399      -34.895       97.108      110.426       44.460     9429.867    12193.973     1976.678        5.137        1.180      279.155       54.598        0.038      340.395       14.381      866.594
10/12/2014  01:41:00      -16.428      219.454      -22.471       98.667       96.593       50.213     9735.080     9330.297     2521.390        3.526        1.079      220.068       43.722        0.039      340.353       14.311      866.604
10/12/2014  01:42:00     -100.528      143.089      -22.175       58.934       65.887       31.216     3473.216     4341.144      974.458        1.993        0.439      174.872       32.325        0.034      340.305       14.231      866.642
10/12/2014  01:43:00       16.034      218.250      -22.854       65.716       60.585       47.166     4318.552     3670.515     2224.654        2.931        0.511      218.838       39.142        0.032      340.231       14.106      866.695
10/12/2014  01:44:00       38.607      165.204      -10.938       78.524      105.684       54.665     6166.026    11169.082     2988.250        2.461        1.016      169.655       61.250        0.130      340.173       14.009      866.743
10/12/2014  01:45:00       63.343      222.390      -27.436       73.352      112.171       65.346     5380.578    12582.330     4270.154        3.822        1.112      231.235       61.739        0.071      340.213       14.075      866.784
10/12/2014  01:46:00       54.606      153.810      -10.825       58.886      106.881       58.168     3467.505    11423.511     3383.493        2.251        0.914      163.216       61.859        0.144      340.147       13.964      866.801
10/12/2014  01:47:00       62.914      145.656       -5.610       79.621       98.525       61.488     6339.439     9707.194     3780.759        2.251        0.991      158.662       58.359        0.135      340.067       13.830      866.848
10/12/2014  01:48:00      -20.854      156.093      -13.648       73.948       93.999       47.289     5468.250     8835.739     2236.226        2.076        0.827      157.480       54.357        0.119      340.033       13.773      866.881
10/12/2014  01:49:00       34.272      245.101      -37.248       58.226       78.459       41.838     3390.317     6155.758     1750.388        3.696        0.565      247.486       37.053        0.022      339.998       13.712      866.901
10/12/2014  01:50:00      -53.170      221.498      -24.706       82.873       95.478       43.617     6868.012     9116.090     1902.420        3.519        0.894      227.790       47.286        0.043      339.984       13.689      866.918
10/12/2014  01:51:00      -29.971      212.956      -18.492       65.367       96.094       53.404     4272.826     9234.031     2851.963        3.147        0.818      215.055       51.577        0.058      339.954       13.641      866.946
10/12/2014  01:52:00     -147.747      339.287      -50.841      116.387      167.821       58.327    13546.000    28164.052     3402.054        9.231        2.256      370.061       65.232        0.031      339.990       13.698      866.978
10/12/2014  01:53:00     -193.584      222.893      -42.416      111.397      142.945       68.572    12409.323    20433.186     4702.143        6.324        1.877      295.222       74.716        0.064      339.970       13.665      866.983
10/12/2014  01:54:00     -187.403      207.799      -38.967      100.866      132.077       61.240    10173.868    17444.343     3750.284        5.559        1.568      279.822       71.631        0.066      339.970       13.666      866.960
10/12/2014  01:55:00     -191.482      200.754      -30.066       94.078      145.498       65.358     8850.593    21169.741     4271.676        5.608        1.715      277.431       60.286        0.047      339.947       13.628      866.945
10/12/2014  01:56:00     -261.934      275.667      -64.848      122.665      167.282       71.857    15046.707    27983.179     5163.366        9.849        2.410      380.265       83.867        0.049      339.972       13.668      866.925
10/12/2014  01:57:00     -265.506      281.912      -50.839      134.576      115.267       79.051    18110.808    13286.399     6249.087        9.509        1.882      387.256       70.336        0.033      340.001       13.715      866.897
10/12/2014  01:58:00     -255.602      185.293      -43.260      121.472      150.516       70.449    14755.389    22655.093     4963.087        7.195        2.119      315.699       55.732        0.031      340.041       13.785      866.857
10/12/2014  01:59:00     -238.922      187.443      -40.429      141.055      138.771       70.818    19896.592    19257.437     5015.149        6.900        2.208      303.675       73.961        0.059      340.048       13.797      866.832
10/12/2014  02:00:00     -213.108      275.816      -41.428      106.279      113.334       77.579    11295.149    12844.645     6018.549        7.668        1.508      348.553       60.217        0.030      340.037       13.777      866.837
10/12/2014  02:01:00     -244.668      291.277      -58.593      112.593      109.076       66.752    12677.237    11897.669     4455.786        8.858        1.452      380.401       60.238        0.025      340.039       13.780      866.851
10/12/2014  02:02:00     -215.645      207.921      -39.851      139.351      129.807       76.530    19418.598    16849.946     5856.858        6.672        2.106      299.557       78.557        0.069      340.032       13.770      866.856
10/12/2014  02:03:00     -190.126      252.402      -30.612      104.834      130.328       61.856    10990.096    16985.333     3826.136        6.629        1.590      315.998       57.918        0.034      340.017       13.742      866.885
10/12/2014  02:04:00     -180.395      295.572      -36.645      106.185      123.224       68.343    11275.286    15184.057     4670.757        7.618        1.557      346.273       59.666        0.030      340.053       13.804      866.909
10/12/2014  02:05:00     -122.894      237.192       -7.475      103.169      152.210       76.863    10643.811    23167.874     5907.988        5.556        1.986      267.139       81.065        0.092      340.045       13.792      866.925
10/12/2014  02:06:00     -171.898      283.582      -26.915      111.349      135.770       78.809    12398.494    18433.494     6210.907        7.386        1.852      331.614       69.252        0.044      340.077       13.844      866.932
10/12/2014  02:07:00     -222.383      170.886      -23.903      131.888       94.597       72.421    17394.464     8948.680     5244.849        5.540        1.579      280.457       64.996        0.054      340.096       13.878      866.927
10/12/2014  02:08:00     -288.920      284.297      -54.294      146.038      152.553       81.792    21327.181    23272.305     6689.992       10.926        2.564      405.339       76.337        0.035      340.144       13.958      866.920
10/12/2014  02:09:00     -272.734      318.693      -65.779      130.203      142.759       75.778    16952.922    20380.267     5742.252       11.167        2.154      419.463       72.064        0.030      340.137       13.945      866.899
10/12/2014  02:10:00     -232.728      300.437      -47.522      112.645      128.557       70.058    12688.929    16526.989     4908.127        9.040        1.706      380.032       69.689        0.034      340.138       13.948      866.908
10/12/2014  02:11:00     -250.221      351.715      -58.135       99.159      130.420       68.832     9832.550    17009.452     4737.822       11.063        1.579      431.641       59.368        0.019      340.125       13.925      866.916
10/12/2014  02:12:00     -152.463      248.555      -27.017       83.820      110.419       59.791     7025.757    12192.450     3574.977        5.427        1.140      291.590       52.649        0.033      340.096       13.877      866.964
10/12/2014  02:13:00     -184.415      288.580      -47.550      127.239      105.055       57.849    16189.646    11036.601     3346.558        7.506        1.529      342.473       55.818        0.027      340.080       13.850      867.017
10/12/2014  02:14:00     -142.088      235.725      -33.977       97.558      107.935       65.217     9517.551    11650.002     4253.199        5.116        1.271      275.236       71.842        0.068      340.027       13.761      867.094
10/12/2014  02:15:00     -167.269      360.168      -55.331      100.312      127.403       58.380    10062.494    16231.398     3408.268        9.523        1.485      397.115       58.283        0.022      340.019       13.746      867.146
10/12/2014  02:16:00      -86.334      463.970      -47.666       88.199      108.924       55.944     7779.119    11864.508     3129.774       12.388        1.139      471.934       50.144        0.011      339.993       13.702      867.194
10/12/2014  02:17:00      -86.337      271.104      -36.485       90.987      130.564       56.519     8278.722    17046.963     3194.452        5.540        1.426      284.520       65.354        0.053      339.964       13.654      867.214
10/12/2014  02:18:00      -68.182      298.958      -31.452       90.429      101.635       55.928     8177.422    10329.667     3127.946        5.832        1.082      306.634       55.767        0.033      339.883       13.518      867.235
10/12/2014  02:19:00      -84.029      482.573      -50.149      125.521      149.491       68.932    15755.460    22347.630     4751.682       14.265        2.143      489.835       55.970        0.013      339.856       13.471      867.221
10/12/2014  02:20:00     -110.368      457.099      -49.116      115.136      160.748       68.101    13256.270    25840.078     4637.808       13.363        2.187      470.235       75.559        0.026      339.863       13.483      867.217
10/12/2014  02:21:00     -107.116      448.763      -54.090       97.229      210.408       68.624     9453.449    44271.622     4709.271       13.710        2.922      461.370       89.916        0.038      339.846       13.456      867.195
10/12/2014  02:22:00     -172.475      393.735      -50.925      144.590      130.688       73.147    20906.353    17079.285     5350.485       11.534        2.167      429.854       71.821        0.028      339.805       13.385      867.172
10/12/2014  02:23:00     -187.165      335.387      -35.278      115.951      195.273       74.497    13444.530    38131.669     5549.812       10.293        2.856      384.077       69.160        0.032      339.817       13.407      867.124
10/12/2014  02:24:00     -176.265      235.910      -37.720      127.120      152.018       69.965    16159.392    23109.525     4895.153        6.615        2.208      294.488       66.849        0.052      339.811       13.396      867.090
10/12/2014  02:25:00     -162.358      317.852      -51.454      114.574      109.918       66.285    13127.118    12081.910     4393.748        7.982        1.480      356.918       60.822        0.029      339.777       13.338      867.059
10/12/2014  02:26:00     -136.105      307.528      -31.601      102.707      138.943       69.743    10548.715    19305.070     4864.073        7.440        1.736      336.300       73.214        0.047      339.747       13.289      867.033
10/12/2014  02:27:00     -122.484      278.790      -34.808       80.324      171.583       57.446     6451.886    29440.675     3300.023        6.656        1.960      304.510       41.844        0.019      339.788       13.358      867.022
10/12/2014  02:28:00     -205.518      254.183      -38.459      129.334      128.745       59.269    16727.319    16575.162     3512.828        7.256        1.841      326.874       50.358        0.024      339.834       13.434      867.049
10/12/2014  02:29:00     -177.697      329.237      -56.027      103.396      116.652       67.456    10690.630    13607.711     4550.271        8.598        1.442      374.130       61.572        0.027      339.821       13.413      867.103
10/12/2014  02:30:00     -221.750      274.342      -57.766      113.414      110.361       70.065    12862.717    12179.578     4909.125        7.886        1.498      352.756       64.324        0.033      339.821       13.413      867.119
10/12/2014  02:31:00     -295.354      326.984      -70.944      125.613      145.735       82.357    15778.676    21238.697     6782.612       12.149        2.190      440.627       84.532        0.037      339.924       13.587      867.136
10/12/2014  02:32:00     -309.732      374.849      -81.505      134.702      165.765       77.958    18144.629    27478.000     6077.456       14.739        2.585      486.257       77.467        0.025      339.976       13.673      867.169
10/12/2014  02:33:00     -265.594      308.118      -67.381      107.856      126.635       67.052    11632.988    16036.347     4495.997       10.109        1.608      406.788       61.332        0.023      339.891       13.530      867.170
10/12/2014  02:34:00     -242.964      309.849      -63.281      114.310      131.097       67.886    13066.755    17186.305     4608.545        9.695        1.743      393.749       72.328        0.034      339.802       13.381      867.180
10/12/2014  02:35:00     -221.049      150.417      -31.624      125.256      100.521       69.393    15688.967    10104.423     4815.351        5.154        1.530      267.372       72.478        0.073      339.774       13.336      867.161
10/12/2014  02:36:00     -263.319      273.966      -47.170      129.802      132.285       73.485    16848.517    17499.340     5399.973        9.318        1.987      379.992       74.101        0.038      339.747       13.288      867.165
10/12/2014  02:37:00     -210.405      221.830      -42.791      106.309      116.308       64.031    11301.699    13527.663     4099.999        6.211        1.446      305.743       54.959        0.032      339.727       13.256      867.128
10/12/2014  02:38:00     -145.441       93.084      -24.065       54.951       89.570       52.246     3019.604     8022.751     2729.597        2.208        0.689      172.678       33.750        0.038      339.691       13.197      867.113
10/12/2014  02:39:00     -189.196       72.779      -33.025       85.593       81.373       52.918     7326.244     6621.609     2800.272        2.946        0.837      202.711       31.653        0.024      339.672       13.163      867.100
10/12/2014  02:40:00     -185.994      -37.298      -10.486      125.028       97.119       55.347    15632.008     9432.024     3063.263        3.211        1.406      189.697       51.882        0.075      339.651       13.128      867.088
10/12/2014  02:41:00     -173.521       35.531      -21.051      107.274      108.784       51.691    11507.731    11833.947     2671.967        2.891        1.301      177.122       43.965        0.062      339.602       13.046      867.079
10/12/2014  02:42:00     -155.279      133.022      -19.512       77.675       88.055       49.365     6033.385     7753.719     2436.859        2.920        0.811      204.466       41.443        0.041      339.507       12.885      867.100
10/12/2014  02:43:00      -64.635       98.153       -6.342       69.629      120.624       53.667     4848.200    14550.036     2880.138        1.806        1.114      117.523       47.718        0.165      339.516       12.903      867.107
10/12/2014  02:44:00     -103.867       58.063      -11.965       75.191       94.700       43.578     5653.689     8968.132     1899.079        1.541        0.826      118.994       25.466        0.046      339.554       12.966      867.107
10/12/2014  02:45:00     -146.182       17.777       -7.079      100.419       91.481       52.207    10084.016     8368.786     2725.576        2.145        1.059      147.259       45.241        0.094      339.499       12.873      867.073
10/12/2014  02:46:00     -128.931        3.622      -20.590       57.605      131.697       53.078     3318.346    17344.029     2817.231        2.027        1.174      128.982       19.053        0.022      339.503       12.878      867.055
10/12/2014  02:47:00     -162.585       15.067      -30.443       76.571       88.659       43.786     5863.083     7860.457     1917.208        2.161        0.782      163.282       37.730        0.053      339.499       12.871      867.044
10/12/2014  02:48:00     -172.720      -28.456      -21.041       67.144       60.517       51.855     4508.310     3662.338     2688.921        2.097        0.543      175.049       45.161        0.067      339.458       12.803      867.011
10/12/2014  02:49:00     -249.925      -43.468      -14.033       97.075       81.237       47.790     9423.520     6599.434     2283.872        4.142        0.915      253.677       39.396        0.024      339.376       12.663      866.998
10/12/2014  02:50:00     -245.700      -17.641      -16.997      111.007       76.150       41.049    12322.642     5798.754     1685.017        4.038        0.990      246.333       46.166        0.035      339.285       12.510      866.993
10/12/2014  02:51:00     -253.785      -11.142      -20.131       95.154       80.978       46.377     9054.258     6557.431     2150.859        4.135        0.888      254.030       44.598        0.031      339.228       12.415      866.982
10/12/2014  02:52:00     -176.579        1.030      -12.913       84.866       67.056       45.889     7202.272     4496.499     2105.762        2.257        0.690      176.582       50.469        0.082      339.211       12.387      866.974
10/12/2014  02:53:00     -132.436      -22.104      -12.910       68.182       35.145       31.614     4648.725     1235.178      999.474        1.254        0.344      134.268       37.076        0.076      339.251       12.456      866.968
10/12/2014  02:54:00      -58.389      -23.551        0.830       38.027       20.494       22.071     1446.056      420.020      487.127        0.316        0.118       62.960       18.713        0.088      339.197       12.367      866.985
10/12/2014  02:55:00       -1.895       -7.216        0.091       41.577       32.376       45.926     1728.683     1048.175     2109.208        0.247        0.244        7.460       29.012       15.122      339.024       12.073      866.969
10/12/2014  02:56:00      -32.707      -16.072       10.811       64.600       30.527       32.316     4173.125      931.887     1044.302        0.380        0.307       36.442       31.048        0.726      338.976       11.994      866.967
10/12/2014  02:57:00      -14.443       28.556       13.256       31.145       22.156       23.400      970.024      490.876      547.542        0.160        0.100       32.001       16.131        0.254      339.084       12.177      866.967
10/12/2014  02:58:00      -58.887       57.950      -18.101       32.499       42.384       18.156     1056.204     1796.419      329.646        0.517        0.159       82.619       18.812        0.052      339.219       12.402      866.974
10/12/2014  02:59:00      -69.805       32.340      -12.145       31.818       51.909       29.616     1012.384     2694.526      877.112        0.532        0.229       76.932       28.765        0.140      339.216       12.399      866.977
10/12/2014  03:00:00     -163.590      172.939      -46.011       72.241       82.007       49.533     5218.771     6725.069     2453.544        3.659        0.720      238.053       41.743        0.031      339.376       12.663      866.973
10/12/2014  03:01:00      -74.360       71.777      -14.775       60.273       86.318       43.441     3632.849     7450.727     1887.136        1.193        0.649      103.351       36.824        0.127      339.370       12.656      866.963
10/12/2014  03:02:00     -139.576      257.730      -33.524       66.257      110.538       53.626     4390.000    12218.709     2875.718        5.325        0.974      293.098       50.768        0.030      339.366       12.647      866.973
10/12/2014  03:03:00     -144.240      218.645      -35.725       85.899      115.740       48.860     7378.700    13395.705     2387.315        4.652        1.158      261.937       46.690        0.032      339.350       12.621      866.980
10/12/2014  03:04:00     -204.053      173.856      -48.468       76.237       69.867       50.058     5812.042     4881.353     2505.773        4.370        0.660      268.074       36.909        0.019      339.387       12.681      867.003
10/12/2014  03:05:00     -167.953      200.121      -27.884       77.370      102.010       51.156     5986.174    10406.043     2616.899        4.402        0.950      261.260       52.421        0.040      339.381       12.672      866.999
10/12/2014  03:06:00     -148.737      130.310      -20.951       94.279      103.685       49.020     8888.568    10750.505     2402.942        3.079        1.102      197.745       54.741        0.077      339.357       12.633      866.981
10/12/2014  03:07:00     -189.814      202.893      -57.101       86.713       89.982       50.125     7519.158     8096.777     2512.525        4.929        0.906      277.840       53.461        0.037      339.376       12.663      866.963
10/12/2014  03:08:00     -168.626      177.022      -31.792       68.788      113.218       60.193     4731.777    12818.358     3623.236        4.097        1.059      244.482       35.673        0.021      339.403       12.708      866.947
10/12/2014  03:09:00     -186.758      179.951      -39.289      109.586       98.803       51.945    12009.124     9762.064     2698.296        4.663        1.223      259.347       59.206        0.052      339.438       12.767      866.953
10/12/2014  03:10:00     -128.106      199.767      -21.971       76.385       92.219       52.864     5834.677     8504.332     2794.615        3.696        0.857      237.314       52.524        0.049      339.392       12.690      866.964
10/12/2014  03:11:00     -186.830      224.502      -49.773       95.929       99.259       45.435     9202.429     9852.428     2064.334        5.445        1.056      292.073       47.349        0.026      339.433       12.759      866.981
10/12/2014  03:12:00     -127.665      194.355      -21.465       84.162      116.785       63.799     7083.249    13638.780     4070.294        3.966        1.240      232.534       59.623        0.066      339.377       12.667      866.974
10/12/2014  03:13:00     -192.501      242.982      -45.617       72.122       89.150       51.847     5201.587     7947.709     2688.072        5.700        0.792      309.995       47.937        0.024      339.423       12.741      866.971
10/12/2014  03:14:00     -214.784      158.841      -37.310       73.498       89.177       48.782     5401.918     7952.520     2379.673        4.424        0.787      267.138       40.977        0.024      339.428       12.750      866.958
10/12/2014  03:15:00     -174.200      197.377      -33.432       89.327       95.989       61.998     7979.243     9213.834     3843.804        4.573        1.052      263.255       63.194        0.058      339.416       12.730      866.944
10/12/2014  03:16:00     -155.807      145.436      -24.051       66.516       82.089       43.241     4424.429     6738.686     1869.781        2.952        0.652      213.137       38.087        0.032      339.397       12.700      866.936
10/12/2014  03:17:00     -140.911      204.535      -39.422       81.409       79.110       54.593     6627.489     6258.354     2980.387        3.955        0.793      248.376       49.228        0.039      339.377       12.664      866.947
10/12/2014  03:18:00     -154.547      279.365      -44.782       79.049       97.618       53.725     6248.707     9529.230     2886.346        6.130        0.933      319.264       40.601        0.016      339.388       12.683      866.964
10/12/2014  03:19:00     -161.091      132.319      -25.679       99.144      122.843       42.081     9829.559    15090.486     1770.780        3.540        1.335      208.467       47.592        0.052      339.406       12.714      866.967
10/12/2014  03:20:00      -83.863       99.931       -1.775       94.888       60.992       42.305     9003.711     3720.065     1789.681        1.577        0.726      130.458       41.050        0.099      339.354       12.629      866.980
10/12/2014  03:21:00     -132.883      110.489      -22.995       82.275      117.642       48.092     6769.144    13839.526     2312.845        2.665        1.146      172.817       52.440        0.092      339.354       12.627      866.990
10/12/2014  03:22:00     -174.621      141.970      -32.190       84.557       76.073       46.656     7149.963     5787.085     2176.765        3.340        0.756      225.051       45.275        0.040      339.349       12.619      867.008
10/12/2014  03:23:00     -165.376       91.448      -20.465       94.118       56.544       54.290     8858.151     3197.232     2947.391        2.556        0.750      188.976       53.446        0.080      339.308       12.551      867.004
10/12/2014  03:24:00     -123.814       88.580      -18.047       95.845      122.706       56.862     9186.204    15056.779     3233.275        2.548        1.374      152.237       62.563        0.169      339.326       12.580      866.994
10/12/2014  03:25:00      -56.477       48.429      -14.512       63.197       67.606       31.014     3993.869     4570.608      961.869        0.763        0.476       74.398       27.254        0.134      339.302       12.542      867.010
10/12/2014  03:26:00      -72.906       37.975      -10.106       54.359       94.123       35.144     2954.891     8859.137     1235.074        0.995        0.652       82.204       26.693        0.105      339.328       12.587      867.060
10/12/2014  03:27:00       69.857       34.819       48.547       89.492       85.143       43.868     8008.840     7249.377     1924.428        1.281        0.859       78.053       42.942        0.303      339.299       12.536      867.077
10/12/2014  03:28:00       57.376       -2.217       22.528       49.601       60.178       47.429     2460.307     3621.376     2249.533        0.607        0.417       57.419       39.959        0.484      339.249       12.452      867.079
10/12/2014  03:29:00      -93.270      -22.221        5.699       76.721       50.173       38.057     5886.077     2517.333     1448.350        0.954        0.493       95.880       44.586        0.216      339.271       12.490      867.072
10/12/2014  03:30:00        0.265       23.125       -0.010       66.606       67.467       37.401     4436.357     4551.796     1398.811        0.546        0.519       23.127       37.705        2.658      339.176       12.329      867.052
10/12/2014  03:31:00     -127.523      -42.572        5.152       65.920       63.910       31.096     4345.471     4084.527      966.958        1.375        0.470      134.441       30.933        0.053      339.223       12.408      867.045
10/12/2014  03:32:00      -84.030      -20.146       -4.232       49.203       44.640       27.784     2420.952     1992.710      771.955        0.633        0.259       86.411       23.892        0.076      339.227       12.414      867.035
10/12/2014  03:33:00     -161.554      -91.934      -13.374       69.483       66.273       36.170     4827.906     4392.075     1308.277        2.263        0.526      185.880       24.019        0.017      339.203       12.374      867.039
10/12/2014  03:34:00       18.389        5.637       11.773       53.612       30.381       31.016     2874.283      923.029      962.019        0.263        0.238       19.233       17.448        0.823      339.108       12.215      867.021
10/12/2014  03:35:00       13.464       -0.032       -6.308       20.770       15.530       15.896      431.378      241.178      252.688        0.057        0.046       13.464        4.252        0.100      339.095       12.193      867.025
10/12/2014  03:36:00       28.865       24.288       -6.343       23.063       22.975       14.207      531.892      527.855      201.850        0.136        0.063       37.724       10.202        0.073      339.106       12.212      867.015
10/12/2014  03:37:00        6.808       14.232       20.208       44.784       28.738       21.189     2005.648      825.845      448.971        0.197        0.164       15.777       27.374        3.011      339.021       12.069      867.026
10/12/2014  03:38:00       59.290       44.560       45.622       55.318       37.173       26.799     3060.070     1381.821      718.184        0.637        0.258       74.168       24.867        0.112      339.082       12.171      867.033
10/12/2014  03:39:00       13.188       48.582       10.786       29.874       26.980       22.792      892.480      727.895      519.462        0.239        0.107       50.341       19.110        0.144      339.069       12.150      867.071
10/12/2014  03:40:00      -33.208       94.359      -13.233       61.128       47.113       30.400     3736.643     2219.594      924.161        0.853        0.344      100.032       24.129        0.058      339.086       12.179      867.090
10/12/2014  03:41:00      -75.362      147.753      -19.365       59.621      100.376       38.560     3554.620    10075.307     1486.869        2.150        0.756      165.862       34.178        0.042      339.098       12.196      867.088
10/12/2014  03:42:00      -38.701       20.785       -1.425       30.088       37.348       21.831      905.312     1394.903      476.584        0.235        0.139       43.929       16.425        0.140      339.055       12.128      867.090
10/12/2014  03:43:00      -48.024       33.223       13.341       60.328       39.806       37.013     3639.450     1584.546     1369.961        0.509        0.330       58.396       39.254        0.452      339.111       12.221      867.091
10/12/2014  03:44:00       21.559       82.272      -14.354       40.730       61.353       35.530     1658.947     3764.225     1262.384        0.706        0.334       85.049       36.609        0.185      339.100       12.203      867.091
10/12/2014  03:45:00       -8.951       50.952       13.304       50.548       50.567       35.469     2555.120     2557.003     1258.017        0.461        0.319       51.732       33.155        0.411      339.067       12.145      867.091
10/12/2014  03:46:00       18.236        4.669       12.115       19.393       22.615       13.366      376.103      511.434      178.640        0.078        0.053       18.824        8.841        0.221      338.968       11.979      867.106
10/12/2014  03:47:00        3.415      -10.702        5.872       13.417       18.524        9.972      180.028      343.146       99.434        0.039        0.031       11.234        6.776        0.364      338.885       11.840      867.134
10/12/2014  03:48:00      -11.155      -78.571        3.859       36.211       31.727       23.575     1311.210     1006.580      555.792        0.459        0.144       79.359       19.974        0.063      339.081       12.169      867.178
10/12/2014  03:49:00      -26.477      -31.149        3.473       33.084       29.145       26.623     1094.583      849.407      708.795        0.217        0.133       40.881       23.675        0.335      339.046       12.109      867.225
10/12/2014  03:50:00       -7.727      -77.229        0.275       42.030       85.451       48.016     1766.538     7301.852     2305.567        0.870        0.569       77.615       47.751        0.379      338.902       11.869      867.254
10/12/2014  03:51:00      -21.832      -67.613      -18.222       22.093       53.140       24.784      488.081     2823.902      614.240        0.465        0.196       71.050       16.820        0.056      339.052       12.120      867.287
10/12/2014  03:52:00      -16.122      -75.279       -3.041       28.327       34.845       24.833      802.406     1214.158      616.694        0.428        0.132       76.986       16.296        0.045      339.062       12.137      867.305
10/12/2014  03:53:00       -4.447      -62.572      -10.129       44.209       38.458       26.389     1954.419     1479.004      696.404        0.408        0.206       62.730       19.854        0.100      339.055       12.126      867.312
10/12/2014  03:54:00      -50.232      -64.570       -9.552       27.413       31.629       23.242      751.459     1000.406      540.183        0.454        0.115       81.809       12.103        0.022      339.005       12.044      867.330
10/12/2014  03:55:00     -104.180      -27.526      -14.221       62.979       26.537       18.131     3966.380      704.231      328.730        0.841        0.250      107.755       12.725        0.014      338.985       12.009      867.350
10/12/2014  03:56:00      -47.346        3.398       -3.916       43.804       29.321       12.837     1918.759      859.694      164.792        0.261        0.147       47.468       11.231        0.056      338.886       11.842      867.373
10/12/2014  03:57:00      -54.393      -32.878        0.842       58.507       33.854       11.758     3423.038     1146.084      138.256        0.437        0.235       63.558       12.843        0.041      338.913       11.888      867.398
10/12/2014  03:58:00      -46.318      -29.450        6.296       33.554       45.718       24.557     1125.887     2090.143      603.044        0.344        0.191       54.888       25.948        0.223      338.895       11.857      867.414
10/12/2014  03:59:00       -3.492       -4.131        7.895       20.081       16.860       12.053      403.239      284.276      145.268        0.046        0.042        5.409       11.099        4.210      338.828       11.742      867.411
10/12/2014  04:00:00     -119.252        9.537      -13.614       43.957       53.369       19.032     1932.246     2848.221      362.206        0.982        0.257      119.633       18.824        0.025      338.845       11.772      867.411
10/12/2014  04:01:00     -145.759       35.346      -20.959       51.255       62.185       32.456     2627.071     3867.001     1053.422        1.524        0.377      149.983       25.996        0.030      338.804       11.706      867.419
10/12/2014  04:02:00     -109.159       86.358      -19.051       49.946       46.023       31.140     2494.604     2118.083      969.702        1.266        0.279      139.188       36.716        0.070      338.760       11.630      867.439
10/12/2014  04:03:00      -92.973       95.827      -22.905       41.094       39.606       21.636     1688.727     1568.644      468.109        1.104        0.186      133.517       25.266        0.036      338.821       11.733      867.463
10/12/2014  04:04:00      -94.938       71.634      -13.709       25.975       37.800       22.658      674.697     1428.807      513.399        0.847        0.131      118.932       20.564        0.030      338.808       11.710      867.484
10/12/2014  04:05:00     -117.061      180.651      -33.937       29.539       46.487       26.393      872.577     2160.997      696.604        2.561        0.187      215.263       19.714        0.008      338.798       11.691      867.498
10/12/2014  04:06:00      -43.969       80.039      -17.229       43.954       28.941       19.710     1931.958      837.607      388.475        0.590        0.158       91.321       17.214        0.036      338.769       11.647      867.490
10/12/2014  04:07:00      -11.508       87.112       -4.500       24.530       43.014       25.620      601.715     1850.190      656.408        0.542        0.155       87.868       21.147        0.058      338.724       11.570      867.487
10/12/2014  04:08:00      -50.156       54.696      -10.113       27.773       24.470       15.610      771.356      598.793      243.662        0.361        0.081       74.211       16.748        0.051      338.717       11.557      867.486
10/12/2014  04:09:00      -41.440       83.261      -10.175       35.784       38.822       20.686     1280.513     1507.179      427.916        0.598        0.161       93.004       13.983        0.023      338.678       11.494      867.488
10/12/2014  04:10:00      -48.487       56.738      -14.221       29.409       50.022       14.814      864.917     2502.242      219.454        0.468        0.179       74.634        7.234        0.009      338.737       11.592      867.469
10/12/2014  04:11:00      -36.052       46.931       -6.229       14.565       40.664       14.710      212.147     1653.567      216.393        0.281        0.104       59.181       10.806        0.033      338.643       11.435      867.458
10/12/2014  04:12:00        4.990      -13.383        3.539       22.195       19.476       11.307      492.621      379.320      127.839        0.061        0.050       14.283        7.165        0.252      338.652       11.447      867.450
10/12/2014  04:13:00      -52.504      -26.882        1.032       36.923       42.757       22.957     1363.322     1828.182      527.038        0.360        0.186       58.986       20.581        0.122      338.687       11.509      867.462
10/12/2014  04:14:00      -83.061       14.501      -10.269       50.317       46.640       32.405     2531.823     2175.250     1050.083        0.649        0.288       84.317       17.542        0.043      338.691       11.515      867.481
10/12/2014  04:15:00      -84.964       68.932       -6.315       82.741       47.885       38.810     6846.129     2292.958     1506.185        1.133        0.532      109.410       35.528        0.105      338.689       11.509      867.484
10/12/2014  04:16:00      -72.161      126.196      -13.929       64.936      146.808       45.675     4216.691    21552.599     2086.246        2.459        1.393      145.371       63.777        0.192      338.667       11.473      867.472
10/12/2014  04:17:00      -53.867       63.459      -15.073       34.935       57.489       31.202     1220.431     3304.954      973.595        0.633        0.275       83.239       24.684        0.088      338.655       11.453      867.454
10/12/2014  04:18:00      -96.742      -28.516       -3.073       53.798       43.685       26.125     2894.206     1908.368      682.502        0.783        0.274      100.857       24.456        0.059      338.709       11.545      867.446
10/12/2014  04:19:00     -124.074      -50.025        5.935       92.711       72.257       35.198     8595.300     5221.071     1238.914        1.649        0.753      133.779       28.737        0.046      338.635       11.419      867.448
10/12/2014  04:20:00      -65.854       31.825       -4.424       91.788       56.000       35.042     8424.952     3136.021     1227.934        0.908        0.639       73.140       29.796        0.166      338.552       11.281      867.457
10/12/2014  04:21:00      -99.642      -15.018        6.140       58.955       50.887       30.736     3475.648     2589.493      944.687        0.860        0.350      100.767       28.874        0.082      338.597       11.357      867.456
10/12/2014  04:22:00     -102.814      -28.818        0.727       61.049       43.619       28.560     3727.002     1902.579      815.688        0.892        0.322      106.777       25.731        0.058      338.609       11.376      867.438
10/12/2014  04:23:00      -72.624      -52.103       -2.690       51.791       51.638       23.424     2682.316     2666.450      548.668        0.695        0.295       89.381       19.928        0.050      338.603       11.366      867.407
10/12/2014  04:24:00       -0.835      -34.507       14.947       69.719       35.377       42.968     4860.798     1251.517     1846.242        0.469        0.398       34.517       26.763        0.601      338.614       11.384      867.372
10/12/2014  04:25:00      -42.383       -0.010       -1.096       48.228       33.254       16.753     2325.957     1105.847      280.656        0.275        0.186       42.383       13.925        0.108      338.493       11.184      867.353
10/12/2014  04:26:00      -27.435      -27.561        4.458       50.636       36.382       31.956     2563.996     1323.680     1021.195        0.322        0.245       38.889       25.873        0.443      338.489       11.174      867.339
10/12/2014  04:27:00      -54.889      -48.297        6.436       40.740       32.395       21.045     1659.724     1049.433      442.910        0.427        0.158       73.112       22.697        0.096      338.549       11.277      867.325
10/12/2014  04:28:00       -6.850      -48.337        5.957       18.464       21.283       16.752      340.931      452.975      280.643        0.175        0.054       48.820       11.062        0.051      338.535       11.252      867.316
10/12/2014  04:29:00      -23.031      -11.364       -0.548       28.171       19.674       16.354      793.600      387.067      267.457        0.105        0.072       25.682       19.346        0.567      338.493       11.181      867.329
10/12/2014  04:30:00      -41.967      -72.127       -0.281       43.914       28.829       18.592     1928.409      831.115      345.667        0.503        0.155       83.448       21.705        0.068      338.595       11.353      867.307
10/12/2014  04:31:00       -1.454       -9.014        8.221       21.471       20.327       13.616      461.007      413.167      185.396        0.061        0.053        9.130       10.006        1.201      338.515       11.218      867.306
10/12/2014  04:32:00      -49.889      -48.261       -9.494       25.457       13.007       13.208      648.039      169.194      174.459        0.295        0.050       69.412       13.924        0.040      338.594       11.353      867.296
10/12/2014  04:33:00      -33.012      -31.069       -2.078       47.335       17.992       18.929     2240.564      323.705      358.296        0.249        0.146       45.332        6.006        0.018      338.443       11.099      867.300
10/12/2014  04:34:00        1.040      -39.659        2.488       24.327       31.072       20.980      591.800      965.488      440.147        0.179        0.100       39.673       14.254        0.129      338.283       10.829      867.306
10/12/2014  04:35:00       -3.623       -1.971        7.899       11.574       15.404       10.641      133.968      237.288      113.226        0.028        0.024        4.124        6.568        2.537      338.243       10.763      867.302
10/12/2014  04:36:00      -22.347       23.656       -8.106       25.793       52.801       16.895      665.291     2787.939      285.431        0.243        0.187       32.542       24.372        0.561      338.444       11.098      867.292
10/12/2014  04:37:00      -36.522      128.098       -7.749       58.394       71.320       38.973     3409.816     5086.553     1518.881        1.391        0.501      133.203       32.855        0.061      338.536       11.252      867.271
10/12/2014  04:38:00      -16.843       82.471      -22.028       34.579       30.690       19.831     1195.727      941.888      393.259        0.505        0.127       84.174       15.325        0.033      338.573       11.315      867.255
10/12/2014  04:39:00      -23.198       38.816      -16.794       24.742       44.274       19.791      612.156     1960.224      391.692        0.264        0.148       45.220       16.536        0.134      338.585       11.337      867.249
10/12/2014  04:40:00      -43.737       94.334        0.826       47.778       69.436       47.057     2282.774     4821.425     2214.372        1.006        0.466      103.980       35.499        0.117      338.419       11.057      867.279
10/12/2014  04:41:00      -48.297      126.928       -9.869       41.109       65.841       33.370     1689.911     4334.991     1113.536        1.284        0.357      135.806       26.349        0.038      338.461       11.128      867.315
10/12/2014  04:42:00      -75.222       79.917      -19.147       63.401       57.393       37.882     4019.732     3294.011     1435.059        1.058        0.437      109.750       40.061        0.133      338.541       11.262      867.348
10/12/2014  04:43:00      -32.676       71.214       -4.259       46.404       58.617       29.258     2153.356     3435.970      856.056        0.630        0.322       78.353       30.708        0.154      338.512       11.214      867.390
10/12/2014  04:44:00       -6.974       59.272       -3.257       29.341       66.709       26.143      860.878     4450.146      683.472        0.478        0.300       59.681       23.967        0.161      338.528       11.240      867.415
10/12/2014  04:45:00      -28.882       77.826      -11.492       49.513       38.955       26.932     2451.573     1517.468      725.312        0.586        0.235       83.013       31.187        0.141      338.497       11.189      867.445
10/12/2014  04:46:00      -35.925      126.526       -6.701       54.338       63.051       33.516     2952.579     3975.380     1123.339        1.270        0.403      131.527       28.833        0.048      338.460       11.125      867.477
10/12/2014  04:47:00       -8.976       37.156        1.483       60.699       31.810       26.691     3684.327     1011.849      712.411        0.344        0.270       38.225       21.183        0.307      338.453       11.114      867.500
10/12/2014  04:48:00       55.871       13.419       16.327       23.594       23.026       26.239      556.674      530.200      688.496        0.267        0.089       57.460       16.130        0.079      338.409       11.041      867.509
10/12/2014  04:49:00       40.201       36.794        4.815       43.690       23.336       21.289     1908.841      544.565      453.238        0.295        0.145       54.497       10.673        0.038      338.419       11.057      867.503
10/12/2014  04:50:00      -35.322       30.634       -1.023       22.869       19.415       18.366      523.003      376.925      337.308        0.171        0.062       46.755       13.667        0.085      338.417       11.054      867.502
10/12/2014  04:51:00        3.257       47.450       -8.959       24.336       27.925       12.912      592.218      779.789      166.720        0.194        0.077       47.562       10.108        0.045      338.407       11.036      867.493
10/12/2014  04:52:00       25.887       37.947        2.664       20.099       41.101       15.752      403.968     1689.300      248.119        0.223        0.117       45.936       16.303        0.126      338.351       10.944      867.480
10/12/2014  04:53:00       -8.265      -34.175       -7.132       33.205       18.986       10.540     1102.592      360.479      111.090        0.143        0.079       35.160        5.833        0.028      338.432       11.079      867.446
10/12/2014  04:54:00      -36.570      -34.394       11.993       46.679       33.073       16.208     2178.887     1093.828      262.694        0.310        0.177       50.203       15.415        0.094      338.397       11.020      867.382
10/12/2014  04:55:00     -113.367      -83.619        2.142       55.022       30.568       21.972     3027.441      934.380      482.757        1.215        0.222      140.869       13.907        0.010      338.473       11.147      867.325
10/12/2014  04:56:00     -148.370     -103.663        0.266       58.311       47.971       29.640     3400.217     2301.220      878.556        1.967        0.329      180.996       26.288        0.021      338.418       11.055      867.263
10/12/2014  04:57:00     -129.975      -64.638       -9.749       52.007       37.350       22.328     2704.773     1395.039      498.528        1.288        0.230      145.160       22.718        0.024      338.404       11.032      867.216
10/12/2014  04:58:00      -50.684      -57.231        1.666       32.477       34.691       20.396     1054.741     1203.442      416.009        0.426        0.134       76.447       18.249        0.057      338.430       11.076      867.175
10/12/2014  04:59:00      -49.071      -44.112        0.284       36.967       36.251       24.915     1366.538     1314.119      620.747        0.383        0.165       65.984       21.332        0.105      338.369       10.974      867.167
10/12/2014  05:00:00      -76.233      -14.180      -15.811       18.202       21.911       16.771      331.303      480.105      281.266        0.368        0.055       77.541       11.271        0.021      338.386       11.001      867.193
10/12/2014  05:01:00      -57.356       17.726       -7.845       20.225       16.471       16.743      409.045      271.310      280.323        0.231        0.048       60.033        7.739        0.017      338.376       10.984      867.226
10/12/2014  05:02:00      -44.909       42.676      -13.851       25.767       25.770       15.472      663.959      664.102      239.369        0.280        0.078       61.952       11.484        0.034      338.461       11.128      867.240
10/12/2014  05:03:00      -43.532       52.151      -17.495       22.860       27.779       11.154      522.577      771.694      124.419        0.317        0.071       67.932       10.983        0.026      338.497       11.188      867.238
10/12/2014  05:04:00      -79.433       42.684      -20.722       30.290       37.205       15.345      917.481     1384.184      235.482        0.555        0.127       90.175        8.178        0.008      338.453       11.114      867.222
10/12/2014  05:05:00     -109.773      112.840      -30.627       38.703       37.418       19.968     1497.931     1400.075      398.714        1.451        0.165      157.426       20.450        0.017      338.397       11.020      867.199
10/12/2014  05:06:00     -134.595      151.279      -23.496       86.115       88.195       55.578     7415.790     7778.295     3088.934        2.992        0.914      202.487       53.894        0.071      338.459       11.122      867.159
10/12/2014  05:07:00     -170.605      215.323      -39.809       86.360       93.992       50.408     7457.988     8834.450     2540.957        4.794        0.942      274.718       45.392        0.027      338.473       11.146      867.139
10/12/2014  05:08:00     -155.017      250.377      -34.565       73.425      111.626       50.636     5391.260    12460.326     2563.969        5.416        1.021      294.481       45.476        0.024      338.505       11.198      867.138
10/12/2014  05:09:00     -152.942      232.427      -44.883       81.459       96.453       51.774     6635.627     9303.197     2680.512        4.902        0.931      278.233       54.114        0.038      338.475       11.148      867.137
10/12/2014  05:10:00     -147.306      260.456      -37.012       82.588      103.147       62.512     6820.781    10639.312     3907.700        5.613        1.068      299.226       63.065        0.044      338.466       11.133      867.127
10/12/2014  05:11:00     -118.256      197.235      -40.258       62.306       69.305       46.256     3882.074     4803.217     2139.648        3.266        0.541      229.969       41.200        0.032      338.496       11.185      867.110
10/12/2014  05:12:00     -111.420      184.648      -24.930       66.677       63.669       39.151     4445.801     4053.696     1532.839        2.858        0.502      215.661       27.347        0.016      338.467       11.135      867.102
10/12/2014  05:13:00      -91.116      146.593      -17.791       75.204       68.293       45.629     5655.680     4663.992     2082.029        2.125        0.620      172.603       43.354        0.063      338.478       11.155      867.093
10/12/2014  05:14:00     -100.377      178.253      -19.542       65.637       71.716       44.916     4308.234     5143.131     2017.446        2.685        0.573      204.572       38.810        0.036      338.491       11.175      867.092
10/12/2014  05:15:00     -114.140      154.455      -17.688       51.161       54.181       39.602     2617.470     2935.591     1568.301        2.216        0.356      192.053       33.754        0.031      338.501       11.194      867.100
10/12/2014  05:16:00     -133.841      168.389      -37.830       80.771       72.312       46.619     6523.950     5228.978     2173.333        3.081        0.696      215.101       47.891        0.050      338.533       11.247      867.108
10/12/2014  05:17:00     -160.755      213.544      -39.954       73.420       80.356       51.045     5390.553     6457.096     2605.598        4.374        0.723      267.288       42.113        0.025      338.558       11.288      867.112
10/12/2014  05:18:00     -195.881      185.598      -46.581       61.104      127.368       49.736     3733.758    16222.698     2473.690        4.870        1.122      269.844       57.813        0.046      338.580       11.324      867.112
10/12/2014  05:19:00     -131.141      143.584      -26.748       83.207       84.010       50.480     6923.337     7057.752     2548.191        2.753        0.826      194.459       57.493        0.087      338.517       11.220      867.111
10/12/2014  05:20:00     -148.960      173.835      -38.224       60.017       77.677       48.808     3602.020     6033.743     2382.214        3.294        0.601      228.927       41.977        0.034      338.563       11.298      867.139
10/12/2014  05:21:00     -148.368      188.501      -43.732       62.960       53.490       33.053     3963.957     2861.187     1092.507        3.369        0.396      239.887       33.127        0.019      338.552       11.279      867.163
10/12/2014  05:22:00     -158.365      226.465      -37.270       63.189       76.856       47.291     3992.851     5906.847     2236.448        4.494        0.607      276.344       36.234        0.017      338.525       11.231      867.168
10/12/2014  05:23:00     -137.463      115.003      -29.966       46.862       62.194       28.460     2196.052     3868.132      809.944        1.995        0.344      179.226       25.115        0.020      338.515       11.217      867.172
10/12/2014  05:24:00      -99.740      175.453      -25.199       47.030       66.698       41.660     2211.858     4448.640     1735.579        2.488        0.420      201.822       31.465        0.024      338.487       11.170      867.156
10/12/2014  05:25:00     -120.315       79.121      -13.748       66.515       47.879       38.291     4424.221     2292.411     1466.218        1.455        0.409      143.999       34.978        0.059      338.474       11.149      867.132
10/12/2014  05:26:00      -96.433      111.779      -20.366       60.585       77.222       35.615     3670.492     5963.220     1268.439        1.655        0.545      147.627       36.506        0.061      338.404       11.031      867.116
10/12/2014  05:27:00     -169.184      144.761      -36.810       77.500       63.578       39.016     6006.263     4042.225     1522.213        3.125        0.579      222.663       34.913        0.025      338.436       11.082      867.084
10/12/2014  05:28:00     -183.763      180.675      -37.909       75.782       71.372       46.563     5742.853     5093.913     2168.156        4.042        0.650      257.706       43.419        0.028      338.444       11.097      867.064
10/12/2014  05:29:00     -145.746      140.672      -22.186       66.232       68.553       46.936     4386.636     4699.461     2203.009        2.640        0.564      202.560       48.673        0.058      338.421       11.059      867.049
10/12/2014  05:30:00     -141.083      186.902      -32.308       72.405       89.577       47.114     5242.530     8023.969     2219.709        3.568        0.774      234.172       45.505        0.038      338.432       11.077      867.034
10/12/2014  05:31:00     -120.660      141.877      -21.545       70.862      105.009       48.331     5021.404    11026.896     2335.881        2.677        0.919      186.247       50.765        0.074      338.410       11.040      867.031
10/12/2014  05:32:00     -191.821      159.134      -38.448       76.947      110.415       53.737     5920.859    12191.392     2887.634        4.229        1.050      249.236       57.812        0.054      338.438       11.085      867.032
10/12/2014  05:33:00     -163.292      153.416      -33.833       66.862       88.227       41.152     4470.575     7784.021     1693.484        3.264        0.697      224.056       31.401        0.020      338.432       11.076      867.014
10/12/2014  05:34:00     -142.772       27.758       -6.479       62.971       59.090       32.506     3965.289     3491.603     1056.661        1.485        0.426      145.445       30.761        0.045      338.413       11.045      867.002
10/12/2014  05:35:00     -125.190       81.074      -27.570       42.723       65.735       34.719     1825.297     4321.090     1205.439        1.518        0.368      149.149       27.789        0.035      338.421       11.061      867.022
10/12/2014  05:36:00     -144.954       31.877      -15.677       82.041       43.096       28.282     6730.655     1857.300      799.864        1.583        0.469      148.418       31.182        0.044      338.406       11.034      867.051
10/12/2014  05:37:00     -144.374       -1.741      -20.626       40.690       39.010       27.836     1655.683     1521.755      774.867        1.261        0.198      144.384       19.010        0.017      338.402       11.029      867.088
10/12/2014  05:38:00      -47.537      -57.900       14.145       87.008       41.038       34.036     7570.356     1684.107     1158.471        0.811        0.521       74.914       43.687        0.340      338.389       11.008      867.123
10/12/2014  05:39:00      -49.436      -15.986        4.314       33.522       31.982       23.899     1123.724     1022.825      571.167        0.272        0.136       51.956       18.897        0.132      338.293       10.847      867.136
10/12/2014  05:40:00      -19.219       -6.654        0.563       37.660       37.123       28.228     1418.239     1378.131      796.838        0.200        0.180       20.338       24.560        1.458      338.119       10.552      867.147
10/12/2014  05:41:00     -121.180      -53.060      -11.628       66.121       56.909       36.334     4372.022     3238.600     1320.191        1.328        0.447      132.287       33.745        0.065      338.017       10.384      867.161
10/12/2014  05:42:00      -64.666      -33.391        9.804       60.805       33.140       22.515     3697.230     1098.280      506.934        0.535        0.265       72.778       24.281        0.111      338.016       10.381      867.138
10/12/2014  05:43:00      -63.230      -68.220       -0.060       89.072       65.463       42.061     7933.816     4285.385     1769.137        1.132        0.699       93.016       38.179        0.168      338.148       10.603      867.133
10/12/2014  05:44:00      -95.341        3.782       -4.142       70.353       52.195       27.091     4949.602     2724.304      733.924        0.876        0.420       95.416       26.647        0.078      338.151       10.608      867.162
10/12/2014  05:45:00      -40.813      -56.274        4.874       41.273       45.224       26.462     1703.443     2045.204      700.261        0.465        0.222       69.516       24.767        0.127      338.157       10.616      867.193
10/12/2014  05:46:00      -73.031        6.995       -5.132       32.346       45.241       18.874     1046.272     2046.752      356.243        0.443        0.172       73.365       18.798        0.066      338.062       10.459      867.194
10/12/2014  05:47:00      -80.943        2.185       -7.065       31.221       18.853       15.899      974.760      355.445      252.767        0.409        0.079       80.973       16.235        0.040      338.140       10.589      867.179
10/12/2014  05:48:00      -68.262        3.770        3.244       37.649       25.389       21.664     1417.410      644.580      469.329        0.361        0.127       68.366       11.726        0.029      338.031       10.407      867.163
10/12/2014  05:49:00      -66.412       21.946       -2.989       38.795       34.063       17.456     1505.066     1160.312      304.728        0.394        0.149       69.944       17.878        0.065      338.014       10.379      867.174
10/12/2014  05:50:00     -119.259      -30.340      -12.660       46.938       53.011       20.067     2203.199     2810.168      402.689        1.036        0.271      123.058       15.982        0.017      338.054       10.443      867.195
10/12/2014  05:51:00      -84.733       -6.471      -10.253       35.450       23.381       17.091     1256.702      546.661      292.107        0.471        0.105       84.979       11.483        0.018      337.987       10.334      867.251
10/12/2014  05:52:00      -34.096        7.908       -3.659       22.291       17.499       14.543      496.906      306.218      211.500        0.113        0.051       35.001        9.860        0.079      337.968       10.301      867.294
10/12/2014  05:53:00       26.014       35.849        8.160       26.461       28.852       25.689      700.192      832.421      659.937        0.211        0.110       44.293       20.575        0.216      337.905       10.194      867.353
10/12/2014  05:54:00       91.582      109.950       11.578       40.983       74.805       41.071     1679.605     5595.731     1686.803        1.478        0.448      143.095       45.134        0.099      337.998       10.352      867.385
10/12/2014  05:55:00      134.215       62.030       28.141       46.332       30.891       33.416     2146.621      954.280     1116.615        1.343        0.211      147.856       22.061        0.022      337.959       10.287      867.388
10/12/2014  05:56:00      109.544       47.828       26.859       87.482       52.727       36.600     7653.055     2780.156     1339.538        1.339        0.589      119.530       26.522        0.049      337.805       10.027      867.368
10/12/2014  05:57:00       62.890      -29.683       30.692       80.031       91.895       49.427     6404.902     8444.657     2443.042        1.153        0.865       69.543       52.451        0.569      337.898       10.183      867.342
10/12/2014  05:58:00        2.659      -10.683       35.269       17.068       43.425       25.180      291.313     1885.716      634.056        0.209        0.141       11.009       25.306        5.284      337.816       10.046      867.356
10/12/2014  05:59:00       46.012      -80.191      -15.772       35.874       38.927       22.798     1286.978     1515.341      519.746        0.606        0.166       92.453       20.157        0.048      337.932       10.240      867.377
10/12/2014  06:00:00       10.040      -39.317      -18.339       30.726       43.088       20.784      944.087     1856.572      431.967        0.261        0.162       40.579       21.182        0.272      338.047       10.433      867.379
10/12/2014  06:01:00      -32.533      -14.198        4.524       33.165       22.582       18.945     1099.917      509.928      358.907        0.162        0.098       35.496        8.869        0.062      337.955       10.278      867.384
10/12/2014  06:02:00      -44.205      -28.928        3.298       27.413       23.542       16.262      751.473      554.240      264.454        0.219        0.079       52.830       15.448        0.085      337.991       10.339      867.386
10/12/2014  06:03:00      -19.736      -52.220       -5.888       38.203       29.764       20.884     1459.456      885.923      436.159        0.297        0.139       55.825       16.737        0.090      337.990       10.338      867.390
10/12/2014  06:04:00      -19.419      -37.218        4.522       21.185       25.272       16.286      448.792      638.696      265.218        0.157        0.068       41.980       10.842        0.067      337.958       10.284      867.397
10/12/2014  06:05:00      -17.238      -19.447       12.802       17.200       41.490       19.907      295.849     1721.423      396.300        0.163        0.121       25.988        8.567        0.109      337.838       10.083      867.410
10/12/2014  06:06:00       -5.107       31.311        2.396       20.408       20.635       14.767      416.473      425.795      218.076        0.104        0.053       31.725        8.600        0.073      337.721        9.886      867.428
10/12/2014  06:07:00       26.930       28.104       10.169       29.090       11.229       16.843      846.248      126.087      283.682        0.144        0.063       38.924       10.893        0.078      337.681        9.821      867.451
10/12/2014  06:08:00       38.992       11.008        4.183       19.998       24.004       14.352      399.911      576.172      205.989        0.142        0.059       40.516       13.529        0.112      337.721        9.886      867.465
10/12/2014  06:09:00       11.409       -6.961        4.431       26.039       19.215       18.841      678.026      369.201      355.000        0.080        0.070       13.365       12.434        0.866      337.716        9.878      867.481
10/12/2014  06:10:00       10.477      -68.336       11.773       33.847       33.394       37.022     1145.626     1115.139     1370.614        0.427        0.182       69.135       23.098        0.112      337.787        9.997      867.491
10/12/2014  06:11:00        7.554      -81.009      -11.305       35.150       48.142       32.761     1235.554     2317.634     1073.298        0.569        0.231       81.361       30.967        0.145      337.917       10.216      867.500
10/12/2014  06:12:00      -13.025        4.052      -12.430       18.910       42.981       18.909      357.588     1847.350      357.533        0.145        0.128       13.641        9.663        0.502      337.952       10.274      867.513
10/12/2014  06:13:00      -34.411      -24.851        5.040       25.380       53.734       18.532      644.149     2887.381      343.420        0.285        0.194       42.446       12.094        0.081      337.920       10.220      867.515
10/12/2014  06:14:00      -28.082      -99.782        1.694       25.681       26.488       17.835      659.529      701.593      318.083        0.621        0.084      103.658        8.484        0.007      338.041       10.423      867.532
10/12/2014  06:15:00      -48.552      -31.534        4.557       29.268       27.677       16.823      856.623      766.027      283.012        0.264        0.095       57.894       17.419        0.091      338.010       10.371      867.548
10/12/2014  06:16:00       22.197      -25.856        3.285       28.562       18.191       22.182      815.771      330.917      492.021        0.141        0.082       34.077       11.281        0.110      337.933       10.240      867.562
10/12/2014  06:17:00       -2.149       16.527       11.809       23.046       19.323       15.712      531.103      373.392      246.855        0.078        0.058       16.666        9.099        0.298      337.873       10.140      867.598
10/12/2014  06:18:00       81.406       36.815       25.235       35.313       23.185       29.778     1246.992      537.556      886.728        0.564        0.134       89.344        9.501        0.011      337.727        9.896      867.629
10/12/2014  06:19:00       34.446       31.999        2.921       24.463       23.733       11.347      598.437      563.277      128.758        0.175        0.065       47.015        5.256        0.012      337.697        9.846      867.639
10/12/2014  06:20:00       -7.254        0.405       -4.007       13.056       10.260        7.270      170.459      105.265       52.855        0.020        0.016        7.266        3.919        0.291      337.616        9.711      867.631
10/12/2014  06:21:00        2.922       10.056       -6.897       12.938       15.715       10.275      167.399      246.948      105.578        0.034        0.026       10.472       11.516        1.209      337.705        9.860      867.619
10/12/2014  06:22:00      -30.733      -27.635       -0.510       42.604       20.658       13.162     1815.102      426.738      173.248        0.206        0.121       41.330       18.107        0.192      337.868       10.134      867.615
10/12/2014  06:23:00      -86.175      -18.128       -7.855       35.986       33.358       19.794     1295.009     1112.736      391.797        0.531        0.140       88.061       17.623        0.040      337.835       10.076      867.653
10/12/2014  06:24:00      -26.060      -16.290       12.924       44.977       32.462       22.282     2022.908     1053.792      496.487        0.234        0.179       30.733       19.010        0.383      337.659        9.781      867.696
10/12/2014  06:25:00      -18.371      -22.010        0.709       33.661       35.678       14.448     1133.036     1272.885      208.731        0.172        0.131       28.669       14.433        0.253      337.740        9.918      867.730
10/12/2014  06:26:00      -10.649       -9.046        3.632       29.912       55.523       40.706      894.757     3082.776     1656.984        0.292        0.282       13.973       29.550        4.473      337.731        9.904      867.772
10/12/2014  06:27:00       60.655       53.584       50.372       40.181       32.197       25.906     1614.511     1036.668      671.142        0.620        0.166       80.933       26.092        0.104      337.572        9.639      867.798
10/12/2014  06:28:00       39.256       47.334       34.814       54.669       27.846       35.124     2988.691      775.387     1233.727        0.499        0.250       61.494       34.195        0.309      337.522        9.554      867.804
10/12/2014  06:29:00       16.586       66.436       70.184       37.847       39.965       36.903     1432.406     1597.217     1361.825        0.700        0.220       68.475       35.666        0.271      337.551        9.600      867.791
10/12/2014  06:30:00       68.803       82.950       57.818       61.866       40.503       54.087     3827.405     1640.523     2925.378        1.167        0.420      107.771       48.076        0.199      337.499        9.513      867.793
10/12/2014  06:31:00      119.419       56.726       20.488       43.192       34.437       33.921     1865.553     1185.903     1150.626        1.105        0.210      132.207       15.627        0.014      337.492        9.503      867.820
10/12/2014  06:32:00       69.986       24.547        0.406       30.584       26.239       24.614      935.384      688.502      605.831        0.386        0.111       74.166        4.578        0.004      337.452        9.434      867.852
10/12/2014  06:33:00      126.700       39.808        1.645       67.997       45.914       39.278     4623.639     2108.129     1542.741        1.296        0.414      132.806       35.357        0.071      337.544        9.588      867.875
10/12/2014  06:34:00       87.514       11.175       25.364       71.839       66.213       46.175     5160.824     4384.179     2132.126        1.005        0.584       88.225       40.802        0.214      337.560        9.616      867.889
10/12/2014  06:35:00       77.225       89.929      -13.004       56.216       42.746       42.861     3160.242     1827.243     1837.052        1.052        0.341      118.537       24.093        0.041      337.852       10.105      867.904
10/12/2014  06:36:00      -62.849      128.941      -22.488       59.560       45.541       28.339     3547.359     2073.960      803.111        1.375        0.321      143.442       25.871        0.033      337.922       10.222      867.945
10/12/2014  06:37:00      -60.687      119.509      -23.632       72.936       44.512       26.550     5319.641     1981.318      704.913        1.326        0.400      134.035       29.210        0.047      337.880       10.154      867.996
10/12/2014  06:38:00      -43.266       75.088        0.743       70.122       46.898       36.706     4917.066     2199.419     1347.297        0.799        0.423       86.661       31.258        0.130      337.807       10.032      868.047
10/12/2014  06:39:00       18.614      110.794      -19.293       36.253       41.543       24.013     1314.255     1725.808      576.633        0.830        0.181      112.346       17.847        0.025      337.540        9.582      868.097
10/12/2014  06:40:00       33.476      117.515      -23.579       21.370       26.270       12.442      456.678      690.109      154.802        0.839        0.065      122.190       11.134        0.008      337.462        9.451      868.127
10/12/2014  06:41:00      -10.317      135.480      -22.356       11.874       28.732        8.943      140.996      825.529       79.985        1.000        0.052      135.872        8.062        0.004      337.488        9.495      868.150
10/12/2014  06:42:00      -20.960      136.048      -22.883       17.186       24.863       11.445      295.364      618.190      130.981        1.026        0.052      137.654       12.581        0.008      337.435        9.407      868.177
10/12/2014  06:43:00      -19.102      150.553      -20.339       18.391       22.967       11.292      338.212      527.500      127.519        1.222        0.050      151.760       10.219        0.005      337.402        9.351      868.202
10/12/2014  06:44:00      -55.003      109.518      -23.319       30.566       32.462       18.163      934.292     1053.784      329.888        0.894        0.116      122.554       13.861        0.013      337.498        9.512      868.212
10/12/2014  06:45:00      -73.155       78.274      -20.227       25.408       28.058       16.448      645.560      787.260      270.533        0.680        0.085      107.138       12.851        0.014      337.490        9.498      868.216
10/12/2014  06:46:00      -71.170       71.348      -19.973       25.118       39.919       17.794      630.934     1593.498      316.644        0.655        0.127      100.775       18.211        0.033      337.508        9.527      868.205
10/12/2014  06:47:00      -82.534       67.397      -23.220       24.147       25.988       16.735      583.101      675.393      280.072        0.672        0.077      106.556       12.270        0.013      337.501        9.516      868.190
10/12/2014  06:48:00      -86.041      108.046      -25.230       24.991       61.641       20.359      624.556     3799.621      414.474        1.228        0.242      138.120       22.344        0.026      337.495        9.505      868.188
10/12/2014  06:49:00      -86.065      178.104      -24.047       36.642       61.117       26.838     1342.608     3735.336      720.270        2.275        0.290      197.808       24.450        0.015      337.410        9.363      868.185
10/12/2014  06:50:00     -112.269       96.840      -20.941       34.174       40.174       27.091     1167.846     1613.912      733.902        1.297        0.176      148.265       27.584        0.035      337.432        9.401      868.195
10/12/2014  06:51:00     -104.480       62.987      -14.125       32.085       49.026       24.149     1029.450     2403.534      583.164        0.955        0.201      121.998       18.831        0.024      337.428        9.394      868.205
10/12/2014  06:52:00     -128.648       33.152       -8.883       51.479       51.423       38.570     2650.087     2644.315     1487.679        1.225        0.339      132.851       33.495        0.064      337.446        9.426      868.208
10/12/2014  06:53:00     -113.006       92.746      -27.033       41.885       79.446       29.415     1754.314     6311.729      865.262        1.552        0.447      146.192       32.010        0.048      337.378        9.310      868.210
10/12/2014  06:54:00     -151.755      120.486      -29.271       64.638       88.342       39.731     4178.123     7804.317     1578.526        2.598        0.678      193.769       46.380        0.057      337.437        9.409      868.199
10/12/2014  06:55:00     -115.925      143.617      -24.889       45.744       53.125       34.169     2092.490     2822.216     1167.516        2.038        0.304      184.566       25.097        0.018      337.425        9.389      868.187
10/12/2014  06:56:00     -144.586      115.757      -30.266       44.088       60.732       39.081     1943.782     3688.389     1527.314        2.119        0.358      185.216       36.816        0.040      337.477        9.475      868.188
10/12/2014  06:57:00     -104.294      103.628      -22.555       33.413       48.223       25.569     1116.442     2325.501      653.754        1.311        0.205      147.024       19.904        0.018      337.405        9.356      868.180
10/12/2014  06:58:00     -103.801       23.279      -18.414       27.859       26.787       18.881      776.135      717.533      356.502        0.675        0.093      106.380       12.382        0.014      337.458        9.445      868.155
10/12/2014  06:59:00      -74.654      -16.716      -10.236       33.933       38.151       16.887     1151.477     1455.476      285.175        0.442        0.145       76.503       15.239        0.040      337.471        9.465      868.134
10/12/2014  07:00:00      -82.149       23.325       -8.147       35.955       48.608       21.082     1292.761     2362.734      444.463        0.573        0.205       85.397       23.141        0.073      337.400        9.347      868.140
10/12/2014  07:01:00     -137.639       38.475      -14.475       43.483       34.271       20.786     1890.769     1174.528      432.056        1.207        0.175      142.915       14.047        0.010      337.372        9.300      868.164
10/12/2014  07:02:00      -76.101       25.453       -5.368       45.352       27.803       19.029     2056.760      772.991      362.106        0.483        0.160       80.244       16.665        0.043      337.377        9.309      868.171
10/12/2014  07:03:00      -80.516       64.618      -10.437       35.948       32.360       20.202     1292.235     1047.198      408.116        0.676        0.137      103.239       13.987        0.018      337.462        9.452      868.165
10/12/2014  07:04:00      -93.421       37.019       -4.459       47.017       27.904       21.729     2210.600      778.605      472.142        0.679        0.173      100.488       16.663        0.027      337.383        9.321      868.156
10/12/2014  07:05:00      -85.056       35.329       -4.993       30.274       50.561       22.846      916.498     2556.415      521.924        0.625        0.200       92.101       22.164        0.058      337.408        9.361      868.159
10/12/2014  07:06:00      -98.142        7.632      -13.016       32.751       38.137       24.537     1072.616     1454.447      602.064        0.649        0.156       98.439       21.744        0.049      337.372        9.301      868.155
10/12/2014  07:07:00      -94.290       13.458      -18.079       37.073       53.235       22.000     1374.429     2833.915      484.005        0.704        0.235       95.246        8.417        0.008      337.437        9.411      868.145
10/12/2014  07:08:00      -39.949       -4.998       -6.790       38.637       25.794       15.715     1492.823      665.337      246.954        0.204        0.120       40.260       18.382        0.208      337.387        9.326      868.158
10/12/2014  07:09:00      -69.016       33.350      -20.373       59.060       32.572       22.730     3488.067     1060.950      516.667        0.568        0.253       76.651       17.667        0.053      337.426        9.392      868.175
10/12/2014  07:10:00      -36.208       -7.128        5.859       41.111       37.139       18.665     1690.121     1379.282      348.393        0.241        0.171       36.903       21.210        0.330      337.410        9.365      868.158
10/12/2014  07:11:00      -14.844      -16.431       -0.693       35.425       21.094       19.715     1254.903      444.977      388.701        0.129        0.104       22.143       19.334        0.762      337.502        9.518      868.142
10/12/2014  07:12:00      -43.735        9.960      -32.874       26.362       22.668       14.761      694.939      513.821      217.883        0.226        0.071       44.855       13.690        0.093      337.426        9.389      868.163
10/12/2014  07:13:00       -9.808       29.964      -15.064       24.025       17.567       11.912      577.180      308.608      141.906        0.112        0.051       31.528        8.093        0.066      337.440        9.416      868.199
10/12/2014  07:14:00      -19.902       56.766      -12.421       31.782       24.566       20.097     1010.085      603.505      403.901        0.289        0.101       60.153       13.193        0.048      337.511        9.534      868.232
10/12/2014  07:15:00      -48.177       71.548      -18.796       40.472       62.075       24.114     1637.988     3853.268      581.466        0.693        0.304       86.257       15.079        0.031      337.495        9.507      868.262
10/12/2014  07:16:00      -52.039       59.515      -15.026       19.339       32.051       21.391      374.014     1027.277      457.583        0.417        0.093       79.058       15.453        0.038      337.516        9.542      868.281
10/12/2014  07:17:00      -53.851       28.758      -18.880       11.532       15.638       13.745      132.978      244.544      188.929        0.232        0.028       61.048        6.098        0.010      337.493        9.503      868.310
10/12/2014  07:18:00      -36.797        9.350       -5.151       10.535       10.612        6.185      110.979      112.614       38.253        0.086        0.013       37.966        2.967        0.006      337.521        9.550      868.326
10/12/2014  07:19:00        3.620        7.122        1.852       14.074       11.378        6.979      198.064      129.448       48.703        0.022        0.019        7.989        5.677        0.505      337.584        9.655      868.327
10/12/2014  07:20:00       -1.424      -16.991        2.288       22.801       32.754       14.281      519.898     1072.855      203.959        0.105        0.090       17.050       12.692        0.554      337.549        9.598      868.318
10/12/2014  07:21:00       26.354      -63.693      -17.637       19.526       22.074       20.962      381.255      487.271      439.401        0.318        0.065       68.930       12.900        0.035      337.599        9.683      868.320
10/12/2014  07:22:00       10.511      -63.056      -11.582       24.355       22.460       17.433      593.145      504.436      303.921        0.281        0.070       63.926        9.055        0.020      337.614        9.706      868.334
10/12/2014  07:23:00       17.316      -65.830       -1.129       30.899       35.659       25.415      954.737     1271.563      645.935        0.375        0.144       68.069       22.950        0.114      337.665        9.791      868.365
10/12/2014  07:24:00      -26.247      -62.999      -12.860       32.190       35.813       29.331     1036.213     1282.544      860.293        0.400        0.159       68.247       21.489        0.099      337.574        9.640      868.395
10/12/2014  07:25:00      -30.340      -12.561        6.228       23.363       17.125       16.363      545.846      293.258      267.743        0.111        0.055       32.838        8.820        0.072      337.703        9.858      868.425
10/12/2014  07:26:00       -5.003      -58.121       -1.084       28.272       44.264       23.982      799.303     1959.273      575.119        0.337        0.167       58.336       20.338        0.122      337.571        9.634      868.442
10/12/2014  07:27:00      -18.349      -29.324       10.374       39.267       39.253       31.561     1541.869     1540.782      996.066        0.269        0.204       34.591       10.913        0.100      337.505        9.524      868.446
10/12/2014  07:28:00      -56.650      -87.600       -7.132       59.296       67.097       36.956     3515.996     4502.004     1365.727        1.016        0.469      104.321       26.847        0.066      337.319        9.212      868.465
10/12/2014  07:29:00      -52.551      -86.931       -0.121       58.492       47.043       31.641     3421.332     2213.042     1001.172        0.848        0.332      101.580       31.222        0.094      337.196        9.007      868.478
10/12/2014  07:30:00      -81.712      -57.909        7.430       58.564       34.622       31.880     3429.706     1198.684     1016.331        0.786        0.282      100.152       22.147        0.049      337.134        8.903      868.462
10/12/2014  07:31:00     -159.113      -82.074        1.840       46.200       33.189       27.028     2134.471     1101.529      730.530        1.801        0.198      179.034       20.073        0.013      337.187        8.993      868.426
10/12/2014  07:32:00     -133.626      -91.931       -2.683       57.281       33.886       29.780     3281.146     1148.278      886.868        1.581        0.266      162.194       21.545        0.018      337.181        8.982      868.416
10/12/2014  07:33:00      -80.916      -63.300       -9.197       51.548       37.479       22.003     2657.245     1404.666      484.152        0.759        0.227      102.734       14.463        0.020      337.212        9.034      868.422
10/12/2014  07:34:00      -89.792      -27.819       -4.377       30.141       41.018       26.308      908.492     1682.443      692.120        0.607        0.164       94.003       16.723        0.032      337.227        9.060      868.437
10/12/2014  07:35:00     -103.577      -34.443       -8.672       31.368       18.030       15.004      983.981      325.079      225.133        0.676        0.077      109.154        9.984        0.008      337.275        9.139      868.449
10/12/2014  07:36:00      -77.384      -30.943       -4.372       32.036       27.391       20.137     1026.307      750.275      405.499        0.457        0.109       83.341       18.599        0.050      337.303        9.185      868.450
10/12/2014  07:37:00      -47.751       -7.723        6.306       33.023       28.652       20.982     1090.541      820.931      440.238        0.237        0.118       48.372       23.538        0.237      337.317        9.209      868.438
10/12/2014  07:38:00      -50.935      -12.378       11.516       61.136       34.592       26.361     3737.664     1196.608      694.912        0.425        0.281       52.418       29.232        0.311      337.311        9.200      868.436
10/12/2014  07:39:00     -101.091      -58.261        0.058       50.946       50.148       26.194     2595.481     2514.776      686.106        0.970        0.290      116.678       24.805        0.045      337.204        9.020      868.416
10/12/2014  07:40:00     -101.393      -77.164        6.465       78.456       51.570       35.883     6155.421     2659.494     1287.617        1.319        0.505      127.416       40.936        0.103      337.146        8.922      868.413
10/12/2014  07:41:00     -102.062      -76.310       -1.165       64.564       38.627       25.671     4168.548     1492.071      659.002        1.128        0.316      127.436       28.322        0.049      337.164        8.954      868.402
10/12/2014  07:42:00     -127.181      -68.404        1.953       55.943       41.066       24.456     3129.649     1686.423      598.077        1.314        0.271      144.410       19.355        0.018      337.090        8.827      868.410
10/12/2014  07:43:00      -77.773      -43.000        3.113       55.854       41.111       27.312     3119.702     1690.143      745.922        0.673        0.278       88.868       20.795        0.055      337.213        9.034      868.415
10/12/2014  07:44:00     -130.140      -35.975       -4.129       56.044       44.737       26.249     3140.937     2001.417      689.001        1.204        0.292      135.020       25.237        0.035      337.027        8.724      868.441
10/12/2014  07:45:00     -152.670      -21.174        2.007       64.618       34.017       29.077     4175.496     1157.188      845.448        1.497        0.309      154.131       31.951        0.043      337.021        8.713      868.458
10/12/2014  07:46:00     -143.250      -41.107        4.516       60.945       44.555       27.965     3714.346     1985.186      782.066        1.436        0.324      149.032       31.208        0.044      337.034        8.734      868.479
10/12/2014  07:47:00     -129.659      -69.246       -4.591       38.374       45.342       22.353     1472.559     2055.896      499.657        1.283        0.201      146.991       20.143        0.019      337.078        8.810      868.499
10/12/2014  07:48:00     -116.077      -56.828       -2.057       57.109       49.204       28.832     3261.417     2421.035      831.279        1.161        0.326      129.241       31.337        0.059      337.110        8.863      868.528
10/12/2014  07:49:00     -110.978      -31.135        0.692       51.575       37.209       25.505     2659.952     1384.490      650.481        0.899        0.235      115.263       28.404        0.061      337.057        8.772      868.559
10/12/2014  07:50:00     -103.953      -10.080       -5.438       38.127       23.632       22.797     1453.703      558.461      519.690        0.673        0.127      104.441       22.959        0.048      337.095        8.838      868.591
10/12/2014  07:51:00      -97.359      -28.695       -9.709       28.143       17.099       12.961      792.025      292.362      167.978        0.582        0.063      101.499        9.953        0.010      337.141        8.912      868.612
10/12/2014  07:52:00      -47.479      -22.537       -2.433       30.679       18.715       12.379      941.220      350.237      153.251        0.211        0.072       52.556        7.596        0.021      337.200        9.014      868.621
10/12/2014  07:53:00     -105.439      -35.748       -4.777       38.373       33.033       23.256     1472.524     1091.175      540.849        0.776        0.155      111.334       21.873        0.039      337.180        8.981      868.615
10/12/2014  07:54:00      -95.367        3.785       -8.891       41.962       20.176       12.411     1760.842      407.052      154.029        0.575        0.116       95.442       16.212        0.029      337.170        8.963      868.609
10/12/2014  07:55:00     -113.068      -15.929       -7.438       34.318       23.785       17.932     1177.752      565.749      321.552        0.758        0.103      114.185       18.717        0.027      337.175        8.971      868.588
10/12/2014  07:56:00     -108.231      -15.391       -5.647       38.121       26.130       21.788     1453.217      682.781      474.737        0.730        0.131      109.320       22.257        0.041      337.276        9.141      868.608
10/12/2014  07:57:00     -131.277       18.935      -13.823       25.787       21.520       17.079      664.966      463.116      291.706        0.960        0.071      132.636       12.747        0.009      337.239        9.078      868.635
10/12/2014  07:58:00     -117.781       15.235      -10.680       17.134       19.591       14.204      293.572      383.823      201.753        0.755        0.044      118.762       10.516        0.008      337.271        9.133      868.651
10/12/2014  07:59:00      -91.763        8.841      -12.511       34.006       14.692       13.528     1156.417      215.857      183.017        0.510        0.078       92.188       16.008        0.030      337.247        9.093      868.677
10/12/2014  08:00:00      -28.245       10.909        0.311       20.804       22.865       14.618      432.791      522.814      213.692        0.104        0.058       30.279       10.817        0.128      337.354        9.272      868.706
10/12/2014  08:01:00      -14.925       51.511       -0.993       26.818       36.668       15.729      719.189     1344.551      247.402        0.259        0.116       53.630       17.518        0.107      337.521        9.550      868.740
10/12/2014  08:02:00       -7.955      111.444      -10.516       16.975       18.144       13.960      288.140      329.212      194.880        0.670        0.041      111.728       11.873        0.011      337.467        9.460      868.747
10/12/2014  08:03:00       -6.351      125.206      -14.091       14.738       14.197       11.097      217.199      201.562      123.147        0.823        0.027      125.367        5.630        0.002      337.477        9.479      868.749
10/12/2014  08:04:00      -19.327      122.009      -13.465        9.005       11.488        6.402       81.095      131.965       40.985        0.785        0.013      123.531        4.979        0.002      337.508        9.530      868.747
10/12/2014  08:05:00      -32.613       79.792       -6.322       24.292       28.686       15.014      590.088      822.914      225.417        0.455        0.082       86.200        8.150        0.009      337.621        9.718      868.739
10/12/2014  08:06:00      -47.026       64.511      -13.530       25.597       18.761       15.112      655.197      351.963      228.371        0.390        0.062       79.832       14.037        0.031      337.594        9.674      868.738
10/12/2014  08:07:00      -53.989       77.302      -11.372       35.180       28.503       21.439     1237.615      812.422      459.634        0.576        0.125       94.289       18.665        0.039      337.781        9.988      868.743
10/12/2014  08:08:00      -24.146       86.864      -12.157       26.473       28.903       20.236      700.820      835.389      409.513        0.511        0.097       90.157        5.385        0.004      337.906       10.196      868.763
10/12/2014  08:09:00      -21.785       69.965       -0.912       36.795       35.821       25.350     1353.875     1283.115      642.598        0.432        0.164       73.278       26.148        0.127      338.036       10.414      868.798
10/12/2014  08:10:00       -4.563       71.227        9.094       21.292       37.708       22.710      453.354     1421.918      515.741        0.378        0.120       71.373       15.859        0.049      338.054       10.446      868.810
10/12/2014  08:11:00        9.219       73.888       -6.874       21.583       30.132       18.541      465.819      907.920      343.776        0.365        0.086       74.460       17.243        0.054      338.034       10.412      868.817
10/12/2014  08:12:00       23.495       44.651        1.444       23.728       24.916       24.399      563.024      620.811      595.287        0.216        0.089       50.455       17.094        0.115      338.070       10.473      868.830
10/12/2014  08:13:00       75.718       42.577        3.986       28.606       22.607       22.129      818.309      511.074      489.709        0.469        0.091       86.867       12.451        0.021      338.010       10.372      868.828
10/12/2014  08:14:00       35.081        2.002       17.423       23.499       19.263       23.514      552.195      371.065      552.897        0.151        0.074       35.138        9.211        0.069      338.174       10.645      868.831
10/12/2014  08:15:00        2.711        3.234       34.645       19.198       40.904       24.348      368.579     1673.154      592.804        0.193        0.132        4.220       28.585       45.886      338.297       10.853      868.820
10/12/2014  08:16:00       18.554      -60.805       -2.683       27.409       31.974       22.704      751.275     1022.325      515.466        0.317        0.114       63.573       19.915        0.098      338.294       10.847      868.813
10/12/2014  08:17:00       12.627      -43.592       11.743       24.485       21.087       18.910      599.522      444.642      357.573        0.180        0.070       45.384       14.428        0.101      338.386       11.002      868.812
10/12/2014  08:18:00       -6.644      -20.030       17.613       20.325       23.699       12.695      413.096      561.651      161.168        0.095        0.057       21.103       12.205        0.335      338.440       11.092      868.816
10/12/2014  08:19:00       55.245      -61.149        2.947       40.418       39.327       32.470     1633.609     1546.604     1054.293        0.552        0.212       82.408       27.623        0.112      338.325       10.899      868.829
10/12/2014  08:20:00       30.970      -56.210       15.923       43.275       50.237       28.111     1872.684     2523.796      790.251        0.478        0.259       64.177       21.341        0.111      338.271       10.810      868.832
10/12/2014  08:21:00       -2.446      -67.284       11.911       28.743       33.346       27.279      826.148     1111.986      744.151        0.368        0.134       67.329       18.231        0.073      338.317       10.886      868.831
10/12/2014  08:22:00       46.466      -77.159        2.273       45.408       61.066       32.603     2061.916     3729.108     1062.987        0.748        0.343       90.070       35.788        0.158      338.282       10.829      868.828
10/12/2014  08:23:00       15.767      -33.628       33.644       30.068       40.256       27.952      904.071     1620.520      781.332        0.291        0.165       37.141       24.302        0.428      338.422       11.064      868.825
10/12/2014  08:24:00       -7.849       -2.963        8.393       28.416       41.079       24.694      807.460     1687.488      609.771        0.162        0.155        8.389       20.046        5.709      338.430       11.076      868.839
10/12/2014  08:25:00      -25.853       19.530       16.426       16.272       20.447       20.114      264.785      418.085      404.576        0.120        0.054       32.400        9.835        0.092      338.367       10.972      868.846
10/12/2014  08:26:00      -26.640       24.998        5.340       17.268       15.777       17.501      298.170      248.902      306.270        0.111        0.043       36.532       13.517        0.137      338.332       10.911      868.853
10/12/2014  08:27:00      -41.263      -23.989       -9.898       22.501       27.807       12.935      506.275      773.218      167.323        0.191        0.072       47.729        8.618        0.033      338.033       10.409      868.858
10/12/2014  08:28:00       -7.082      -16.759       27.159       21.153       39.228       22.020      447.443     1538.844      484.892        0.177        0.124       18.194       18.380        1.021      338.471       11.144      868.853
10/12/2014  08:29:00      -25.855      -22.648       -7.030       12.451       10.801       12.620      155.019      116.653      159.258        0.083        0.022       34.372        4.642        0.018      338.225       10.731      868.841
10/12/2014  08:30:00      -12.105        6.387       11.919       15.183       25.778       26.465      230.530      664.513      700.374        0.096        0.080       13.687       21.272        2.416      338.529       11.244      868.845
10/12/2014  08:31:00      -32.377        0.033       20.882       21.998       33.367       27.443      483.921     1113.363      753.110        0.192        0.118       32.377       27.999        0.748      338.491       11.178      868.857
10/12/2014  08:32:00       -9.913      -13.206       14.816       25.113       40.245       19.498      630.653     1619.686      380.164        0.156        0.132       16.513       21.743        1.734      338.543       11.267      868.876
10/12/2014  08:33:00      -33.723      -72.522       -4.188       15.086       20.446       10.081      227.585      418.036      101.626        0.358        0.037       79.980        7.448        0.009      338.050       10.439      868.887
10/12/2014  08:34:00      -26.648      -48.742       -2.764       18.876       24.513       12.359      356.305      600.873      152.741        0.210        0.055       55.551        9.283        0.028      338.191       10.675      868.887
10/12/2014  08:35:00      -25.863      -33.444        4.753       21.084       18.720       16.184      444.551      350.450      261.914        0.143        0.053       42.277        7.764        0.034      338.452       11.113      868.882
10/12/2014  08:36:00      -17.030      -35.717       -6.483       34.205       38.436       16.057     1170.001     1477.305      257.819        0.226        0.145       39.569        6.923        0.031      338.360       10.959      868.883
10/12/2014  08:37:00      -11.359        2.700        5.536       41.624       14.256       14.484     1732.528      203.221      209.778        0.116        0.107       11.675        7.777        0.444      338.524       11.234      868.894
10/12/2014  08:38:00       16.043       33.858       11.639       19.973       19.907       19.984      398.928      396.278      399.356        0.137        0.060       37.466       18.577        0.246      338.805       11.706      868.901
10/12/2014  08:39:00        7.826       30.876       18.871       18.295       15.962       15.810      334.699      254.783      249.947        0.110        0.042       31.852       10.854        0.116      338.968       11.981      868.909
10/12/2014  08:40:00       67.399       61.475       12.508       20.791       14.621       20.401      432.253      213.786      416.192        0.477        0.053       91.224        7.688        0.007      338.624       11.401      868.925
10/12/2014  08:41:00       10.601       14.669       19.597       27.653       27.071       14.147      764.693      732.814      200.135        0.120        0.085       18.099        7.814        0.186      339.058       12.132      868.926
10/12/2014  08:42:00       43.712       34.430       44.616       59.583       38.192       33.412     3550.130     1458.603     1116.373        0.560        0.306       55.643       32.482        0.341      338.698       11.526      868.902
10/12/2014  08:43:00       55.092       51.218       25.417       39.019       26.938       33.865     1522.449      725.654     1146.856        0.485        0.170       75.222       27.017        0.129      338.467       11.138      868.881
10/12/2014  08:44:00       73.396       64.281       51.368       40.054       32.009       37.303     1604.339     1024.546     1391.477        0.809        0.201       97.566       26.203        0.072      338.617       11.391      868.868
10/12/2014  08:45:00       96.454       42.638       22.835       34.681       25.104       36.304     1202.804      630.230     1317.968        0.740        0.158      105.458       26.014        0.061      338.378       10.989      868.870
10/12/2014  08:46:00       59.497       54.329       24.797       45.239       41.262       44.304     2046.611     1702.562     1962.849        0.641        0.286       80.570       36.787        0.208      338.564       11.300      868.885
10/12/2014  08:47:00       48.730       69.994       66.188       60.924       36.713       24.339     3711.697     1347.848      592.393        0.865        0.283       85.286       10.428        0.015      338.823       11.737      868.902
10/12/2014  08:48:00       90.540       96.724       97.376       74.989       40.500       28.855     5623.404     1640.217      832.630        1.756        0.405      132.488       29.174        0.048      338.662       11.466      868.920
10/12/2014  08:49:00       37.365       58.333       86.353       53.212       53.332       29.697     2831.467     2844.354      881.939        0.941        0.328       69.274       26.712        0.149      338.810       11.715      868.948
10/12/2014  08:50:00       55.293       26.885       68.340       56.396       58.629       50.705     3180.514     3437.363     2571.032        0.882        0.459       61.482       42.301        0.473      338.838       11.762      868.970
10/12/2014  08:51:00       94.460       85.542       58.702       43.242       37.657       39.531     1869.881     1418.024     1562.707        1.227        0.243      127.437       27.953        0.048      338.532       11.247      868.980
10/12/2014  08:52:00      151.072       98.850       45.280       59.873       40.139       33.572     3584.729     1611.101     1127.047        2.048        0.316      180.538       19.392        0.012      338.580       11.327      868.989
10/12/2014  08:53:00       48.249       90.542       86.369       65.882       39.750       42.004     4340.462     1580.096     1764.369        1.283        0.384      102.596       37.067        0.131      338.762       11.634      868.977
10/12/2014  08:54:00      125.996       83.605       36.816       35.279       36.339       41.137     1244.600     1320.497     1692.277        1.424        0.213      151.211       28.614        0.036      338.433       11.081      868.959
10/12/2014  08:55:00       84.317       55.842       17.881       35.540       26.794       36.343     1263.073      717.932     1320.793        0.692        0.165      101.132       13.901        0.019      338.626       11.405      868.946
10/12/2014  08:56:00       82.271       54.161       25.562       32.950       27.298       30.916     1085.681      745.176      955.804        0.657        0.139       98.499       17.419        0.031      338.870       11.816      868.926
10/12/2014  08:57:00       16.419       38.080       42.177       53.744       51.360       31.414     2888.468     2637.894      986.845        0.500        0.326       41.469       25.301        0.372      338.997       12.028      868.901
10/12/2014  08:58:00       43.888        9.738       53.247       37.722       31.565       30.379     1422.964      996.367      922.903        0.410        0.167       44.955       22.558        0.252      338.830       11.748      868.888
10/12/2014  08:59:00       20.645      -13.371       32.474       25.463       32.481       29.166      648.349     1055.011      850.648        0.211        0.128       24.597       19.914        0.655      339.033       12.092      868.879
10/12/2014  09:00:00        0.058      -11.622       40.078       24.715       40.892       20.424      610.815     1672.167      417.123        0.222        0.135       11.622       14.845        1.632      339.114       12.226      868.847
10/12/2014  09:01:00       39.134       37.092       61.757       63.362       84.213       46.799     4014.711     7091.911     2190.188        1.001        0.665       53.920       50.578        0.880      338.899       11.864      868.819
10/12/2014  09:02:00       94.174       86.803       52.545       23.111       16.679       26.619      534.105      278.205      708.558        1.034        0.076      128.076        9.240        0.005      338.498       11.189      868.823
10/12/2014  09:03:00       60.844       61.004       15.396       20.608       19.126       17.425      424.686      365.802      303.623        0.438        0.055       86.160        7.907        0.008      338.564       11.302      868.835
10/12/2014  09:04:00       27.265       16.626       48.340       29.384       25.648       28.607      863.412      657.829      818.354        0.285        0.117       31.934       14.930        0.219      339.152       12.290      868.857
10/12/2014  09:05:00       45.455       61.663       58.807       47.145       32.333       22.931     2222.690     1045.422      525.842        0.656        0.190       76.606       17.116        0.050      338.924       11.905      868.875
10/12/2014  09:06:00      122.491       62.372       43.768       68.996       42.013       53.675     4760.490     1765.120     2880.988        1.511        0.470      137.456       44.724        0.106      338.766       11.641      868.898
10/12/2014  09:07:00      126.281       80.806       13.559       39.443       42.491       35.547     1555.786     1805.443     1263.616        1.364        0.231      149.922       22.376        0.022      338.638       11.425      868.914
10/12/2014  09:08:00      134.688       62.682       20.151       63.267       42.461       42.414     4002.775     1802.919     1798.923        1.504        0.380      148.559       28.807        0.038      338.998       12.030      868.923
10/12/2014  09:09:00       77.147       75.839       39.108       44.761       42.505       42.778     2003.535     1806.681     1829.986        0.944        0.282      108.182       29.336        0.074      338.720       11.564      868.929
10/12/2014  09:10:00       18.992       29.169       83.172       43.703       55.164       29.081     1909.978     3043.063      845.687        0.696        0.290       34.807       25.269        0.527      339.056       12.129      868.918
10/12/2014  09:11:00       67.366       58.420       46.890       43.723       36.114       38.096     1911.673     1304.200     1451.281        0.741        0.233       89.168       22.659        0.065      338.814       11.720      868.931
10/12/2014  09:12:00      123.138       88.871       29.444       34.924       27.157       31.487     1219.697      737.500      991.402        1.344        0.147      151.859       10.553        0.005      338.585       11.336      868.945
10/12/2014  09:13:00       65.729       38.624       48.908       88.038       49.724       38.479     7750.728     2472.524     1480.622        0.995        0.585       76.237       41.585        0.298      338.864       11.805      868.949
10/12/2014  09:14:00       57.326       27.842       39.364       82.285       55.410       50.591     6770.844     3070.319     2559.485        0.900        0.620       63.729       39.716        0.388      339.093       12.190      868.956
10/12/2014  09:15:00      -23.047       43.235      -11.574       34.187       46.369       22.380     1168.723     2150.105      500.851        0.318        0.191       48.994       25.556        0.272      338.637       11.424      868.963
10/12/2014  09:16:00        5.398        3.023       21.198       17.296       13.822       15.013      299.139      191.061      225.392        0.060        0.036        6.187       11.065        3.199      339.316       12.568      868.952
10/12/2014  09:17:00      -41.013       23.934       -8.101       35.273       25.756       17.249     1244.169      663.379      297.532        0.226        0.110       47.486       16.634        0.123      338.894       11.857      868.935
10/12/2014  09:18:00      -85.403       22.242      -16.311       22.081       29.921       14.906      487.588      895.237      222.184        0.483        0.080       88.252        6.525        0.005      338.617       11.391      868.922
10/12/2014  09:19:00      -69.954       52.035      -24.546       23.891       25.390       17.533      570.767      644.631      307.415        0.486        0.076       87.185       10.467        0.014      338.714       11.553      868.920
10/12/2014  09:20:00      -20.545       30.162        2.386       25.303       42.976       22.679      640.256     1846.937      514.319        0.217        0.150       36.495       18.111        0.246      339.054       12.124      868.913
10/12/2014  09:21:00      -51.421      -41.072        2.726       70.773       35.157       22.061     5008.820     1236.012      486.699        0.553        0.337       65.810       16.624        0.064      338.892       11.853      868.900
10/12/2014  09:22:00      -45.475       70.474      -26.238       58.761       82.495       30.326     3452.824     6805.367      919.643        0.945        0.559       83.872       40.733        0.236      338.876       11.826      868.901
10/12/2014  09:23:00       13.503       69.828      -18.329       32.108       37.139       34.803     1030.911     1379.289     1211.232        0.451        0.181       71.122       23.527        0.109      339.004       12.040      868.903
10/12/2014  09:24:00        1.364       47.492        8.033       19.168       46.265       24.045      367.431     2140.422      578.146        0.270        0.154       47.511       22.982        0.234      339.373       12.663      868.899
10/12/2014  09:25:00      -39.369       61.539       -0.235       36.485       46.711       26.433     1331.174     2181.906      698.711        0.477        0.211       73.055       20.833        0.081      339.247       12.451      868.895
10/12/2014  09:26:00      -27.323      102.288       -3.171       28.050       66.938       26.619      786.803     4480.761      708.571        0.860        0.299      105.875       34.073        0.104      339.131       12.254      868.894
10/12/2014  09:27:00      -39.004      120.268       -9.241       32.747       46.237       33.218     1072.351     2137.849     1103.462        1.019        0.216      126.435       24.204        0.037      339.115       12.227      868.879
10/12/2014  09:28:00      -12.384       31.817       18.719       19.157       58.050       22.596      366.989     3369.840      510.590        0.288        0.212       34.142       29.023        0.723      339.590       13.027      868.874
10/12/2014  09:29:00      -73.892        3.080        1.697       31.809       19.515       20.230     1011.796      380.843      409.246        0.364        0.090       73.956       14.412        0.038      339.060       12.135      868.860
10/12/2014  09:30:00      -53.724       19.236       -4.351       23.488       29.443       21.591      551.685      866.907      466.165        0.258        0.094       57.064        7.778        0.019      339.142       12.274      868.860
10/12/2014  09:31:00       53.403       33.122       20.053       51.481       38.911       33.088     2650.251     1514.059     1094.809        0.480        0.263       62.841       20.066        0.102      339.717       13.244      868.875
10/12/2014  09:32:00       37.467       71.376       -2.644       48.090       48.220       26.230     2312.657     2325.208      688.030        0.591        0.266       80.612       25.128        0.097      339.401       12.709      868.892
10/12/2014  09:33:00       19.691        1.675       25.408       35.617       27.621       19.151     1268.593      762.925      366.779        0.172        0.120       19.763       20.200        1.045      339.767       13.324      868.889
10/12/2014  09:34:00      -41.269      -16.488       -4.196       29.302       18.312       22.677      858.578      335.327      514.231        0.185        0.085       44.441       14.528        0.107      339.242       12.441      868.865
10/12/2014  09:35:00      -37.187       12.176        8.636       37.299       20.604       23.730     1391.233      424.524      563.115        0.199        0.119       39.130       20.751        0.281      339.714       13.237      868.838
10/12/2014  09:36:00      -73.506       33.403      -11.629       28.497       62.399       29.146      812.056     3893.582      849.474        0.610        0.278       80.740       34.402        0.182      339.309       12.553      868.819
10/12/2014  09:37:00      -57.266       52.716       15.017       34.251       41.667       30.273     1173.104     1736.179      916.467        0.505        0.191       77.835       12.498        0.026      339.593       13.034      868.793
10/12/2014  09:38:00      -49.385       21.639       16.948       44.670       34.435       24.893     1995.441     1185.766      619.684        0.350        0.190       53.917       27.492        0.260      339.784       13.354      868.758
10/12/2014  09:39:00       18.679       56.210       17.663       31.822       42.996       30.360     1012.661     1848.618      921.743        0.380        0.189       59.232       27.291        0.212      339.935       13.611      868.736
10/12/2014  09:40:00       11.676       38.745       35.413       54.571       64.854       35.655     2977.956     4206.059     1271.255        0.567        0.423       40.466       28.283        0.488      339.900       13.551      868.736
10/12/2014  09:41:00      -76.316      -38.329       -1.309       30.197       42.964       28.800      911.880     1845.877      829.461        0.544        0.179       85.400       18.089        0.045      339.274       12.496      868.764
10/12/2014  09:42:00      -44.621      -44.536       -0.483       33.137       27.306       20.856     1098.065      745.631      434.992        0.313        0.114       63.044       19.078        0.092      339.228       12.417      868.806
10/12/2014  09:43:00       -0.303      -23.529        6.696       43.486       30.718       24.191     1891.071      943.596      585.215        0.201        0.171       23.531       22.725        0.933      339.588       13.025      868.821
10/12/2014  09:44:00       43.591       52.424       78.855       68.435       78.443       49.800     4683.284     6153.306     2480.018        1.209        0.666       68.180       50.655        0.552      339.504       12.882      868.794
10/12/2014  09:45:00      114.865      128.093       73.435       68.988       54.558       62.299     4759.390     2976.538     3881.221        2.330        0.581      172.052       52.890        0.095      339.127       12.245      868.761
10/12/2014  09:46:00      117.001       59.330       57.785       64.440       47.564       47.876     4152.468     2262.349     2292.103        1.463        0.435      131.184       34.948        0.071      339.354       12.628      868.719
10/12/2014  09:47:00       55.135       49.670       70.989       51.658       57.042       32.564     2668.598     3253.835     1060.401        0.876        0.349       74.209       32.619        0.193      339.241       12.441      868.687
10/12/2014  09:48:00       38.207        1.976       28.958       53.180       56.519       26.153     2828.149     3194.415      683.978        0.450        0.335       38.258       20.758        0.294      339.817       13.409      868.647
10/12/2014  09:49:00      113.670       69.851       56.126       66.713       71.049       56.094     4450.615     5048.000     3146.505        1.680        0.632      133.417       42.853        0.103      339.762       13.315      868.643
10/12/2014  09:50:00      125.648      114.947       73.657       72.992       65.203       67.377     5327.818     4251.390     4539.660        2.427        0.706      170.294       58.284        0.117      339.245       12.445      868.650
10/12/2014  09:51:00       -1.217       74.200       80.459       37.444       48.387       39.532     1402.048     2341.278     1562.760        0.864        0.265       74.210       28.448        0.147      339.899       13.549      868.683
10/12/2014  09:52:00       17.421       84.952       96.042       51.245       76.090       54.488     2626.030     5789.722     2968.892        1.406        0.569       86.720       50.234        0.336      340.076       13.848      868.718
10/12/2014  09:53:00       96.306      111.775      111.134       98.969       81.363       58.613     9794.862     6620.000     3435.467        2.698        0.993      147.541       56.285        0.146      339.412       12.726      868.763
10/12/2014  09:54:00      104.381      128.094       89.965      103.209       70.275       72.435    10652.169     4938.628     5246.772        2.811        1.042      165.238       61.723        0.140      339.502       12.878      868.796
10/12/2014  09:55:00       98.138      150.591      138.909       87.922      101.117       68.010     7730.232    10224.571     4625.306        3.709        1.129      179.746       67.134        0.139      339.354       12.627      868.801
10/12/2014  09:56:00       23.545      -23.977       35.203       31.595       39.186       34.921      998.229     1535.513     1219.456        0.306        0.188       33.605       25.786        0.589      339.910       13.568      868.803
10/12/2014  09:57:00      155.028       69.879       40.527      126.761       77.975       54.465    16068.338     6080.079     2966.447        2.783        1.256      170.050       37.077        0.048      339.787       13.357      868.764
10/12/2014  09:58:00       93.898       91.169       64.654       85.754       62.937       68.679     7353.762     3961.071     4716.796        1.867        0.802      130.876       60.109        0.211      339.728       13.259      868.724
10/12/2014  09:59:00       61.473       97.228       90.562       78.780       69.149       48.416     6206.286     4781.572     2344.133        1.738        0.667      115.031       22.110        0.037      339.926       13.593      868.705
10/12/2014  10:00:00      130.654      135.088      115.177      104.159       77.160       60.901    10849.146     5953.659     3708.907        3.454        1.026      187.934       55.571        0.087      339.555       12.967      868.702
10/12/2014  10:01:00      132.654      141.804      109.062       81.878       58.036       62.823     6703.986     3368.124     3946.720        3.181        0.701      194.179       50.648        0.068      339.239       12.433      868.729
10/12/2014  10:02:00       42.823       29.880       59.571       56.510       81.656       50.006     3193.394     6667.707     2500.622        0.932        0.618       52.217       34.685        0.441      339.679       13.178      868.727
10/12/2014  10:03:00      114.086      100.753       76.214       78.284       86.016       56.767     6128.461     7398.685     3222.515        2.286        0.837      152.206       52.149        0.117      339.363       12.643      868.724
10/12/2014  10:04:00       66.030       46.821       34.654       62.991       53.848       44.610     3967.824     2899.628     1990.070        0.830        0.443       80.945       31.248        0.149      339.649       13.128      868.704
10/12/2014  10:05:00       70.212       70.062       46.422       56.642       46.957       26.276     3208.330     2204.970      690.406        0.905        0.305       99.189       18.253        0.034      339.772       13.335      868.703
10/12/2014  10:06:00       72.579       54.330       37.581       51.003       50.938       41.151     2601.279     2594.668     1693.424        0.826        0.344       90.661       22.037        0.059      339.686       13.190      868.705
10/12/2014  10:07:00       28.258       75.209       68.156       43.449       53.548       30.949     1887.836     2867.356      957.847        0.841        0.286       80.343       19.920        0.061      340.097       13.883      868.728
10/12/2014  10:08:00      106.997       73.738       28.787       52.641       35.340       40.345     2771.115     1248.922     1627.688        1.168        0.282      129.945       32.844        0.064      339.809       13.398      868.745
10/12/2014  10:09:00       78.921       -2.961       46.033       80.595       92.849       59.812     6495.568     8620.907     3577.520        1.352        0.935       78.976       61.064        0.598      340.069       13.836      868.753
10/12/2014  10:10:00       71.916      -46.274       28.062       63.285       94.131       53.974     4004.966     8860.729     2913.225        1.194        0.789       85.518       39.635        0.215      339.916       13.577      868.752
10/12/2014  10:11:00       26.357       25.420       62.697       40.326       70.492       37.311     1626.152     4969.137     1392.094        0.663        0.399       36.618       33.184        0.821      340.392       14.381      868.760
10/12/2014  10:12:00       53.884       17.866       25.327       72.468       77.947       45.684     5251.598     6075.684     2087.006        0.864        0.671       56.768       28.696        0.256      340.024       13.757      868.756
10/12/2014  10:13:00       73.072     -133.643       -9.862       38.880       39.081       31.275     1511.646     1527.286      978.114        1.366        0.201      152.315       26.406        0.030      339.316       12.567      868.761
10/12/2014  10:14:00       48.591        2.822       45.070       44.262       75.440       48.086     1959.136     5691.130     2312.264        0.718        0.498       48.673       47.204        0.941      339.918       13.581      868.770
10/12/2014  10:15:00       31.529       20.257       26.327       59.928       68.332       46.037     3591.326     4669.282     2119.395        0.624        0.519       37.475       41.372        1.219      339.737       13.275      868.762
10/12/2014  10:16:00       48.048      -72.006        3.742       56.188       51.310       40.252     3157.073     2632.750     1620.235        0.746        0.371       86.564       29.455        0.116      339.802       13.386      868.768
10/12/2014  10:17:00       39.894       38.696       45.005       56.419       64.266       41.254     3183.066     4130.135     1701.872        0.706        0.451       55.578       34.545        0.386      339.992       13.706      868.761
10/12/2014  10:18:00       44.668       74.441       82.883       51.188       47.054       26.931     2620.234     2214.118      725.264        0.998        0.278       86.814       18.652        0.046      339.692       13.199      868.746
10/12/2014  10:19:00        0.431       21.192       47.398       26.348       61.208       40.713      694.219     3746.444     1657.508        0.440        0.305       21.196       42.687        4.056      339.706       13.223      868.705
10/12/2014  10:20:00        3.809      -91.714      -20.010       29.099       51.067       21.277      846.732     2607.845      452.730        0.637        0.195       91.793       17.523        0.036      339.890       13.533      868.693
10/12/2014  10:21:00      -10.160      -85.412      -18.469       58.736       53.215       19.963     3449.863     2831.881      398.517        0.721        0.334       86.014       25.199        0.086      339.802       13.385      868.691
10/12/2014  10:22:00       33.473      -43.596       36.591       62.196      120.492       55.877     3868.377    14518.373     3122.192        1.293        1.075       54.964       66.023        1.443      340.107       13.898      868.667
10/12/2014  10:23:00       29.901       33.712       57.240       36.506       41.820       34.627     1332.679     1748.940     1199.018        0.479        0.214       45.062       14.603        0.105      340.206       14.067      868.670
10/12/2014  10:24:00       34.315       48.248       62.701       44.488       59.157       36.486     1979.201     3499.568     1331.234        0.712        0.341       59.206       38.496        0.423      340.171       14.007      868.650
10/12/2014  10:25:00       59.605       30.970       47.090       52.480       90.277       59.758     2754.188     8149.878     3570.960        1.060        0.724       67.171       34.078        0.257      339.622       13.082      868.648
10/12/2014  10:26:00       19.700      -19.060        0.888       41.079       52.853       41.400     1687.470     2793.391     1713.992        0.347        0.310       27.411       18.431        0.452      339.586       13.021      868.633
10/12/2014  10:27:00       77.904       58.397       13.073       52.720       36.126       41.428     2779.420     1305.079     1716.250        0.772        0.290       97.362       29.909        0.094      339.893       13.539      868.636
10/12/2014  10:28:00       53.283       51.206       40.873       58.041       32.643       32.748     3368.796     1065.571     1072.421        0.632        0.275       73.900       25.101        0.115      340.104       13.894      868.620
10/12/2014  10:29:00      145.578       86.983       26.881       67.495       45.365       54.478     4555.606     2057.981     2967.810        1.953        0.479      169.585       42.352        0.062      339.710       13.229      868.607
10/12/2014  10:30:00      158.356      132.329       28.007       67.777       53.740       55.218     4593.786     2887.990     3049.014        2.695        0.527      206.368       30.354        0.022      339.807       13.390      868.600
10/12/2014  10:31:00       54.302      112.107       -1.006       74.090       79.473       55.708     5489.317     6315.944     3103.424        1.521        0.745      124.565       45.203        0.132      339.882       13.520      868.597
10/12/2014  10:32:00      123.511      121.025        6.199       77.652       54.803       47.820     6029.769     3003.325     2286.795        2.063        0.566      172.922       35.041        0.041      339.689       13.193      868.611
10/12/2014  10:33:00       70.277       77.014        6.305       48.070       39.786       39.593     2310.697     1582.932     1567.642        0.818        0.273      104.259       21.191        0.041      340.082       13.858      868.605
10/12/2014  10:34:00       18.383       63.453        0.029       44.330       43.687       28.305     1965.110     1908.561      801.145        0.452        0.234       66.063       25.143        0.145      340.293       14.214      868.588
10/12/2014  10:35:00       92.414      132.027        9.181       76.331       64.802       52.675     5826.399     4199.318     2774.627        1.943        0.640      161.157       36.393        0.051      339.937       13.613      868.579
10/12/2014  10:36:00      187.155      129.928       11.652       64.303       52.520       48.696     4134.901     2758.304     2371.309        3.065        0.463      227.834       28.292        0.015      339.869       13.494      868.568
10/12/2014  10:37:00       69.393       80.339       -0.816      116.102       70.434       46.104    13479.566     4960.949     2125.588        1.591        1.028      106.159       30.638        0.083      339.917       13.578      868.576
10/12/2014  10:38:00        1.193       61.454        8.817       41.613       38.372       30.341     1731.626     1472.426      920.573        0.399        0.206       61.466       24.917        0.164      340.345       14.302      868.572
10/12/2014  10:39:00      135.615       93.633        6.528       57.319       38.513       41.028     3285.455     1483.252     1683.318        1.683        0.323      164.799       12.568        0.006      339.813       13.401      868.595
10/12/2014  10:40:00       24.466       80.151        8.043       56.485       54.804       34.391     3190.591     3003.485     1182.719        0.723        0.369       83.802       31.888        0.145      340.263       14.162      868.595
10/12/2014  10:41:00      109.843       98.349       17.242       67.253       54.651       51.164     4522.930     2986.679     2617.751        1.608        0.506      147.438       36.580        0.062      340.401       14.395      868.608
10/12/2014  10:42:00       94.584      107.018       16.074       69.860       54.508       43.124     4880.392     2971.162     1859.665        1.518        0.486      142.825       21.708        0.023      340.457       14.490      868.613
10/12/2014  10:43:00       58.227       42.947       16.667       48.868       33.901       31.320     2388.067     1149.271      980.913        0.501        0.226       72.352       20.510        0.080      340.570       14.682      868.604
10/12/2014  10:44:00       94.504       35.180        7.866       57.798       52.449       37.665     3340.563     2750.928     1418.681        0.887        0.376      100.840       29.218        0.084      340.426       14.438      868.599
10/12/2014  10:45:00      139.827      106.912       30.172       80.409       44.841       46.190     6465.562     2010.680     2133.543        2.125        0.530      176.016       31.730        0.032      340.154       13.977      868.577
10/12/2014  10:46:00       90.626       65.365        7.091       62.239       55.926       44.207     3873.655     3127.761     1954.291        1.074        0.448      111.739       26.958        0.058      340.267       14.169      868.559
10/12/2014  10:47:00      187.925      137.864       10.216       76.039       60.718       49.752     5781.880     3686.634     2475.246        3.318        0.597      233.071       30.109        0.017      339.897       13.543      868.552
10/12/2014  10:48:00      108.932       91.153       -2.647       86.794       62.670       43.765     7533.143     3927.506     1915.368        1.678        0.669      142.039       34.553        0.059      339.960       13.649      868.551
10/12/2014  10:49:00       12.428       44.561       -6.726       26.314       45.026       32.256      692.428     2027.321     1040.456        0.297        0.188       46.262       26.332        0.324      340.160       13.990      868.547
10/12/2014  10:50:00      -38.301       11.605      -12.870       19.800       18.440       13.909      392.051      340.042      193.473        0.135        0.046       40.021        8.738        0.048      339.863       13.488      868.540
10/12/2014  10:51:00      -27.051      -22.066       -4.775       27.345       34.378       22.675      747.775     1181.879      514.162        0.184        0.122       34.909       16.659        0.228      340.091       13.874      868.537
10/12/2014  10:52:00       10.204       -8.104       27.868       25.312       57.082       38.971      640.708     3258.334     1518.735        0.318        0.271       13.030       43.196       10.989      340.360       14.327      868.541
10/12/2014  10:53:00       19.295       13.349       38.933       40.285       40.324       30.539     1622.870     1626.055      932.648        0.312        0.209       23.462       30.513        1.691      340.658       14.830      868.563
10/12/2014  10:54:00      123.723       91.790       38.737       85.367       62.529       73.284     7287.578     3909.849     5370.519        2.090        0.828      154.054       39.051        0.064      340.301       14.225      868.570
10/12/2014  10:55:00      161.364      103.234       24.590       77.281       51.855       48.490     5972.309     2688.893     2351.321        2.415        0.551      191.561       20.716        0.012      340.486       14.537      868.556
10/12/2014  10:56:00      190.098      131.983       22.608       92.500       54.021       55.917     8556.195     2918.253     3126.729        3.433        0.730      231.423       41.319        0.032      340.270       14.170      868.534
10/12/2014  10:57:00      169.747       97.676       41.732      113.945       82.343       53.365    12983.429     6780.308     2847.818        3.135        1.131      195.844       34.373        0.031      340.456       14.488      868.492
10/12/2014  10:58:00       42.811       88.488       10.281       66.175       97.965       62.853     4379.097     9597.070     3950.466        1.384        0.896       98.300       41.923        0.182      340.578       14.694      868.461
10/12/2014  10:59:00       62.844      143.934       -5.279       67.220       71.319       51.283     4518.507     5086.398     2629.943        1.846        0.612      157.056       44.409        0.080      340.336       14.286      868.430
10/12/2014  11:00:00       66.706       66.823       11.327       45.937       35.062       49.579     2110.200     1229.367     2458.074        0.742        0.290       94.419       28.872        0.094      340.194       14.046      868.389
10/12/2014  11:01:00       -8.771      142.861      -10.919       47.029       71.306       29.536     2211.683     5084.480      872.391        1.439        0.408      143.130       30.670        0.046      339.935       13.609      868.345
10/12/2014  11:02:00       44.598       34.379       23.140       47.240       35.458       26.327     2231.593     1257.237      693.110        0.394        0.209       56.310       23.740        0.178      340.713       14.924      868.320
10/12/2014  11:03:00       15.789       44.533       -1.558       33.232       49.108       34.455     1104.334     2411.594     1187.175        0.347        0.235       47.249       26.600        0.317      340.621       14.769      868.313
10/12/2014  11:04:00       45.369      -52.943        6.552       65.641       78.449       45.084     4308.751     6154.242     2032.563        0.870        0.625       69.723       52.334        0.563      340.690       14.885      868.306
10/12/2014  11:05:00       67.527     -109.449      -29.059       63.390       78.461       43.218     4018.334     6156.202     1867.804        1.471        0.602      128.605       42.915        0.111      340.409       14.409      868.315
10/12/2014  11:06:00       40.710     -131.351      -18.876       44.519       57.398       45.212     1981.965     3294.545     2044.165        1.329        0.366      137.515       34.197        0.062      340.399       14.392      868.324
10/12/2014  11:07:00       -2.574     -100.814       -2.828       33.821       47.297       32.270     1143.841     2236.994     1041.337        0.730        0.221      100.847       28.523        0.080      340.480       14.529      868.337
10/12/2014  11:08:00        0.991      -52.158      -14.290       34.632       57.285       31.566     1199.366     3281.542      996.405        0.420        0.274       52.167       32.608        0.391      340.738       14.966      868.315
10/12/2014  11:09:00       12.394       30.985       35.997       35.482       40.465       39.641     1258.955     1637.383     1571.387        0.344        0.223       33.372       28.758        0.743      341.120       15.613      868.333
10/12/2014  11:10:00      151.085       78.793        9.473       63.832       58.207       38.077     4074.483     3388.053     1449.825        1.902        0.446      170.396       20.157        0.014      340.274       14.179      868.331
10/12/2014  11:11:00       37.954       76.032       15.466       63.533       47.454       41.352     4036.456     2251.920     1709.986        0.773        0.400       84.979       29.809        0.123      340.545       14.639      868.314
10/12/2014  11:12:00        8.814        6.497       23.144       25.786       26.411       18.763      664.928      697.515      352.060        0.118        0.086       10.950       13.350        1.487      341.271       15.868      868.292
10/12/2014  11:13:00       62.116       14.826       26.724       47.857       65.879       40.622     2290.288     4340.001     1650.158        0.654        0.414       63.861       37.346        0.342      340.605       14.741      868.253
10/12/2014  11:14:00       76.666       42.624       73.341       64.895       91.174       56.043     4211.347     8312.687     3140.848        1.437        0.783       87.718       27.760        0.100      340.954       15.330      868.190
10/12/2014  11:15:00      117.281      -35.961       42.988      105.016       63.391       50.569    11028.286     4018.479     2557.181        1.725        0.880      122.670       45.020        0.135      340.594       14.721      868.137
10/12/2014  11:16:00      124.894     -112.210       -1.706       65.451       65.737       57.924     4283.810     4321.345     3355.207        2.007        0.598      167.898       52.577        0.098      340.663       14.837      868.094
10/12/2014  11:17:00       69.415       -7.835       35.684       72.483       83.900       49.303     5253.849     7039.192     2430.815        1.044        0.736       69.855       54.554        0.610      340.660       14.835      868.078
10/12/2014  11:18:00       11.427      -81.201        8.790       52.385       63.845       39.802     2744.234     4076.121     1584.199        0.760        0.420       82.001       39.603        0.233      340.661       14.836      868.085
10/12/2014  11:19:00       16.049        5.743       33.448       35.946       74.657       39.687     1292.147     5573.705     1575.052        0.492        0.422       17.046       36.281        4.530      340.762       15.006      868.107
10/12/2014  11:20:00       99.507       81.126       59.351       99.430       57.170       52.388     9886.352     3268.415     2744.551        1.795        0.795      128.386       36.177        0.079      340.934       15.296      868.152
10/12/2014  11:21:00       75.095      131.634      123.869       83.831       75.416       67.504     7027.588     5687.584     4556.763        2.779        0.864      151.548       56.734        0.140      340.734       14.957      868.187
10/12/2014  11:22:00       46.309      101.782       39.649       60.451       48.937       65.588     3654.314     2394.812     4301.790        1.221        0.518      111.822       49.521        0.196      340.772       15.024      868.219
10/12/2014  11:23:00       30.372       51.842       -0.182       32.107       44.640       36.047     1030.875     1992.729     1299.419        0.397        0.216       60.084       23.762        0.156      340.754       14.993      868.240
10/12/2014  11:24:00       -3.975       88.145        3.514       32.028       62.855       34.281     1025.765     3950.733     1175.174        0.697        0.308       88.234       36.124        0.168      340.930       15.290      868.220
10/12/2014  11:25:00        6.374       -0.345       21.355       32.215       55.487       30.227     1037.829     3078.767      913.641        0.276        0.252        6.383       10.886        2.908      341.119       15.611      868.184
10/12/2014  11:26:00       -9.485       56.875       24.209       48.765       76.020       41.733     2378.073     5779.007     1741.675        0.690        0.495       57.660       38.934        0.456      341.197       15.743      868.144
10/12/2014  11:27:00       13.655      131.943       -2.494       42.771       81.415       46.198     1829.336     6628.352     2134.256        1.410        0.530      132.648       43.064        0.105      340.971       15.360      868.097
10/12/2014  11:28:00       61.588       75.798        9.291       54.523       64.921       46.555     2972.784     4214.705     2167.329        0.949        0.468       97.665       21.235        0.047      341.199       15.746      868.066
10/12/2014  11:29:00       89.423       73.202       27.972       45.196       55.427       47.763     2042.664     3072.141     2281.265        1.077        0.370      115.564       28.727        0.062      341.346       15.996      868.051
10/12/2014  11:30:00       34.153       33.951        0.308       35.526       24.300       23.879     1262.130      590.505      570.211        0.237        0.121       48.157       17.240        0.128      341.163       15.685      868.038
10/12/2014  11:31:00       15.137      -29.359       21.592       45.027       54.725       38.561     2027.474     2994.872     1486.913        0.403        0.325       33.031       25.687        0.605      341.269       15.864      868.041
10/12/2014  11:32:00       57.373      -41.333        2.033       52.119       62.355       40.666     2716.384     3888.189     1653.696        0.663        0.413       70.711       41.232        0.340      341.155       15.672      868.064
10/12/2014  11:33:00       29.866      -72.267       16.664       68.968       82.938       42.879     4756.641     6878.639     1838.647        0.993        0.674       78.195       37.202        0.226      341.099       15.578      868.071
10/12/2014  11:34:00       67.405      -79.904       -7.979       88.883      112.117       51.999     7900.126    12570.125     2703.941        1.708        1.159      104.537       43.944        0.177      340.805       15.077      868.119
10/12/2014  11:35:00       47.893       56.549      -11.086       47.698       62.296       33.548     2275.132     3880.847     1125.472        0.645        0.364       74.105       28.586        0.149      340.847       15.151      868.137
10/12/2014  11:36:00       12.813        5.707       30.843       24.663       40.931       26.438      608.276     1675.321      698.944        0.206        0.149       14.027       23.099        2.712      341.237       15.811      868.174
10/12/2014  11:37:00       18.865     -120.549        6.893       77.607       91.683       41.144     6022.912     8405.734     1692.819        1.553        0.806      122.016       41.861        0.118      341.275       15.874      868.188
10/12/2014  11:38:00       41.457     -123.775       21.864       59.101       91.443       48.528     3492.883     8361.827     2354.950        1.586        0.710      130.533       36.770        0.079      341.072       15.530      868.186
10/12/2014  11:39:00       46.549       37.107       78.761       61.931       77.793       52.794     3835.396     6051.686     2787.202        1.121        0.634       59.529       58.773        0.975      340.901       15.243      868.175
10/12/2014  11:40:00       24.551      -27.086       23.463       22.291       30.364       32.366      496.894      921.946     1047.544        0.218        0.123       36.557       22.681        0.385      341.120       15.613      868.124
10/12/2014  11:41:00       10.930        8.414       36.508       26.058       23.342       30.221      679.023      544.860      913.283        0.183        0.107       13.793       21.874        2.515      341.415       16.113      868.075
10/12/2014  11:42:00       -3.253        1.979       15.686       26.844       17.041       15.959      720.579      290.408      254.677        0.076        0.063        3.808        5.516        2.098      341.195       15.738      868.046
10/12/2014  11:43:00       -2.588      -44.377       -2.381       31.106       47.023       26.754      967.609     2211.190      715.781        0.294        0.195       44.453       28.102        0.400      340.881       15.209      868.019
10/12/2014  11:44:00       56.143      -37.723       25.320       64.013       70.607       50.252     4097.717     4985.379     2525.284        0.841        0.580       67.639       30.967        0.210      341.249       15.830      868.015
10/12/2014  11:45:00       68.154       13.548        6.978       57.886       92.477       50.403     3350.830     8552.028     2540.509        0.966        0.722       69.487       28.223        0.165      341.444       16.161      868.021
10/12/2014  11:46:00       10.439       83.929      123.091       73.576       89.170       71.696     5413.359     7951.218     5140.354        2.040        0.925       84.576       66.114        0.611      341.462       16.190      868.041
10/12/2014  11:47:00       21.935       91.815      111.972       58.071       61.454       52.959     3372.197     3776.643     2804.661        1.570        0.498       94.399       44.384        0.221      341.072       15.530      868.069
10/12/2014  11:48:00       32.013       50.147       74.415       61.078       62.161       42.150     3730.468     3863.940     1776.581        0.922        0.469       59.494       35.291        0.352      341.349       16.001      868.073
10/12/2014  11:49:00      116.860       87.295       44.389       70.472       52.445       47.850     4966.296     2750.466     2289.595        1.663        0.500      145.866       37.985        0.068      340.938       15.302      868.102
10/12/2014  11:50:00       46.722       48.366       -0.334       49.211       37.837       28.571     2421.760     1431.645      816.279        0.460        0.233       67.248       24.001        0.127      341.218       15.777      868.114
10/12/2014  11:51:00       77.940       43.521        5.291       50.435       43.222       34.775     2543.705     1868.134     1209.316        0.681        0.281       89.268       20.832        0.054      341.203       15.753      868.107
10/12/2014  11:52:00       89.325       57.414       10.394       25.781       32.295       28.832      664.666     1042.971      831.312        0.696        0.127      106.186       20.786        0.038      341.046       15.487      868.115
10/12/2014  11:53:00       47.506       97.185       25.292       43.504       57.449       47.969     1892.598     3300.368     2301.031        0.992        0.375      108.175       39.704        0.135      341.248       15.830      868.101
10/12/2014  11:54:00       35.109       28.267       31.733       53.779       72.344       35.674     2892.157     5233.706     1272.634        0.622        0.470       45.074       28.773        0.407      341.068       15.525      868.066
10/12/2014  11:55:00       72.589       16.932       29.086       52.650       53.143       33.350     2772.071     2824.201     1112.242        0.655        0.335       74.538       23.668        0.101      341.268       15.863      868.039
10/12/2014  11:56:00       58.068      -23.639       25.634       57.932       80.879       62.967     3356.167     6541.486     3964.881        0.922        0.693       62.696       58.441        0.869      341.478       16.218      868.008
10/12/2014  11:57:00       59.253       -7.431       62.945       74.673      142.210       81.805     5576.082    20223.708     6691.989        2.000        1.625       59.717       95.073        2.535      341.474       16.210      867.961
10/12/2014  11:58:00       61.504       12.731       72.065      102.032      122.112       63.329    10410.557    14911.404     4010.624        1.923        1.467       62.808       87.715        1.950      341.394       16.076      867.972
10/12/2014  11:59:00      108.780     -128.323      -12.733       59.529       81.760       51.480     3543.706     6684.716     2650.198        2.067        0.644      168.226       60.581        0.130      341.105       15.585      867.981
10/12/2014  12:00:00       73.918      -22.652       26.392       51.051       59.271       55.095     2606.159     3513.013     3035.438        0.791        0.458       77.312       53.442        0.478      341.750       16.679      867.985
10/12/2014  12:01:00       54.879      -98.328      -13.469       33.518       39.598       27.558     1123.451     1567.999      759.417        0.816        0.173      112.606        3.424        0.001      341.076       15.537      867.996
10/12/2014  12:02:00       35.484       16.501       33.171       46.743       45.935       36.835     2184.899     2110.037     1356.801        0.414        0.283       39.133       28.002        0.512      341.451       16.173      867.997
10/12/2014  12:03:00       33.342       48.396       14.687       30.055       20.581       26.395      903.285      423.568      696.705        0.285        0.101       58.769       14.031        0.057      341.521       16.291      867.977
10/12/2014  12:04:00       -5.183       -3.081      -12.765       29.362       29.621       19.688      862.127      877.400      387.618        0.116        0.106        6.030       12.046        3.991      341.963       17.041      867.988
10/12/2014  12:05:00        3.410       24.898        9.924       34.160       42.659       30.909     1166.938     1819.778      955.362        0.234        0.197       25.131       23.557        0.879      342.043       17.178      867.996
10/12/2014  12:06:00       18.041      152.038      -12.243       56.771       58.384       35.626     3222.910     3408.750     1269.233        1.574        0.395      153.105       34.621        0.051      341.562       16.361      867.996
10/12/2014  12:07:00       -4.300       91.089        1.272       34.307       48.705       30.263     1176.938     2372.194      915.877        0.639        0.223       91.190       29.596        0.105      341.748       16.677      867.999
10/12/2014  12:08:00       70.664       41.687       15.070       44.304       29.417       30.248     1962.880      865.343      914.966        0.535        0.187       82.044       18.807        0.053      341.493       16.243      867.982
10/12/2014  12:09:00       28.350       43.104       55.582       62.637       82.689       51.244     3923.355     6837.428     2625.997        0.957        0.669       51.591       57.832        1.257      341.710       16.612      867.960
10/12/2014  12:10:00      104.139       21.096       22.755       87.094      137.304       45.748     7585.282    18852.377     2092.923        2.016        1.427      106.255       30.937        0.085      341.630       16.474      867.911
10/12/2014  12:11:00       44.693       36.021       32.634      116.488       80.619       39.128    13569.355     6499.377     1531.032        1.298        1.080       57.402       22.270        0.151      341.889       16.915      867.886
10/12/2014  12:12:00      180.221      114.827        3.568       62.110       48.205       44.461     3857.619     2323.723     1976.785        2.692        0.408      213.694       18.653        0.008      341.337       15.978      867.865
10/12/2014  12:13:00      137.107       59.755       25.045       63.296       61.564       45.348     4006.323     3790.136     2056.406        1.642        0.493      149.562       27.962        0.035      341.700       16.592      867.850
10/12/2014  12:14:00       72.206       67.632       73.532       67.215       63.187       56.810     4517.832     3992.594     3227.426        1.346        0.587       98.933       40.774        0.170      341.751       16.680      867.842
10/12/2014  12:15:00      135.242       65.226       46.387       93.923       54.416       53.636     8821.509     2961.130     2876.871        1.968        0.733      150.149       49.063        0.107      341.296       15.908      867.828
10/12/2014  12:16:00      122.657      112.242       68.114       89.919       58.423       50.547     8085.507     3413.269     2555.016        2.317        0.703      166.262       46.097        0.077      341.375       16.043      867.804
10/12/2014  12:17:00      113.600       89.781       29.644       39.017       30.465       31.546     1522.339      928.110      995.172        1.264        0.172      144.794       17.917        0.015      341.145       15.652      867.809
10/12/2014  12:18:00      105.666       85.805       57.653       55.978       38.547       43.966     3133.491     1485.900     1933.016        1.420        0.328      136.117       14.406        0.011      341.362       16.021      867.802
10/12/2014  12:19:00      110.620       72.135       14.887       35.658       28.400       26.724     1271.519      806.576      714.161        1.023        0.140      132.062       11.091        0.007      341.253       15.837      867.803
10/12/2014  12:20:00       36.834       39.286       10.000       32.198       34.743       22.371     1036.685     1207.083      500.453        0.287        0.137       53.853       12.015        0.050      341.403       16.092      867.808
10/12/2014  12:21:00       59.676       56.817       16.624       61.490       55.745       44.429     3781.080     3107.483     1973.911        0.796        0.443       82.398       35.498        0.186      341.755       16.687      867.804
10/12/2014  12:22:00      118.226       77.215       15.495       92.460       62.409       46.310     8548.869     3894.938     2144.632        1.738        0.729      141.208       35.254        0.062      341.769       16.710      867.786
10/12/2014  12:23:00      197.379      148.568       52.121      100.232       84.999       84.512    10046.548     7224.900     7142.294        4.408        1.221      247.045       41.911        0.029      341.516       16.279      867.779
10/12/2014  12:24:00      174.759       81.601       21.075      119.330       87.066       75.098    14239.553     7580.561     5639.691        3.255        1.373      192.872       61.244        0.101      341.650       16.509      867.760
10/12/2014  12:25:00      167.991      103.600       39.363       85.693       72.680       54.891     7343.275     5282.408     3012.986        2.807        0.782      197.368       19.058        0.009      341.792       16.748      867.718
10/12/2014  12:26:00      145.609       93.205       63.945       89.099       85.957       63.127     7938.702     7388.600     3985.066        2.664        0.966      172.885       59.347        0.118      341.611       16.441      867.688
10/12/2014  12:27:00       26.836      -53.631       14.916       61.630       63.593       45.635     3798.215     4044.111     2082.588        0.687        0.496       59.970       34.112        0.324      341.949       17.017      867.667
10/12/2014  12:28:00       85.280      -43.173       34.066       92.491      147.611       64.775     8554.575    21789.040     4195.864        2.241        1.727       95.585       38.863        0.165      342.057       17.200      867.617
10/12/2014  12:29:00       80.140       86.995       73.004       84.871       69.883       68.874     7203.108     4883.596     4743.651        1.807        0.842      118.281       60.580        0.262      341.755       16.686      867.611
10/12/2014  12:30:00       88.922       47.351       20.614       63.706       52.216       51.870     4058.395     2726.460     2690.473        1.002        0.474      100.743       18.252        0.033      342.002       17.107      867.584
10/12/2014  12:31:00      227.932      120.162       48.304      113.434       75.736       66.738    12867.325     5735.924     4453.976        4.589        1.153      257.666       50.551        0.038      341.717       16.619      867.537
10/12/2014  12:32:00      202.533      136.752       45.224       99.785       55.585       58.422     9957.064     3089.676     3413.153        3.911        0.823      244.379       36.736        0.023      341.563       16.359      867.482
10/12/2014  12:33:00      111.924       69.631       71.472       72.241       65.225       63.275     5218.748     4254.344     4003.688        1.798        0.674      131.816       43.679        0.110      341.923       16.971      867.461
10/12/2014  12:34:00      157.302      162.860      151.355      107.854       90.246       86.275    11632.427     8144.371     7443.413        5.069        1.361      226.423       76.934        0.115      341.623       16.459      867.453
10/12/2014  12:35:00      123.720      112.632       82.931      100.458       59.851       67.920    10091.759     3582.178     4613.124        2.658        0.914      167.310       53.763        0.103      341.659       16.523      867.446
10/12/2014  12:36:00      165.272      131.641       92.624      105.944       73.381       63.448    11224.235     5384.761     4025.682        3.693        1.032      211.291       51.066        0.058      341.708       16.605      867.418
10/12/2014  12:37:00      152.611      142.999      122.432      139.679       94.376       84.729    19510.223     8906.895     7178.933        4.716        1.780      209.139       81.874        0.153      341.811       16.781      867.394
10/12/2014  12:38:00      153.769       81.124       64.666      112.398       66.621       63.177    12633.220     4438.301     3991.380        2.773        1.053      173.857       62.760        0.130      341.851       16.848      867.393
10/12/2014  12:39:00      140.539       92.094       64.150       79.907       61.860       55.531     6385.127     3826.703     3083.709        2.282        0.665      168.025       48.336        0.083      341.715       16.619      867.376
10/12/2014  12:40:00       59.090       21.574       76.524       70.432       70.046       51.891     4960.633     4906.501     2692.703        1.118        0.628       62.905       51.246        0.664      341.931       16.988      867.357
10/12/2014  12:41:00        8.344       42.238       52.186       31.166       60.163       47.212      971.343     3619.616     2228.986        0.570        0.341       43.054       27.615        0.411      342.002       17.106      867.338
10/12/2014  12:42:00        7.083       25.163       30.670       23.656       33.379       28.619      559.598     1114.186      819.043        0.206        0.125       26.141       17.540        0.450      342.407       17.793      867.325
10/12/2014  12:43:00       12.293      -16.224       18.893       25.590       23.023       27.881      654.873      530.042      777.343        0.137        0.098       20.355       14.857        0.533      342.074       17.232      867.316
10/12/2014  12:44:00      -34.360      -45.633        5.019       35.617       38.612       28.254     1268.548     1490.895      798.261        0.342        0.178       57.122       23.380        0.168      342.030       17.156      867.296
10/12/2014  12:45:00      -28.100       22.068       10.687       35.282       28.709       26.918     1244.831      824.189      724.586        0.209        0.140       35.730       19.628        0.302      342.114       17.297      867.272
10/12/2014  12:46:00       11.898       15.289        9.305       38.170       23.584       20.039     1456.935      556.207      401.581        0.144        0.121       19.373       13.090        0.457      342.178       17.406      867.248
10/12/2014  12:47:00       54.128       30.154        8.125       52.051       36.250       35.426     2709.294     1314.068     1254.971        0.459        0.264       61.960       13.882        0.050      342.116       17.300      867.228
10/12/2014  12:48:00       76.850       87.414       23.333       55.495       51.489       47.270     3079.745     2651.120     2234.448        1.103        0.398      116.393       27.418        0.055      342.173       17.397      867.224
10/12/2014  12:49:00      232.806       96.978       39.150      110.713       77.547       63.713    12257.268     6013.585     4059.296        4.373        1.117      252.197       41.787        0.027      341.896       16.924      867.212
10/12/2014  12:50:00      197.376       93.390       23.853       81.287       75.135       55.749     6607.529     5645.264     3108.002        3.180        0.768      218.355       30.132        0.019      341.747       16.669      867.204
10/12/2014  12:51:00      193.626      128.246       30.362       73.685       58.767       51.569     5429.541     3453.583     2659.324        3.320        0.577      232.246       22.171        0.009      341.734       16.648      867.189
10/12/2014  12:52:00      162.114      108.843       28.463       79.957       69.267       57.311     6393.049     4797.890     3284.537        2.670        0.724      195.263       34.929        0.032      341.630       16.474      867.190
10/12/2014  12:53:00      114.331       77.990       10.638       73.457       59.320       43.819     5395.920     3518.825     1920.144        1.505        0.542      138.398       35.252        0.065      341.926       16.976      867.194
10/12/2014  12:54:00       53.172       55.815       58.957       93.134       66.568       48.274     8673.975     4431.342     2330.363        1.242        0.772       77.088       47.755        0.384      342.234       17.501      867.219
10/12/2014  12:55:00       44.386     -112.060       15.444       64.062       88.622       51.272     4103.954     7853.830     2628.840        1.467        0.729      120.530       39.368        0.107      342.266       17.554      867.211
10/12/2014  12:56:00       18.272      -42.184       19.919       35.655       53.911       42.010     1271.309     2906.400     1764.871        0.423        0.297       45.971       40.972        0.794      342.234       17.501      867.213
10/12/2014  12:57:00      -27.363      -56.393        7.244       76.246       45.909       30.628     5813.486     2107.673      938.046        0.642        0.443       62.681       27.332        0.190      342.284       17.587      867.179
10/12/2014  12:58:00     -107.871      -64.611       -4.710       53.924       42.939       32.043     2907.847     1843.747     1026.775        1.080        0.289      125.741       24.075        0.037      342.027       17.149      867.154
10/12/2014  12:59:00      -31.725      -31.442       -7.016       43.664       43.356       28.586     1906.508     1879.778      817.134        0.332        0.230       44.666       25.702        0.331      342.160       17.375      867.138
10/12/2014  13:00:00      -35.788      -49.829       16.215       35.365       52.298       37.094     1250.712     2735.038     1375.948        0.469        0.268       61.349       37.979        0.383      342.429       17.833      867.143
10/12/2014  13:01:00        9.753      -45.204       11.111       69.423       64.933       62.563     4819.599     4216.319     3914.178        0.760        0.648       46.244       40.928        0.783      342.428       17.831      867.160
10/12/2014  13:02:00      -32.299      -24.787       11.134       48.545       38.967       24.876     2356.635     1518.407      618.816        0.314        0.225       40.714       19.655        0.233      342.812       18.485      867.201
10/12/2014  13:03:00       19.935      -12.299        0.359       40.280       32.716       30.774     1622.509     1070.336      947.043        0.209        0.182       23.423       14.806        0.400      342.414       17.808      867.205
10/12/2014  13:04:00       80.295       49.079        0.820       64.684       61.629       38.749     4184.006     3798.153     1501.480        0.917        0.474       94.107       27.044        0.083      342.150       17.358      867.208
10/12/2014  13:05:00      129.012      131.970       33.228       71.112       55.536       69.751     5056.937     3084.236     4865.211        2.408        0.650      184.554       37.554        0.041      342.147       17.353      867.170
10/12/2014  13:06:00       47.516      -37.859       35.686       46.514       82.526       43.632     2163.538     6810.522     1903.774        0.792        0.544       60.754       43.445        0.511      342.460       17.885      867.142
10/12/2014  13:07:00       41.960      -40.222       14.393       64.199       62.886       49.256     4121.516     3954.590     2426.124        0.704        0.525       58.125       43.869        0.570      342.439       17.849      867.116
10/12/2014  13:08:00       62.706     -110.040      -15.464       45.741       44.668       26.841     2092.236     1995.250      720.457        1.054        0.240      126.652       20.378        0.026      342.319       17.646      867.108
10/12/2014  13:09:00       15.518      -55.953       -3.759       29.896       44.207       31.339      893.744     1954.251      982.160        0.361        0.192       58.064       30.157        0.270      342.391       17.768      867.094
10/12/2014  13:10:00       -4.303       -6.709       14.653       31.733       24.503       20.900     1006.963      600.403      436.820        0.116        0.102        7.970       18.269        5.254      342.636       18.184      867.073
10/12/2014  13:11:00      116.148      -53.329       54.886      113.990      125.413       85.546    12993.756    15728.336     7318.055        2.769        1.802      127.806       60.498        0.224      342.502       17.956      867.090
10/12/2014  13:12:00      195.623      150.114      119.485      127.371      114.173      101.360    16223.465    13035.553    10273.855        5.730        1.977      246.582       87.202        0.125      342.195       17.432      867.077
10/12/2014  13:13:00      111.905        9.886       76.359      120.054      118.876       75.175    14412.913    14131.515     5651.313        2.632        1.710      112.341       84.269        0.563      342.423       17.821      867.085
10/12/2014  13:14:00      220.742     -215.059        6.372      146.907      127.172       73.104    21581.635    16172.620     5344.256        6.905        2.155      308.184       65.564        0.045      342.358       17.709      867.060
10/12/2014  13:15:00       90.664      -44.128       65.797      102.295      107.529       67.661    10464.205    11562.500     4577.959        2.055        1.330      100.832       49.321        0.239      342.436       17.843      867.032
10/12/2014  13:16:00      156.219     -189.693      -20.149       87.018      124.805       57.625     7572.171    15576.303     3320.585        4.363        1.323      245.740       63.969        0.068      342.160       17.372      867.041
10/12/2014  13:17:00      115.754     -114.991      -18.507       72.958       86.526       50.536     5322.860     7486.737     2553.892        2.116        0.768      163.162       47.545        0.085      342.175       17.401      867.010
10/12/2014  13:18:00       60.232      -84.527        2.304       43.263       59.618       50.404     1871.705     3554.270     2540.598        0.937        0.398      103.791       44.830        0.187      342.417       17.812      866.983
10/12/2014  13:19:00       35.269       -7.439       67.056       55.560      104.344       66.649     3086.883    10887.589     4442.027        1.210        0.921       36.045       66.154        3.368      342.465       17.893      866.972
10/12/2014  13:20:00       92.031     -174.972      -26.464       46.352       62.282       37.334     2148.491     3879.034     1393.793        2.360        0.371      197.699       31.895        0.026      342.375       17.738      866.974
10/12/2014  13:21:00       55.321     -177.807       -4.937       52.172       71.012       35.595     2721.867     5042.715     1267.031        2.186        0.452      186.214       30.268        0.026      342.344       17.686      866.958
10/12/2014  13:22:00       70.804     -183.056      -25.960       50.056       48.917       41.836     2505.570     2392.838     1750.229        2.292        0.332      196.272       10.929        0.003      342.155       17.365      866.954
10/12/2014  13:23:00      152.624     -244.511      -33.832       88.358       67.755       42.133     7807.163     4590.781     1775.161        4.920        0.709      288.235       44.488        0.024      342.154       17.361      866.935
10/12/2014  13:24:00       45.525       43.590      102.496       98.187      130.108       77.613     9640.671    16928.041     6023.786        2.353        1.630       63.029       84.556        1.800      342.416       17.808      866.925
10/12/2014  13:25:00      124.095       54.962       63.158      116.058       67.686       51.252    13469.456     4581.444     2626.786        2.154        1.034      135.721       26.220        0.037      342.293       17.600      866.915
10/12/2014  13:26:00      168.813       87.436       25.397      118.683       86.602       64.012    14085.602     7499.828     4097.491        3.123        1.284      190.112       45.371        0.057      342.237       17.503      866.881
10/12/2014  13:27:00      146.756       60.198       49.994      107.161       81.809       68.597    11483.476     6692.642     4705.584        2.527        1.144      158.623       56.827        0.128      342.288       17.592      866.873
10/12/2014  13:28:00      248.813       92.537       28.666      139.650      103.401       81.511    19502.229    10691.865     6643.989        5.406        1.842      265.464       70.391        0.070      342.476       17.908      866.845
10/12/2014  13:29:00      122.644       73.715       50.644       93.617       75.592       56.346     8764.100     5714.119     3174.874        2.034        0.883      143.092       41.134        0.083      342.424       17.823      866.860
10/12/2014  13:30:00      217.344      142.662       51.464      114.086       82.862       54.264    13015.533     6866.126     2944.529        4.653        1.141      259.983       45.013        0.030      342.526       17.995      866.886
10/12/2014  13:31:00      186.965      122.459       33.175       68.233       52.068       44.705     4655.685     2711.116     1998.504        3.021        0.468      223.500       28.907        0.017      342.127       17.315      866.901
10/12/2014  13:32:00       99.039       52.912       31.566       98.194       51.140       45.653     9642.144     2615.267     2084.163        1.397        0.717      112.287       38.072        0.115      342.293       17.600      866.890
10/12/2014  13:33:00       41.175        9.938       30.409       44.390       60.860       38.761     1970.507     3703.908     1502.427        0.495        0.359       42.358       34.720        0.672      342.262       17.547      866.871
10/12/2014  13:34:00       36.807      106.781       91.568       55.626       64.551       75.183     3094.197     4166.873     5652.441        1.703        0.646      112.946       55.010        0.237      342.278       17.575      866.844
10/12/2014  13:35:00       60.364       97.741       -1.732       64.229       77.980       48.232     4125.347     6080.919     2326.341        1.286        0.627      114.879       43.559        0.144      342.430       17.833      866.854
10/12/2014  13:36:00      136.323       45.605       29.748       79.238       70.933       41.157     6278.648     5031.473     1693.932        1.727        0.650      143.749       36.282        0.064      342.313       17.634      866.856
10/12/2014  13:37:00      120.995       71.692       32.819       79.313       54.862       43.708     6290.531     3009.883     1910.394        1.603        0.561      140.640       22.703        0.026      342.243       17.516      866.848
10/12/2014  13:38:00      134.295       59.886       26.479       65.966       61.714       49.310     4351.574     3808.601     2431.453        1.646        0.530      147.043       35.825        0.059      342.127       17.318      866.837
10/12/2014  13:39:00      124.841      114.798        9.456       67.076       37.805       36.428     4499.176     1429.219     1326.970        1.805        0.363      169.599        9.639        0.003      342.152       17.360      866.814
10/12/2014  13:40:00      -16.148       47.035      -23.027       66.748       41.510       27.686     4455.246     1723.105      766.533        0.497        0.347       49.730       30.776        0.383      342.125       17.315      866.815
10/12/2014  13:41:00      -72.749      -11.233      -17.650       43.986       30.664       32.647     1934.809      940.310     1065.835        0.483        0.197       73.611       12.996        0.031      342.212       17.465      866.795
10/12/2014  13:42:00     -121.642      -35.151      -18.248       49.665       29.065       19.776     2466.647      844.751      391.078        1.003        0.185      126.619       16.202        0.016      342.239       17.510      866.774
10/12/2014  13:43:00       23.692      -27.260      -12.472       30.108       24.496       21.204      906.519      600.072      449.590        0.171        0.098       36.116       14.137        0.153      342.354       17.705      866.770
10/12/2014  13:44:00       -1.659       21.766       40.893       18.724       22.880       15.042      350.605      523.493      226.270        0.162        0.055       21.829       10.307        0.223      343.025       18.845      866.766
10/12/2014  13:45:00       54.574       -6.175       21.146       35.276       35.009       27.750     1244.430     1225.627      770.066        0.335        0.162       54.922       29.857        0.296      342.082       17.245      866.777
10/12/2014  13:46:00       36.537       -8.748        8.325       33.852       43.885       27.223     1145.971     1925.926      741.079        0.265        0.191       37.569       25.018        0.443      342.246       17.521      866.756
10/12/2014  13:47:00      115.485      -93.202       13.252       95.651      137.965       57.967     9149.094    19034.472     3360.144        2.687        1.577      148.403       54.267        0.134      342.763       18.398      866.731
10/12/2014  13:48:00       66.188      -99.595       10.956       66.114      103.111       53.873     4371.019    10631.784     2902.278        1.616        0.895      119.582       51.029        0.182      342.664       18.232      866.738
10/12/2014  13:49:00        2.040      -75.501       14.876       50.709       70.894       49.357     2571.453     5025.949     2436.152        0.798        0.502       75.528       38.267        0.257      342.718       18.325      866.741
10/12/2014  13:50:00       49.395       43.589       72.096       73.748       92.606       59.077     5438.794     8575.838     3490.109        1.352        0.875       65.877       64.481        0.958      342.564       18.061      866.743
10/12/2014  13:51:00       36.975       15.915       45.927       79.079       78.571       49.894     6253.513     6173.328     2489.407        0.932        0.746       40.255       38.187        0.900      342.836       18.524      866.731
10/12/2014  13:52:00       68.904       21.360       38.443       47.563       69.772       48.771     2262.196     4868.160     2378.563        0.809        0.475       72.139       13.513        0.035      342.433       17.837      866.732
10/12/2014  13:53:00       53.896       80.811       -7.193       37.377       42.392       24.805     1397.041     1797.109      615.312        0.665        0.190       97.134       15.901        0.027      342.605       18.132      866.720
10/12/2014  13:54:00      110.548       62.245       19.823       66.193       44.805       34.737     4381.520     2007.453     1206.659        1.204        0.380      126.867       14.578        0.013      342.477       17.915      866.696
10/12/2014  13:55:00       50.211       81.897        2.991       50.831       58.438       34.767     2583.764     3414.968     1208.743        0.822        0.360       96.064       26.286        0.075      342.445       17.859      866.690
10/12/2014  13:56:00       29.850       51.595       -5.595       41.021       50.916       30.850     1682.754     2592.432      951.726        0.440        0.261       59.607       25.356        0.181      342.746       18.372      866.692
10/12/2014  13:57:00       40.496       29.555       15.845       44.999       36.913       24.400     2024.952     1362.548      595.375        0.337        0.199       50.134       10.886        0.047      342.977       18.765      866.698
10/12/2014  13:58:00        5.798        5.278        0.945       26.667       28.535       26.480      711.152      814.218      701.173        0.114        0.111        7.840       23.726        9.158      343.017       18.832      866.681
10/12/2014  13:59:00       44.040       58.089       10.700       44.447       45.042       33.456     1975.526     2028.819     1119.273        0.528        0.256       72.896       31.323        0.185      342.787       18.441      866.656
10/12/2014  14:00:00       46.639       81.550       24.689       73.877       32.708       41.147     5457.831     1069.816     1693.078        0.883        0.411       93.945       18.988        0.041      342.721       18.329      866.628
10/12/2014  14:01:00       62.265       80.101       51.760       39.961       35.199       35.066     1596.852     1238.980     1229.614        0.852        0.203      101.455       28.124        0.077      342.461       17.887      866.600
10/12/2014  14:02:00       40.304       30.916       22.370       31.514       22.944       23.684      993.133      526.429      560.934        0.258        0.104       50.796       19.463        0.147      342.494       17.943      866.577
10/12/2014  14:03:00       58.017       26.065        2.430       29.355       25.929       23.278      861.715      672.296      541.868        0.306        0.104       63.603       17.020        0.072      342.476       17.913      866.568
10/12/2014  14:04:00       68.979        0.247       14.869       45.971       28.263       24.954     2113.304      798.782      622.685        0.426        0.177       68.980       16.667        0.058      342.433       17.840      866.572
10/12/2014  14:05:00       43.492       41.425       35.284       71.936       51.810       44.556     5174.807     2684.269     1985.239        0.735        0.492       60.063       33.847        0.318      342.859       18.565      866.549
10/12/2014  14:06:00      122.795      119.445      100.071       75.029       64.519       69.716     5629.281     4162.688     4860.268        2.700        0.733      171.306       47.969        0.078      342.471       17.901      866.520
10/12/2014  14:07:00       91.606       69.886       48.498       81.568       54.115       55.562     6653.328     2928.395     3087.159        1.415        0.633      115.220       23.335        0.041      342.953       18.722      866.508
10/12/2014  14:08:00      134.258       86.338       24.076       78.877       63.383       55.281     6221.583     4017.350     3055.935        1.967        0.665      159.622       39.040        0.060      343.019       18.835      866.487
10/12/2014  14:09:00      142.266      114.154       25.998       74.820       48.969       38.260     5598.037     2397.969     1463.791        2.170        0.473      182.403       21.579        0.014      342.444       17.856      866.480
10/12/2014  14:10:00       62.660      109.179       -0.830       58.281       60.530       35.731     3396.690     3663.873     1276.730        1.209        0.417      125.882       29.983        0.057      342.816       18.489      866.473
10/12/2014  14:11:00       28.544      105.707        0.586       70.269       85.348       38.254     4937.777     7284.335     1463.390        1.284        0.684      109.493       42.562        0.151      342.901       18.635      866.452
10/12/2014  14:12:00       -0.808       63.007      -10.129       55.514       49.566       38.287     3081.827     2456.824     1465.873        0.554        0.350       63.013       35.840        0.324      343.087       18.952      866.454
10/12/2014  14:13:00        8.356      -40.696       18.906       30.333       27.762       29.325      920.071      770.708      859.967        0.232        0.128       41.545       18.279        0.194      342.773       18.418      866.432
10/12/2014  14:14:00       43.723       10.163        5.575       41.069       40.922       28.309     1686.695     1674.600      801.384        0.310        0.208       44.888       22.185        0.244      342.544       18.026      866.400
10/12/2014  14:15:00      155.544      164.558        1.120      113.911       79.144       44.734    12975.649     6263.732     2001.151        3.625        1.062      226.436       46.933        0.043      342.778       18.422      866.407
10/12/2014  14:16:00      160.079      131.071       20.453       86.564       65.759       57.680     7493.270     4324.275     3326.926        2.918        0.757      206.893       36.831        0.032      342.750       18.375      866.390
10/12/2014  14:17:00      137.202      113.561       59.727       83.890       72.423       89.387     7037.524     5245.081     7990.118        2.778        1.014      178.103       14.186        0.006      342.907       18.643      866.368
10/12/2014  14:18:00      164.574      180.030      118.613      121.319       76.467      100.803    14718.305     5847.214    10161.226        5.214        1.536      243.917       93.309        0.146      342.355       17.703      866.358
10/12/2014  14:19:00      132.729       99.014       86.311      119.366       95.753       70.109    14248.138     9168.723     4915.333        3.160        1.417      165.592       70.296        0.180      342.411       17.800      866.336
10/12/2014  14:20:00      151.162       54.873       23.877      100.235       67.112       56.417    10046.999     4504.061     3182.855        2.208        0.887      160.814       43.713        0.074      342.504       17.958      866.322
10/12/2014  14:21:00       90.064       64.059       40.493       67.460       41.038       38.211     4550.823     1684.127     1460.066        1.077        0.385      110.522       21.744        0.039      342.647       18.204      866.286
10/12/2014  14:22:00      112.273       91.517        5.123       64.071       54.850       43.561     4105.043     3008.468     1897.587        1.501        0.451      144.847       34.258        0.056      342.610       18.139      866.255
10/12/2014  14:23:00       72.596       56.087       25.777       76.061       55.728       44.818     5785.327     3105.640     2008.651        0.999        0.545       91.738       31.409        0.117      342.621       18.158      866.231
10/12/2014  14:24:00      134.001       50.105       -2.731       57.863       41.772       34.751     3348.100     1744.929     1207.653        1.339        0.315      143.062       26.417        0.034      342.482       17.922      866.245
10/12/2014  14:25:00       -0.833       16.031      -14.032       25.554       21.136       15.507      653.021      446.729      240.461        0.090        0.067       16.053        7.403        0.213      342.746       18.372      866.222
10/12/2014  14:26:00      102.563       78.675       12.081       51.836       37.143       31.510     2686.989     1379.607      992.882        1.096        0.253      129.263       15.274        0.014      342.277       17.574      866.218
10/12/2014  14:27:00      163.611       92.612       25.471      100.308       69.498       62.114    10061.709     4829.949     3858.168        2.737        0.937      188.004       45.755        0.059      342.645       18.197      866.222
10/12/2014  14:28:00      171.089      124.223       18.639       74.963       77.942       63.309     5619.467     6075.027     4008.030        3.037        0.785      211.430       29.991        0.020      342.683       18.261      866.190
10/12/2014  14:29:00       50.190       85.705        8.743       88.849       75.450       42.549     7894.212     5692.691     1810.396        1.267        0.770       99.320       40.183        0.164      342.903       18.639      866.183
10/12/2014  14:30:00      -46.529       78.094      -15.042       43.382       69.517       31.495     1881.974     4832.652      991.924        0.810        0.385       90.905       27.601        0.092      343.102       18.977      866.175
10/12/2014  14:31:00       -3.023      -14.710        3.216       25.474       34.995       31.121      648.905     1224.662      968.496        0.154        0.142       15.017       23.044        2.355      343.184       19.117      866.147
10/12/2014  14:32:00       51.067       42.817       22.422       31.744       38.854       30.119     1007.677     1509.620      907.155        0.418        0.171       66.641       17.562        0.069      342.803       18.468      866.112
10/12/2014  14:33:00      -53.530       12.534       21.471       64.232       45.775       24.638     4125.690     2095.322      607.025        0.515        0.341       54.978       21.496        0.153      343.032       18.857      866.077
10/12/2014  14:34:00       41.617      106.014       -4.751       53.923       65.849       43.175     2907.702     4336.073     1864.072        1.105        0.455      113.890       44.210        0.151      342.846       18.543      866.079
10/12/2014  14:35:00      155.088      126.198       10.453       75.029       75.852       63.108     5629.330     5753.487     3982.584        2.772        0.768      199.945       37.317        0.035      343.153       19.062      866.064
10/12/2014  14:36:00      117.587      121.805        0.562      127.111       99.184       56.595    16157.200     9837.536     3203.048        2.893        1.460      169.302       17.596        0.011      342.992       18.787      866.104
10/12/2014  14:37:00      133.659      110.658       -4.987       92.237       62.479       54.295     8507.741     3903.604     2947.934        2.274        0.768      173.522       36.551        0.044      342.765       18.400      866.114
10/12/2014  14:38:00       51.231       79.851       38.347       51.842       64.948       53.423     2687.585     4218.259     2854.029        1.011        0.488       94.873       42.306        0.199      342.903       18.638      866.135
10/12/2014  14:39:00      111.853      103.768       87.356      110.225       78.262       64.910    12149.531     6125.003     4213.340        2.670        1.124      152.575       52.247        0.117      343.027       18.847      866.156
10/12/2014  14:40:00      119.714       90.879        4.335      100.432       79.617       56.547    10086.493     6338.902     3197.526        2.111        0.981      150.301       44.547        0.088      342.880       18.597      866.186
10/12/2014  14:41:00      178.083       67.702       26.764       96.528       70.736       48.783     9317.649     5003.517     2379.827        2.685        0.835      190.518       37.555        0.039      343.104       18.979      866.198
10/12/2014  14:42:00      207.226      147.408       27.219       80.220       70.742       59.725     6435.273     5004.405     3567.109        4.021        0.750      254.306       38.161        0.023      342.963       18.738      866.208
10/12/2014  14:43:00      129.832       97.975       47.116       69.765       57.192       47.790     4867.094     3270.956     2283.847        1.955        0.521      162.651       35.219        0.047      343.034       18.860      866.210
10/12/2014  14:44:00      135.921       83.765       42.458       82.086       50.940       46.364     6738.060     2594.843     2149.585        1.939        0.574      159.660       27.988        0.031      342.944       18.707      866.203
10/12/2014  14:45:00       63.116       95.502       -0.601       71.987       73.892       51.024     5182.181     5459.989     2603.416        1.317        0.662      114.474       46.135        0.162      342.913       18.655      866.183
10/12/2014  14:46:00      169.046       98.668       48.743      113.764       88.738       49.406    12942.164     7874.352     2440.930        3.197        1.163      195.735       16.029        0.007      342.874       18.586      866.144
10/12/2014  14:47:00       96.917      110.307       64.161       57.371       52.710       49.579     3291.443     2778.384     2458.039        1.710        0.426      146.835       32.758        0.050      342.863       18.570      866.140
10/12/2014  14:48:00      100.010      107.952       67.850       64.243       54.867       55.853     4127.185     3010.372     3119.543        1.826        0.513      147.158       44.614        0.092      342.625       18.165      866.121
10/12/2014  14:49:00       51.218       -6.888       30.100       36.438       42.846       35.429     1327.744     1835.799     1255.199        0.400        0.221       51.679       22.583        0.191      342.656       18.220      866.101
10/12/2014  14:50:00       74.075      -29.923       26.616       46.091       57.092       35.400     2124.364     3259.466     1253.186        0.686        0.332       79.891       36.592        0.210      342.488       17.933      866.071
10/12/2014  14:51:00       53.436       19.239       14.974       57.790       35.717       24.138     3339.713     1275.718      582.650        0.432        0.260       56.794       16.996        0.090      342.812       18.486      866.053
10/12/2014  14:52:00        8.136       66.582       -7.146       21.928       32.280       18.556      480.825     1042.022      344.308        0.321        0.093       67.077       15.551        0.054      342.917       18.663      866.035
10/12/2014  14:53:00       -0.980       33.174       -3.362       23.826       27.894       18.801      567.678      778.078      353.479        0.141        0.085       33.189       13.458        0.164      342.942       18.705      866.022
10/12/2014  14:54:00        4.768       18.464        4.047       17.672       27.206       20.788      312.307      740.189      432.127        0.093        0.074       19.070       15.005        0.619      342.952       18.724      866.006
10/12/2014  14:55:00        1.684        9.477       16.314       19.287       19.904       18.235      372.004      396.161      332.526        0.073        0.055        9.625       10.569        1.206      342.826       18.507      865.996
10/12/2014  14:56:00       42.773       46.989        7.079       30.442       19.143       22.398      926.694      366.473      501.686        0.294        0.090       63.542       11.114        0.031      342.629       18.173      865.982
10/12/2014  14:57:00       43.063       49.947       -5.131       22.436       46.749       21.121      503.377     2185.447      446.098        0.375        0.157       65.948       16.499        0.063      342.950       18.719      865.955
10/12/2014  14:58:00       22.886       70.509       13.820       43.822       66.366       34.995     1920.343     4404.472     1224.654        0.662        0.377       74.130       14.872        0.040      343.236       19.205      865.937
10/12/2014  14:59:00       70.322      140.011      -22.937       43.555       74.345       40.512     1897.014     5527.153     1641.206        1.707        0.453      156.679       44.135        0.079      342.999       18.801      865.929
10/12/2014  15:00:00       98.326      111.428        2.495       63.241       63.148       51.408     3999.456     3987.709     2642.804        1.636        0.531      148.608       38.311        0.066      342.894       18.622      865.926
10/12/2014  15:01:00       50.487      107.791       -8.993       39.478       48.043       36.110     1558.512     2308.113     1303.929        0.971        0.259      119.029       26.767        0.051      342.915       18.659      865.923
10/12/2014  15:02:00       21.791       67.706      -22.630       17.001       37.816       19.303      289.017     1430.051      372.607        0.383        0.105       71.126       15.517        0.048      342.815       18.490      865.908
10/12/2014  15:03:00       29.225        5.529       10.620       12.812       13.494       27.462      164.139      182.095      754.155        0.105        0.055       29.743       14.952        0.253      343.038       18.868      865.895
10/12/2014  15:04:00       41.508       39.445       14.193       18.824       21.528       28.091      354.337      463.455      789.083        0.254        0.080       57.261       14.876        0.067      342.711       18.312      865.889
10/12/2014  15:05:00       80.045       55.210       37.769       57.145       52.168       30.399     3265.551     2721.550      924.082        0.890        0.346       97.238       23.698        0.059      342.739       18.360      865.870
10/12/2014  15:06:00      133.481       87.207       32.886       69.680       52.368       39.973     4855.290     2742.376     1597.862        1.785        0.460      159.443       23.885        0.022      343.159       19.074      865.845
10/12/2014  15:07:00      -17.684       84.714      -19.251       87.641      110.631       40.089     7680.955    12239.171     1607.166        1.469        1.076       86.540       42.818        0.245      343.175       19.100      865.821
10/12/2014  15:08:00       25.589       44.338        2.693       61.148       78.522       27.345     3739.024     6165.729      747.745        0.664        0.533       51.193       30.490        0.355      343.199       19.143      865.802
10/12/2014  15:09:00       17.369       40.538       38.820       43.463       48.481       44.869     1888.998     2350.377     2013.259        0.485        0.313       44.103       24.193        0.301      342.892       18.621      865.793
10/12/2014  15:10:00       91.550       65.263       40.206      114.530       64.431       39.109    13117.213     4151.398     1529.511        1.652        0.940      112.430       36.424        0.105      343.296       19.306      865.793
10/12/2014  15:11:00      183.270      119.762       45.152       62.642       58.954       44.945     3924.014     3475.531     2020.086        2.969        0.471      218.931       26.717        0.015      343.135       19.030      865.795
10/12/2014  15:12:00      149.744       92.616       29.703       76.340       42.955       55.153     5827.751     1845.104     3041.846        2.130        0.536      176.071       34.506        0.038      343.201       19.145      865.786
10/12/2014  15:13:00       49.187      109.036        3.318       48.847       60.111       44.719     2386.048     3613.384     1999.767        1.116        0.400      119.617       37.360        0.098      343.295       19.306      865.783
10/12/2014  15:14:00      123.408       66.288       19.532       48.432       47.955       30.188     2345.695     2299.698      911.286        1.278        0.278      140.085       20.453        0.021      342.995       18.796      865.776
10/12/2014  15:15:00       15.904        9.751       30.091       32.323       33.668       30.282     1044.781     1133.552      916.972        0.217        0.155       18.656       22.046        1.396      343.106       18.985      865.752
10/12/2014  15:16:00       22.656       20.576       15.990       28.874       24.493       20.790      833.681      599.904      432.233        0.153        0.093       30.606        9.346        0.093      343.162       19.080      865.732
10/12/2014  15:17:00       34.867      158.898      -14.482       60.465       83.468       48.180     3655.979     6966.901     2321.335        1.981        0.647      162.679       53.303        0.107      343.242       19.212      865.714
10/12/2014  15:18:00       97.601      139.908       -1.895       69.057       95.422       49.413     4768.828     9105.356     2441.629        2.271        0.816      170.588       54.634        0.103      343.221       19.178      865.691
10/12/2014  15:19:00      120.792      184.095      -14.736       82.825      140.120       66.821     6859.962    19633.577     4465.032        3.982        1.548      220.185       76.295        0.120      343.274       19.268      865.694
10/12/2014  15:20:00       27.982       99.700       -9.285       61.395       67.799       39.917     3769.384     4596.751     1593.331        1.038        0.498      103.552       33.420        0.104      343.321       19.349      865.712
10/12/2014  15:21:00       29.593      211.586      -33.353       61.515      107.780       45.600     3784.036    11616.484     2079.348        3.212        0.874      213.645       63.014        0.087      343.253       19.231      865.711
10/12/2014  15:22:00      166.713      144.758       -0.178      120.618       73.427       46.975    14548.658     5391.482     2206.610        3.544        1.107      220.790       46.403        0.044      343.173       19.092      865.718
10/12/2014  15:23:00      123.701       73.716       19.457       59.666       40.201       34.307     3560.025     1616.110     1176.998        1.373        0.318      144.000       12.225        0.007      343.234       19.202      865.733
10/12/2014  15:24:00       88.678       49.285       20.843       75.760       49.768       46.572     5739.624     2476.860     2168.977        1.055        0.519      101.454       36.570        0.130      343.165       19.083      865.735
10/12/2014  15:25:00      -32.151       17.504      -10.356       56.264       27.195       20.284     3165.682      739.566      411.460        0.288        0.216       36.607       17.423        0.227      343.106       18.984      865.729
10/12/2014  15:26:00      -43.112        6.792       -8.309       39.886       30.916       26.602     1590.870      955.798      707.658        0.261        0.163       43.644       19.532        0.200      343.369       19.431      865.702
10/12/2014  15:27:00       19.595       20.865       17.193       24.585       19.550       19.854      604.435      382.186      394.190        0.125        0.069       28.624       14.238        0.247      343.443       19.558      865.683
10/12/2014  15:28:00       12.032       31.858       32.473       19.194       19.252       18.732      368.395      370.637      350.894        0.165        0.054       34.054       14.991        0.194      342.833       18.520      865.669
10/12/2014  15:29:00       28.602       45.470       -2.056       37.599       34.541       21.471     1413.650     1193.112      461.001        0.298        0.153       53.718       16.386        0.093      343.237       19.207      865.663
10/12/2014  15:30:00      158.229      124.673       22.333       95.748       69.966       48.085     9167.695     4895.286     2312.187        2.872        0.819      201.444       30.095        0.022      343.219       19.174      865.663
10/12/2014  15:31:00      145.199       85.273       20.695       83.999       62.282       47.573     7055.836     3879.063     2263.219        2.099        0.660      168.387       30.429        0.033      343.545       19.730      865.651
10/12/2014  15:32:00       67.057      142.888       -8.109       85.578       93.944       45.597     7323.652     8825.556     2079.055        2.160        0.911      157.840       46.017        0.085      343.460       19.586      865.659
10/12/2014  15:33:00      148.737      134.457       13.876       82.849       66.400       51.910     6863.965     4408.988     2694.650        2.718        0.698      200.503       37.730        0.035      343.243       19.215      865.656
10/12/2014  15:34:00       64.685      105.666       -2.920       59.230       73.698       43.186     3508.203     5431.338     1865.003        1.308        0.540      123.893       46.211        0.139      343.308       19.328      865.646
10/12/2014  15:35:00       56.319       90.946       11.464       65.434       81.120       51.889     4281.578     6580.378     2692.467        1.256        0.678      106.972       45.530        0.181      343.267       19.258      865.637
10/12/2014  15:36:00      156.182      157.426       -1.390      104.850       73.920       65.477    10993.517     5464.187     4287.176        3.496        1.037      221.756       49.059        0.049      343.232       19.196      865.638
10/12/2014  15:37:00       63.797       74.513        1.307       79.498       54.922       39.615     6320.004     3016.371     1569.355        1.026        0.545       98.093       42.244        0.185      343.398       19.480      865.661
10/12/2014  15:38:00      141.258       76.038        8.100       64.155       42.878       29.290     4115.886     1838.486      857.932        1.631        0.341      160.424       33.629        0.044      343.189       19.123      865.656
10/12/2014  15:39:00       25.183       75.573       12.560       52.059       81.626       38.262     2710.153     6662.725     1463.965        0.867        0.542       79.658       43.115        0.293      343.462       19.589      865.638
10/12/2014  15:40:00       23.418      101.157       -7.798       60.025       72.024       50.350     3602.971     5187.415     2535.106        1.108        0.566      103.832       49.214        0.225      343.539       19.721      865.631
10/12/2014  15:41:00      187.632      125.432       25.293       72.163       48.050       41.269     5207.453     2308.755     1703.128        3.040        0.461      225.697       21.959        0.009      343.230       19.192      865.625
10/12/2014  15:42:00        8.058       81.936       24.182       66.089       47.807       35.141     4367.791     2285.532     1234.909        0.762        0.394       82.331       36.803        0.200      343.529       19.704      865.602
10/12/2014  15:43:00      -14.282      133.298      -18.732       39.418       36.927       19.793     1553.763     1363.583      391.766        1.082        0.165      134.061       15.083        0.013      343.307       19.325      865.602
10/12/2014  15:44:00       26.921      215.301      -39.537       54.140       81.012       30.090     2931.152     6562.986      905.419        2.952        0.520      216.977       37.208        0.029      343.348       19.394      865.598
10/12/2014  15:45:00      -55.504      160.884      -13.920       61.507       63.302       44.674     3783.081     4007.137     1995.735        1.947        0.489      170.189       37.643        0.049      343.570       19.773      865.601
10/12/2014  15:46:00       -4.117      183.885      -11.065       89.100      102.554       58.620     7938.849    10517.237     3436.277        2.792        1.095      183.931       65.757        0.128      343.570       19.773      865.594
10/12/2014  15:47:00       67.420      193.037      -37.435       58.346      107.276       55.000     3404.236    11508.146     3025.010        3.057        0.897      204.472       56.632        0.077      343.436       19.544      865.582
10/12/2014  15:48:00      -17.725      155.613      -19.679       64.758       51.067       44.232     4193.662     2607.876     1956.482        1.684        0.438      156.619       26.035        0.028      343.471       19.607      865.566
10/12/2014  15:49:00       60.150      159.343       -4.651      108.686       55.996       41.832    11812.751     3135.589     1749.955        2.286        0.835      170.318       37.025        0.047      343.491       19.638      865.552
10/12/2014  15:50:00      159.779      108.406       12.269       65.602       53.922       44.500     4303.663     2907.585     1980.225        2.331        0.460      193.083       34.559        0.032      343.662       19.928      865.522
10/12/2014  15:51:00      150.900      125.091       11.571       73.342       38.012       45.767     5379.112     1444.887     2094.632        2.373        0.446      196.007       36.945        0.036      343.479       19.618      865.490
10/12/2014  15:52:00       48.585      116.623       -4.845       85.316       72.909       48.948     7278.820     5315.746     2395.941        1.549        0.750      126.338       39.061        0.096      343.691       19.979      865.464
10/12/2014  15:53:00       48.620      196.716      -13.576       79.268      126.194       68.229     6283.380    15924.950     4655.208        3.405        1.343      202.635       73.876        0.133      343.532       19.707      865.425
10/12/2014  15:54:00       46.411      119.429       -5.027       48.020       76.193       44.018     2305.904     5805.330     1937.574        1.324        0.502      128.130       40.346        0.099      343.432       19.538      865.404
10/12/2014  15:55:00       29.372       64.720       -0.080       49.869       57.330       32.874     2486.897     3286.774     1080.684        0.595        0.343       71.073       30.746        0.187      343.542       19.726      865.389
10/12/2014  15:56:00       44.506       95.131       13.193       81.068       63.451       50.823     6572.038     4026.074     2582.966        1.219        0.659      105.027       35.315        0.113      343.629       19.873      865.378
10/12/2014  15:57:00      165.904      102.757       29.143      100.095       66.142       45.319    10018.952     4374.829     2053.836        2.769        0.822      195.149       26.153        0.018      343.493       19.639      865.366
10/12/2014  15:58:00      129.213       89.900       55.309       73.302       66.367       62.157     5373.153     4404.612     3863.500        2.074        0.682      157.410       48.247        0.094      343.578       19.787      865.370
10/12/2014  15:59:00      125.580       99.320      109.060       90.686       81.245       64.557     8223.869     6600.742     4167.626        2.826        0.950      160.109       53.155        0.110      343.287       19.289      865.359
10/12/2014  16:00:00      102.907       34.451       57.912       80.794       85.588       70.589     6527.696     7325.355     4982.830        1.698        0.942      108.521       67.438        0.386      343.282       19.283      865.361
10/12/2014  16:01:00       81.810       18.453       29.995       69.010       45.058       35.311     4762.326     2030.204     1246.839        0.798        0.402       83.865       30.775        0.135      343.099       18.972      865.348
10/12/2014  16:02:00      110.694     -141.774      -12.970       68.603       86.257       55.433     4706.380     7440.264     3072.860        2.387        0.761      179.870       62.885        0.122      343.476       19.613      865.336
10/12/2014  16:03:00       64.097     -107.652       15.440       65.005      102.616       60.019     4225.684    10530.086     3602.262        1.714        0.918      125.289       62.137        0.246      343.481       19.623      865.336
10/12/2014  16:04:00       58.705      -37.829       26.866       39.177       65.865       31.729     1534.847     4338.151     1006.741        0.624        0.344       69.838       35.133        0.253      343.461       19.588      865.319
10/12/2014  16:05:00      115.087       91.545       45.799       75.666       74.186       53.578     5725.285     5503.589     2870.561        1.891        0.705      147.056       42.527        0.084      343.408       19.498      865.313
10/12/2014  16:06:00      217.248      127.695       26.573       59.846       42.543       46.434     3581.488     1809.908     2156.155        3.588        0.377      251.998       19.591        0.006      343.473       19.606      865.304
10/12/2014  16:07:00      106.211      127.670       -5.420       94.421       85.128       66.568     8915.394     7246.818     4431.346        2.410        1.030      166.074       52.070        0.098      343.505       19.661      865.279
10/12/2014  16:08:00      119.952      147.724        7.934      100.853       68.489       61.039    10171.244     4690.811     3725.780        2.743        0.929      190.292       50.792        0.071      343.538       19.718      865.262
10/12/2014  16:09:00      209.714      150.046       12.277       95.984       73.510       48.059     9212.982     5403.679     2309.709        4.178        0.846      257.864       24.226        0.009      343.518       19.684      865.244
10/12/2014  16:10:00       46.254       99.145       -7.156       68.619       59.817       34.864     4708.506     3578.115     1215.472        1.076        0.475      109.404       17.150        0.025      343.621       19.861      865.234
10/12/2014  16:11:00       39.403       99.298      -10.159       50.113       70.621       45.842     2511.324     4987.350     2101.503        1.056        0.480      106.830       37.022        0.120      343.637       19.888      865.223
10/12/2014  16:12:00       54.404      190.104      -14.060       64.924       80.938       51.130     4215.097     6550.976     2614.318        2.634        0.669      197.736       44.866        0.051      343.604       19.829      865.217
10/12/2014  16:13:00       58.024      190.096      -20.955       88.017       57.304       45.115     7747.049     3283.781     2035.361        2.650        0.653      198.755       36.452        0.034      343.616       19.850      865.208
10/12/2014  16:14:00        2.902      124.377       -4.508       52.866      113.567       38.244     2794.804    12897.479     1462.574        1.632        0.858      124.411       45.144        0.132      343.733       20.050      865.219
10/12/2014  16:15:00       23.437       13.076       21.258       49.793       46.896       28.821     2479.324     2199.250      830.672        0.334        0.275       26.838       30.601        1.300      343.412       19.505      865.233
10/12/2014  16:16:00      139.823       86.429       28.000       82.870       42.720       57.487     6867.504     1824.984     3304.800        1.990        0.600      164.379       24.992        0.023      343.434       19.541      865.245
10/12/2014  16:17:00       11.511        0.386        7.076       36.333       41.380       33.143     1320.086     1712.323     1098.458        0.216        0.207       11.518       18.121        2.475      343.475       19.613      865.261
10/12/2014  16:18:00       33.746       -9.051       10.839       23.908       14.838       22.246      571.603      220.180      494.880        0.131        0.064       34.939       11.714        0.112      343.471       19.607      865.257
10/12/2014  16:19:00       42.806       50.572       13.203       38.664       38.216       26.421     1494.899     1460.479      698.068        0.411        0.183       66.256       22.060        0.111      343.543       19.729      865.240
10/12/2014  16:20:00       69.320       55.070       18.523       76.166       52.706       33.004     5801.266     2777.972     1089.290        0.892        0.483       88.532       24.530        0.077      343.711       20.015      865.211
10/12/2014  16:21:00       72.089      208.760      -26.428       61.568      101.879       57.489     3790.647    10379.376     3305.005        3.347        0.874      220.857       63.960        0.084      343.500       19.653      865.198
10/12/2014  16:22:00       38.323      207.987      -27.284       40.642       74.330       38.971     1651.761     5524.981     1518.731        2.708        0.435      211.488       41.742        0.039      343.464       19.591      865.188
10/12/2014  16:23:00       33.524      151.475      -22.128       63.119       58.405       39.539     3983.991     3411.131     1563.358        1.676        0.448      155.140       35.886        0.054      343.567       19.768      865.191
10/12/2014  16:24:00       51.858       42.661        3.115       69.820       58.514       31.188     4874.846     3423.917      972.678        0.689        0.464       67.151       30.266        0.203      343.617       19.854      865.183
10/12/2014  16:25:00       -8.070      176.267      -33.723       49.643       43.547       21.466     2464.440     1896.330      460.803        1.855        0.241      176.452       20.515        0.014      343.542       19.726      865.190
10/12/2014  16:26:00      -20.685      149.849      -21.568       25.656       35.740       18.267      658.255     1277.376      333.683        1.281        0.113      151.270       18.720        0.015      343.650       19.910      865.190
10/12/2014  16:27:00       33.661      101.160       -5.417       48.216       49.130       31.415     2324.830     2413.737      986.904        0.856        0.286      106.613       18.934        0.032      343.689       19.976      865.199
10/12/2014  16:28:00       95.829       93.524        0.318       62.045       42.742       38.505     3849.575     1826.854     1482.641        1.254        0.358      133.902       35.475        0.070      343.585       19.800      865.200
10/12/2014  16:29:00       70.060      171.743      -20.932       63.444       85.861       53.767     4025.179     7372.123     2890.875        2.456        0.714      185.484       53.328        0.083      343.598       19.821      865.194
10/12/2014  16:30:00       14.629      113.921      -11.048       29.744       82.479       28.579      884.677     6802.821      816.750        1.091        0.425      114.856       39.463        0.118      343.609       19.840      865.197
10/12/2014  16:31:00       24.884      182.876      -26.609       53.371       56.927       39.125     2848.415     3240.686     1530.761        2.119        0.381      184.561       37.479        0.041      343.571       19.775      865.208
10/12/2014  16:32:00       44.395      159.773      -13.235       51.427       73.063       43.830     2644.686     5338.259     1921.082        1.879        0.495      165.826       45.155        0.074      343.566       19.764      865.209
10/12/2014  16:33:00       33.583      111.319       -1.286       38.259       73.929       42.240     1463.765     5465.513     1784.200        1.112        0.436      116.274       45.178        0.151      343.549       19.737      865.217
10/12/2014  16:34:00        8.635      134.816      -15.589       40.317       43.494       30.281     1625.485     1891.738      916.923        1.146        0.222      135.092       25.714        0.036      343.648       19.907      865.223
10/12/2014  16:35:00       26.258       48.599        1.078       27.438       44.732       29.643      752.826     2000.971      878.683        0.334        0.182       55.239       26.361        0.228      343.608       19.839      865.225
10/12/2014  16:36:00       53.175       42.138        5.796       65.093       43.839       23.862     4237.149     1921.827      569.382        0.568        0.336       67.847       20.425        0.091      343.584       19.798      865.223
10/12/2014  16:37:00      145.849      122.951       25.985       89.934       57.707       57.485     8088.200     3330.156     3304.502        2.589        0.736      190.759       38.790        0.041      343.618       19.854      865.215
10/12/2014  16:38:00      192.580      137.010       30.887       82.794       67.273       73.391     6854.840     4525.626     5386.284        3.679        0.838      236.345       52.463        0.049      343.676       19.951      865.207
10/12/2014  16:39:00      190.742      143.392       33.255       85.605       66.793       51.810     7328.285     4461.239     2684.235        3.626        0.724      238.629       34.116        0.020      343.697       19.988      865.191
10/12/2014  16:40:00      131.364       91.829       53.160       70.011       61.512       57.213     4901.554     3783.694     3273.306        2.023        0.598      160.278        8.023        0.003      343.630       19.875      865.174
10/12/2014  16:41:00      131.841       60.786       21.177       47.430       42.943       35.442     2249.615     1844.094     1256.108        1.344        0.267      145.180       25.500        0.031      343.594       19.815      865.163
10/12/2014  16:42:00      155.841       72.620       38.475       82.132       58.449       60.966     6745.709     3416.241     3716.845        2.246        0.694      171.930       40.595        0.056      343.664       19.933      865.142
10/12/2014  16:43:00      112.743       83.481       13.840       86.025       48.652       41.631     7400.377     2367.062     1733.140        1.568        0.575      140.286       30.096        0.046      343.670       19.943      865.121
10/12/2014  16:44:00      115.301       80.721       12.812      103.197       61.903       58.548    10649.581     3831.979     3427.857        1.894        0.895      140.748       38.242        0.074      343.709       20.009      865.102
10/12/2014  16:45:00       88.323       73.543       19.186       83.665       55.881       58.935     6999.889     3122.720     3473.290        1.358        0.680      114.933       39.688        0.119      343.661       19.930      865.089
10/12/2014  16:46:00       83.820       46.701       35.503       91.753       66.317       51.283     8418.549     4397.899     2629.954        1.295        0.772       95.952       36.386        0.144      343.547       19.735      865.070
10/12/2014  16:47:00       75.938      102.046        6.165       84.645       80.951       53.437     7164.846     6553.076     2855.530        1.639        0.829      127.200       47.209        0.138      343.768       20.111      865.060
10/12/2014  16:48:00      130.815       99.069       19.587       85.000       61.726       42.549     7225.070     3810.056     1810.410        2.008        0.642      164.095       26.794        0.027      343.718       20.024      865.047
10/12/2014  16:49:00      107.958       89.804       76.031       84.003       55.146       65.885     7056.491     3041.033     4340.897        1.997        0.722      140.427       54.032        0.148      343.602       19.828      865.032
10/12/2014  16:50:00       63.147       79.290       50.769       62.577       59.403       44.970     3915.832     3528.753     2022.312        1.116        0.473      101.363       20.180        0.040      343.609       19.840      865.019
10/12/2014  16:51:00       89.371       74.779       24.897       91.165       56.802       44.635     8311.126     3226.445     1992.254        1.386        0.676      116.529       33.474        0.083      343.738       20.060      865.024
10/12/2014  16:52:00      130.144      105.408       -9.051       78.176       56.616       50.484     6111.410     3205.324     2548.636        2.000        0.593      167.476       30.899        0.034      343.698       19.991      865.020
10/12/2014  16:53:00      144.118       81.229       19.072       64.088       48.729       44.136     4107.287     2374.526     1947.945        1.808        0.421      165.433       25.229        0.023      343.726       20.039      865.026
10/12/2014  16:54:00       76.648       52.063       29.184       60.292       40.066       34.024     3635.081     1605.318     1157.659        0.792        0.320       92.657       32.633        0.124      343.571       19.777      865.024
10/12/2014  16:55:00       43.355      189.928      -19.375       63.589      115.328       52.112     4043.546    13300.554     2715.687        2.919        1.003      194.814       57.046        0.086      343.689       19.975      865.017
10/12/2014  16:56:00       92.862      112.383       -0.471       98.151       94.016       50.054     9633.646     8838.928     2505.372        2.111        1.049      145.785       52.521        0.130      343.739       20.062      865.004
10/12/2014  16:57:00       53.390      236.187      -37.390       59.489       99.371       57.579     3538.887     9874.506     3315.343        3.838        0.836      242.147       64.973        0.072      343.611       19.841      864.998
10/12/2014  16:58:00       73.010       79.897       16.117       65.357       58.227       52.550     4271.566     3390.397     2761.482        1.120        0.521      108.231       39.928        0.136      343.680       19.962      865.008
10/12/2014  16:59:00      131.288       82.486       53.405       78.688       52.843       45.756     6191.739     2792.339     2093.608        1.898        0.554      155.050       26.319        0.029      343.658       19.922      865.007
10/12/2014  17:00:00      119.131       98.935       20.608      101.611       80.926       55.321    10324.831     6548.988     3060.429        2.217        0.997      154.856       34.094        0.048      343.645       19.900      865.025
10/12/2014  17:01:00      109.714      146.169       -3.943       84.805       80.254       55.251     7191.950     6440.642     3052.670        2.505        0.834      182.764       53.026        0.084      343.721       20.030      865.036
10/12/2014  17:02:00       99.765      105.563        5.967       93.049       83.431       61.588     8658.147     6960.655     3793.120        2.027        0.971      145.247       46.366        0.102      343.696       19.989      865.027
10/12/2014  17:03:00      135.854       73.072       30.224      108.481       79.195       60.066    11768.112     6271.900     3607.875        2.318        1.082      154.259       41.197        0.071      343.632       19.877      865.045
10/12/2014  17:04:00      226.830      122.897       48.092       69.830       66.242       55.141     4876.298     4388.043     3040.516        4.058        0.615      257.984       40.300        0.024      343.624       19.861      865.049
10/12/2014  17:05:00      141.254       78.260       71.821       91.328       86.016       65.691     8340.866     7398.785     4315.363        2.564        1.003      161.485       41.048        0.065      343.493       19.641      865.052
10/12/2014  17:06:00      167.890      117.769       61.128       83.538       75.907       46.487     6978.615     5761.914     2161.044        3.034        0.745      205.077       36.952        0.032      343.559       19.752      865.057
10/12/2014  17:07:00      171.063       99.266       31.529       91.772       89.816       66.767     8422.086     8066.953     4457.861        3.053        1.047      197.779       39.546        0.040      343.524       19.694      865.050
10/12/2014  17:08:00      146.917      106.536       22.881       67.257       43.216       39.433     4523.443     1867.655     1554.930        2.070        0.397      181.479       20.687        0.013      343.572       19.776      865.052
10/12/2014  17:09:00      103.013       54.910       34.990       52.234       41.235       34.649     2728.426     1700.303     1200.537        1.024        0.281      116.734       10.928        0.009      343.432       19.540      865.046
10/12/2014  17:10:00       68.174       44.153        4.956       37.183       44.511       31.317     1382.541     1981.257      980.724        0.548        0.217       81.223       21.809        0.072      343.647       19.905      865.053
10/12/2014  17:11:00       37.716      112.609       -4.086       51.746       73.654       37.048     2677.687     5424.982     1372.569        1.180        0.474      118.757       38.890        0.107      343.710       20.014      865.061
10/12/2014  17:12:00       21.672       74.892       11.315       47.567       73.599       36.614     2262.667     5416.764     1340.550        0.761        0.451       77.965       36.010        0.213      343.768       20.111      865.060
10/12/2014  17:13:00       54.644      159.038       -9.389       56.783       90.470       56.692     3224.261     8184.776     3214.039        2.149        0.731      168.164       57.425        0.117      343.667       19.937      865.053
10/12/2014  17:14:00       97.172      115.909       14.695       87.310       62.080       51.903     7623.034     3853.883     2693.962        1.863        0.709      151.253       43.542        0.083      343.667       19.938      865.042
10/12/2014  17:15:00       95.451      112.522        9.755       60.879       76.950       56.095     3706.270     5921.301     3146.694        1.732        0.639      147.554       44.299        0.090      343.623       19.863      865.028
10/12/2014  17:16:00       81.904      123.978       -3.012       80.917       86.139       63.257     6547.534     7419.848     4001.500        2.003        0.898      148.590       59.851        0.162      343.561       19.758      865.018
10/12/2014  17:17:00       32.433      204.773      -18.868       56.072       99.779       61.569     3144.100     9955.770     3790.714        3.011        0.845      207.326       63.007        0.092      343.528       19.700      865.013
10/12/2014  17:18:00       72.658      151.111      -17.074       68.082       96.786       56.749     4635.167     9367.490     3220.400        2.281        0.861      167.671       51.051        0.093      343.554       19.745      865.016
10/12/2014  17:19:00       59.298      163.651      -11.840       65.820       94.667       49.319     4332.302     8961.789     2432.362        2.308        0.786      174.063       50.686        0.085      343.568       19.769      865.010
10/12/2014  17:20:00       54.323      101.608       -2.281       56.918       62.289       42.313     3239.670     3879.932     1790.419        1.109        0.446      115.218       30.866        0.072      343.611       19.844      865.005
10/12/2014  17:21:00       43.009       64.092        2.836       48.129       49.083       31.525     2316.386     2409.188      993.805        0.584        0.286       77.185       20.625        0.071      343.612       19.845      864.994
10/12/2014  17:22:00       61.925       88.977       -2.104       54.967       76.303       44.582     3021.344     5822.107     1987.543        1.129        0.542      108.405       42.644        0.155      343.596       19.818      864.990
10/12/2014  17:23:00       26.047       88.109       12.808       41.603       82.024       49.763     1730.825     6727.936     2476.313        0.977        0.547       91.878       53.690        0.341      343.653       19.916      864.981
10/12/2014  17:24:00       55.356      146.036       -1.738       72.253       68.539       47.353     5220.568     4697.654     2242.300        1.828        0.608      156.175       40.952        0.069      343.618       19.855      864.985
10/12/2014  17:25:00      192.915      137.542       20.728       65.658       52.832       44.284     4311.013     2791.220     1961.077        3.281        0.453      236.926       32.401        0.019      343.563       19.761      864.992
10/12/2014  17:26:00       73.361       50.975       10.748       65.669       45.097       31.626     4312.427     2033.773     1000.192        0.772        0.367       89.332        8.981        0.010      343.544       19.729      864.986
10/12/2014  17:27:00       57.138       84.577        3.300       52.653       46.487       34.431     2772.350     2161.010     1185.471        0.827        0.306      102.069       25.387        0.062      343.576       19.785      864.977
10/12/2014  17:28:00       62.318       87.539       -2.280       65.181       66.683       38.120     4248.541     4446.599     1453.132        1.085        0.507      107.455       32.182        0.090      343.575       19.783      864.963
10/12/2014  17:29:00       69.286       54.053       18.477       47.370       38.138       38.291     2243.912     1454.521     1466.238        0.661        0.258       87.876       18.836        0.046      343.523       19.695      864.962
10/12/2014  17:30:00      108.686       80.004       23.256       55.312       48.588       49.607     3059.371     2360.831     2460.837        1.332        0.394      134.957       28.739        0.045      343.442       19.556      864.969
10/12/2014  17:31:00      147.815       91.094       20.966       67.032       52.883       41.744     4493.305     2796.617     1742.531        1.981        0.452      173.630       17.450        0.010      343.528       19.702      864.981
10/12/2014  17:32:00      139.273       95.263       45.770       62.454       46.862       41.873     3900.560     2196.010     1753.350        1.921        0.392      168.736       19.395        0.013      343.527       19.698      864.974
10/12/2014  17:33:00      122.550       84.036       11.943       70.293       47.394       40.167     4941.151     2246.217     1613.356        1.551        0.440      148.595       24.326        0.027      343.504       19.660      864.993
10/12/2014  17:34:00       88.427       77.052        6.732       58.993       63.729       50.595     3480.137     4061.327     2559.815        1.195        0.505      117.288       35.901        0.094      343.532       19.709      865.003
10/12/2014  17:35:00       80.204      167.705      -13.895       91.157       78.090       54.844     8309.646     6097.974     3007.847        2.608        0.871      185.897       45.654        0.060      343.508       19.666      864.996
10/12/2014  17:36:00       97.135      118.098       10.072       80.387       70.891       51.272     6462.076     5025.474     2628.793        1.880        0.706      152.913       32.561        0.045      343.482       19.624      864.988
10/12/2014  17:37:00      206.812      145.852       14.642       86.131       65.269       66.045     7418.526     4259.992     4361.974        4.015        0.802      253.069       29.419        0.014      343.513       19.675      864.983
10/12/2014  17:38:00      131.861       85.306       30.748       67.757       60.192       43.810     4591.022     3623.047     1919.325        1.787        0.507      157.049       34.816        0.049      343.462       19.588      864.986
10/12/2014  17:39:00      153.251       81.596       59.072       95.698       64.670       50.722     9158.039     4182.232     2572.751        2.477        0.796      173.619       34.332        0.039      343.394       19.474      864.987
10/12/2014  17:40:00      163.484       76.792       28.875       68.951       71.380       45.445     4754.192     5095.080     2065.245        2.268        0.596      180.621       29.960        0.028      343.405       19.491      864.986
10/12/2014  17:41:00      172.535      111.361       51.411       66.300       48.019       47.817     4395.728     2305.854     2286.493        2.690        0.449      205.352       28.052        0.019      343.466       19.595      865.001
10/12/2014  17:42:00      120.960       42.125       14.147       46.995       59.213       36.947     2208.541     3506.215     1365.068        1.184        0.354      128.085       29.611        0.053      343.097       18.968      865.016
10/12/2014  17:43:00       91.820       63.304       48.412       64.475       49.809       37.666     4156.970     2480.944     1418.703        1.142        0.403      111.527       28.821        0.067      343.071       18.926      865.025
10/12/2014  17:44:00      146.095       89.243       37.811       57.058       41.529       40.541     3255.661     1724.675     1643.540        1.868        0.331      171.196       27.684        0.026      343.410       19.502      865.039
10/12/2014  17:45:00      101.896       65.579       10.149       59.443       47.682       38.643     3533.453     2273.576     1493.246        1.104        0.365      121.175       30.177        0.062      343.402       19.488      865.070
10/12/2014  17:46:00      203.115      118.275       29.193      118.901       76.687       45.346    14137.342     5880.944     2056.294        3.908        1.104      235.041       45.189        0.037      343.367       19.427      865.089
10/12/2014  17:47:00      191.943      124.658       27.591       78.566       66.683       55.751     6172.634     4446.668     3108.129        3.343        0.686      228.871       32.378        0.020      343.392       19.469      865.096
10/12/2014  17:48:00      178.121      116.072       32.837       65.997       44.004       51.713     4355.540     1936.330     2674.197        2.762        0.448      212.603       28.210        0.018      343.380       19.447      865.113
10/12/2014  17:49:00      228.414      158.370       15.794       92.164       59.178       50.886     8494.205     3502.009     2589.354        4.604        0.729      277.946       25.602        0.008      343.425       19.525      865.124
10/12/2014  17:50:00      161.686      116.875       30.860       66.311       47.926       40.191     4397.115     2296.910     1615.354        2.453        0.415      199.505       25.752        0.017      343.397       19.476      865.137
10/12/2014  17:51:00      101.864       67.417       28.787       41.646       31.809       34.116     1734.417     1011.837     1163.927        0.983        0.196      122.153       20.673        0.029      343.301       19.316      865.152
10/12/2014  17:52:00      117.611       53.516       37.899       62.783       41.361       41.553     3941.748     1710.772     1726.652        1.275        0.369      129.214       20.774        0.026      343.192       19.131      865.159
10/12/2014  17:53:00       93.106       70.677       37.728       66.949       42.959       45.825     4482.146     1845.456     2099.912        1.176        0.421      116.893       32.547        0.078      342.935       18.692      865.156
10/12/2014  17:54:00      117.961       47.599       19.099       60.123       56.206       40.614     3614.783     3159.066     1649.509        1.248        0.421      127.203       19.519        0.024      342.993       18.791      865.140
10/12/2014  17:55:00      171.631       78.677       45.575       68.059       63.985       49.424     4632.037     4094.051     2442.773        2.444        0.558      188.805       30.462        0.026      343.106       18.981      865.124
10/12/2014  17:56:00      147.915       94.787       23.500       51.469       57.783       39.589     2649.009     3338.835     1567.283        1.948        0.378      175.680       25.529        0.021      343.160       19.074      865.121
10/12/2014  17:57:00      131.606       79.281       45.884       99.018       73.953       48.348     9804.617     5469.100     2337.501        2.166        0.881      153.641       36.556        0.057      343.078       18.933      865.116
10/12/2014  17:58:00      162.509       97.420       53.772       63.814       55.219       48.387     4072.229     3049.104     2341.317        2.413        0.473      189.472       27.956        0.022      343.084       18.943      865.119
10/12/2014  17:59:00      142.368       86.487       16.767       94.955       71.028       47.776     9016.433     5045.040     2282.552        2.218        0.817      166.579       37.506        0.051      343.068       18.917      865.130
10/12/2014  18:00:00      138.355      101.110       44.784       67.013       60.236       48.381     4490.688     3628.432     2340.712        2.091        0.523      171.363       20.865        0.015      343.049       18.884      865.122
10/12/2014  18:01:00       63.971       42.980       35.874       65.215       50.659       38.187     4252.931     2566.380     1458.282        0.775        0.414       77.069       35.449        0.212      342.905       18.643      865.106
10/12/2014  18:02:00      154.471      109.563       49.324       78.514       66.966       52.002     6164.429     4484.489     2704.226        2.582        0.668      189.382       23.288        0.015      342.888       18.610      865.094
10/12/2014  18:03:00      125.586       78.239       28.277       64.771       63.891       46.237     4195.267     4082.000     2137.897        1.655        0.521      147.963       37.056        0.063      342.862       18.568      865.092
10/12/2014  18:04:00      150.733      111.171       63.608       65.879       72.568       51.307     4340.066     5266.087     2632.373        2.568        0.612      187.295       22.229        0.014      342.851       18.547      865.081
10/12/2014  18:05:00      219.527      113.044       24.598      104.270       68.932       63.178    10872.286     4751.637     3991.419        4.059        0.981      246.923       43.304        0.031      342.879       18.594      865.074
10/12/2014  18:06:00      148.421       64.444       34.593       78.671       61.370       54.692     6189.072     3766.230     2991.175        2.016        0.647      161.808       41.370        0.065      342.894       18.620      865.082
10/12/2014  18:07:00      114.172      108.558       62.759       85.146       80.034       62.846     7249.805     6405.409     3949.633        2.318        0.880      157.544       49.844        0.100      342.690       18.275      865.072
10/12/2014  18:08:00      152.957       69.119       42.063       97.198       79.519       69.592     9447.407     6323.208     4842.981        2.527        1.031      167.849       45.228        0.073      342.711       18.309      865.060
10/12/2014  18:09:00      154.700       92.592       43.420       93.330       74.420       56.859     8710.540     5538.295     3232.933        2.593        0.874      180.293       43.665        0.059      342.698       18.287      865.062
10/12/2014  18:10:00      211.568      126.523       34.448       95.491       62.329       55.854     9118.565     3884.917     3119.658        3.904        0.806      246.514       38.970        0.025      342.827       18.507      865.042
10/12/2014  18:11:00      102.732       78.497       44.701       65.298       45.648       40.961     4263.856     2083.750     1677.830        1.337        0.401      129.289       25.185        0.038      342.689       18.273      865.038
10/12/2014  18:12:00      118.939       68.585       58.412       75.469       57.330       43.572     5695.621     3286.724     1898.536        1.657        0.544      137.297       24.913        0.033      342.614       18.145      865.044
10/12/2014  18:13:00      215.486      128.642       78.588      115.203       85.284       84.576    13271.660     7273.313     7153.170        4.842        1.385      250.964       72.307        0.083      342.834       18.518      865.047
10/12/2014  18:14:00      178.149      119.709       89.219      109.201       79.666       71.549    11924.836     6346.711     5119.286        3.871        1.170      214.633       62.431        0.085      342.749       18.374      865.059
10/12/2014  18:15:00      162.304      104.333       47.752      108.736       83.214       71.997    11823.509     6924.587     5183.524        3.172        1.197      192.946       19.078        0.010      342.814       18.485      865.069
10/12/2014  18:16:00      198.688       97.575       25.609      101.376       81.604       58.178    10277.137     6659.175     3384.640        3.498        1.016      221.354       15.293        0.005      342.780       18.427      865.058
10/12/2014  18:17:00      205.465      132.753       45.833      105.208       97.658       62.846    11068.657     9537.110     3949.603        4.324        1.228      244.621       43.603        0.032      342.727       18.336      865.066
10/12/2014  18:18:00      173.531       91.733       25.888       86.647       72.678       54.795     7507.674     5282.160     3002.490        2.749        0.790      196.285       38.991        0.039      342.656       18.216      865.096
10/12/2014  18:19:00      220.788      130.666       51.786       78.181       90.025       59.171     6112.225     8104.587     3501.223        4.311        0.886      256.556       38.936        0.023      342.784       18.432      865.118
10/12/2014  18:20:00      151.408       89.774       38.482       69.112       71.814       50.245     4776.469     5157.183     2524.548        2.246        0.623      176.022       22.186        0.016      342.709       18.306      865.142
10/12/2014  18:21:00      120.466       76.211       23.471       62.049       52.042       40.471     3850.068     2708.416     1637.872        1.453        0.410      142.549       35.034        0.060      342.580       18.088      865.159
10/12/2014  18:22:00      153.451       73.806       14.596       73.681       54.575       46.929     5428.962     2978.383     2202.347        1.991        0.530      170.278       20.036        0.014      342.646       18.198      865.175
10/12/2014  18:23:00      118.585      101.500        4.263       77.245       63.086       49.985     5966.738     3979.795     2498.494        1.841        0.622      156.092       21.847        0.020      342.670       18.241      865.197
10/12/2014  18:24:00      122.656       79.634       13.880       48.572       35.676       28.964     2359.278     1272.751      838.910        1.302        0.224      146.240       22.269        0.023      342.565       18.064      865.229
10/12/2014  18:25:00      120.018      110.034       13.826       56.288       50.435       40.238     3168.317     2543.639     1619.135        1.702        0.367      162.825       25.956        0.025      342.558       18.051      865.250
10/12/2014  18:26:00      198.060      134.779       39.795       67.580       57.516       55.283     4567.029     3308.099     3056.155        3.495        0.547      239.568       38.193        0.025      342.583       18.092      865.287
10/12/2014  18:27:00      182.838      139.092       21.779       92.388       58.648       58.242     8535.577     3439.575     3392.081        3.431        0.768      229.731       46.120        0.040      342.588       18.099      865.314
10/12/2014  18:28:00      155.913       91.847       38.867       92.343       57.103       49.148     8527.309     3260.734     2415.502        2.423        0.710      180.955       29.924        0.027      342.469       17.898      865.345
10/12/2014  18:29:00      198.038      130.084       33.094      115.902       72.181       67.639    13433.233     5210.043     4575.095        4.022        1.161      236.940       42.835        0.033      342.553       18.042      865.377
10/12/2014  18:30:00      163.188      132.390       30.669       69.380       62.239       60.184     4813.590     3873.649     3622.149        2.870        0.615      210.136       44.209        0.044      342.558       18.050      865.393
10/12/2014  18:31:00       99.401      113.204        3.552       74.555       60.260       46.399     5558.451     3631.247     2152.832        1.702        0.567      150.651       36.833        0.060      342.482       17.920      865.404
10/12/2014  18:32:00       44.884      128.749       -6.617       63.653       87.690       48.465     4051.756     7689.620     2348.847        1.636        0.705      136.348       54.257        0.158      342.436       17.843      865.426
10/12/2014  18:33:00       46.415      120.634       -4.738       51.771       62.125       47.079     2680.278     3859.547     2216.465        1.274        0.438      129.255       38.279        0.088      342.406       17.792      865.434
10/12/2014  18:34:00       49.040      112.160        0.462       54.666       87.576       44.052     2988.331     7669.540     1940.597        1.379        0.630      122.412       45.799        0.140      342.400       17.780      865.441
10/12/2014  18:35:00       39.996       86.235        2.200       51.806       83.039       46.957     2683.819     6895.522     2204.938        1.041        0.589       95.058       45.281        0.227      342.347       17.692      865.441
10/12/2014  18:36:00       43.313      107.258       10.658       47.668       52.845       42.184     2272.229     2792.585     1779.529        1.017        0.342      115.673       31.250        0.073      342.275       17.571      865.438
10/12/2014  18:37:00       71.019      133.503        7.318       82.835       88.772       52.945     6861.614     7880.526     2803.172        2.023        0.877      151.218       52.423        0.120      342.255       17.535      865.442
10/12/2014  18:38:00       81.217       81.020        8.370       71.815       51.700       45.012     5157.402     2672.839     2026.094        1.154        0.493      114.719       30.736        0.072      342.221       17.479      865.453
10/12/2014  18:39:00       48.949      129.711       -6.166       45.230       67.566       48.261     2045.751     4565.221     2329.137        1.410        0.447      138.639       47.213        0.116      342.227       17.486      865.459
10/12/2014  18:40:00       35.767      127.771      -10.555       43.740      102.939       39.568     1913.205    10596.398     1565.626        1.589        0.704      132.683       45.172        0.116      342.181       17.409      865.474
10/12/2014  18:41:00       43.749      112.168       -8.455       53.714       67.868       46.959     2885.200     4606.074     2205.154        1.213        0.485      120.398       44.831        0.139      342.159       17.374      865.469
10/12/2014  18:42:00       37.963      112.324       -8.164       39.509       62.510       37.425     1560.994     3907.453     1400.619        1.050        0.343      118.566       39.918        0.113      342.125       17.315      865.478
10/12/2014  18:43:00       40.402      120.485       -3.328       60.986       64.312       47.979     3719.334     4136.080     2301.940        1.316        0.508      127.079       41.079        0.104      342.141       17.343      865.477
10/12/2014  18:44:00       55.399       63.568       22.253       68.333       38.687       33.619     4669.417     1496.707     1130.218        0.745        0.365       84.320       27.901        0.109      342.110       17.290      865.500
10/12/2014  18:45:00       17.056      100.158       -9.777       36.854       55.164       27.664     1358.227     3043.070      765.323        0.779        0.258      101.600       30.205        0.088      342.055       17.198      865.521
10/12/2014  18:46:00       46.560      154.996      -17.907       53.844       83.094       44.478     2899.186     6904.644     1978.280        1.915        0.589      161.839       42.078        0.068      342.097       17.268      865.534
10/12/2014  18:47:00       53.116       74.611       18.234       58.591       48.255       35.216     3432.896     2328.521     1240.160        0.786        0.350       91.587       30.324        0.110      342.091       17.258      865.545
10/12/2014  18:48:00       20.160      131.191      -22.948       47.720       50.326       33.469     2277.167     2532.753     1120.178        1.204        0.297      132.731       33.695        0.064      342.104       17.279      865.558
10/12/2014  18:49:00       16.164      153.005       -9.711       63.710       77.487       45.047     4059.015     6004.299     2029.239        1.793        0.605      153.856       44.733        0.085      342.100       17.271      865.562
10/12/2014  18:50:00       -7.750      126.626       -4.668       59.649       68.572       41.467     3557.964     4702.127     1719.485        1.305        0.499      126.863       38.860        0.094      342.066       17.214      865.567
10/12/2014  18:51:00        9.458      147.507      -11.698       47.278       61.011       32.004     2235.183     3722.330     1024.247        1.448        0.349      147.810       34.312        0.054      342.127       17.319      865.578
10/12/2014  18:52:00        9.013      158.396      -13.509       29.948       62.994       32.713      896.870     3968.285     1070.165        1.564        0.297      158.652       36.477        0.053      342.085       17.247      865.571
10/12/2014  18:53:00       15.680      129.757      -11.134       27.394       42.122       30.702      750.442     1774.275      942.587        1.034        0.173      130.701       24.339        0.035      342.091       17.258      865.583
10/12/2014  18:54:00       23.385      132.073      -15.920       48.109       54.830       42.911     2314.437     3006.315     1841.342        1.270        0.358      134.127       36.142        0.073      342.082       17.242      865.580
10/12/2014  18:55:00       14.294      118.341      -15.709       32.203       35.838       24.365     1037.024     1284.383      593.648        0.868        0.146      119.201       20.616        0.030      342.030       17.155      865.575
10/12/2014  18:56:00        6.355      152.609      -24.881       21.423       23.170       13.365      458.958      536.863      178.620        1.256        0.059      152.741        8.381        0.003      342.065       17.213      865.576
10/12/2014  18:57:00      -28.268      140.041      -20.518       45.282       37.470       22.060     2050.448     1404.021      486.623        1.239        0.197      142.866       19.300        0.018      342.084       17.247      865.577
10/12/2014  18:58:00        3.090       96.947      -11.017       19.038       26.227       17.155      362.457      687.866      294.287        0.544        0.067       96.996        8.284        0.007      342.062       17.209      865.596
10/12/2014  18:59:00       -0.518      115.437      -10.455       31.898       36.661       25.986     1017.482     1343.998      675.272        0.824        0.152      115.438       24.318        0.044      341.976       17.063      865.610
10/12/2014  19:00:00        2.414      179.719      -24.685       24.294       55.943       23.599      590.206     3129.669      556.931        1.859        0.214      179.735       23.146        0.017      342.098       17.268      865.634
10/12/2014  19:01:00       -4.446      141.948      -19.357       43.890       26.508       18.308     1926.321      702.669      335.199        1.175        0.148      142.018       12.032        0.007      341.999       17.102      865.657
10/12/2014  19:02:00      -46.957       82.210      -16.866       32.634       44.365       17.159     1064.993     1968.230      294.425        0.629        0.166       94.676        7.456        0.006      342.034       17.163      865.691
10/12/2014  19:03:00      -71.275      150.908      -25.735       38.599       37.902       27.035     1489.910     1436.551      730.870        1.609        0.183      166.893       19.413        0.014      341.980       17.070      865.726
10/12/2014  19:04:00      -50.543      109.568      -19.161       31.196       34.874       23.890      973.206     1216.181      570.751        0.884        0.138      120.664       21.164        0.031      341.950       17.019      865.746
10/12/2014  19:05:00      -33.845      129.437      -13.708       27.485       38.715       21.873      755.419     1498.860      478.421        1.041        0.137      133.789       12.920        0.009      342.010       17.120      865.752
10/12/2014  19:06:00      -36.195      106.871      -16.322       47.364       57.356       28.113     2243.304     3289.658      790.338        0.966        0.316      112.834       25.017        0.049      341.945       17.010      865.757
10/12/2014  19:07:00      -61.026      136.521      -23.202       30.862       29.415       21.222      952.473      865.247      450.373        1.258        0.113      149.540       13.825        0.009      341.878       16.897      865.768
10/12/2014  19:08:00      -26.623      133.101      -19.281       36.157       38.838       22.506     1307.305     1508.360      506.499        1.106        0.166      135.738       16.959        0.016      341.885       16.908      865.777
10/12/2014  19:09:00      -33.600      153.881      -16.888       37.846       81.423       23.346     1432.347     6629.718      545.048        1.685        0.430      157.507       32.390        0.042      341.871       16.883      865.799
10/12/2014  19:10:00      -21.350      228.908      -27.431       28.221       49.720       23.084      796.413     2472.087      532.888        2.870        0.190      229.902       19.898        0.007      341.825       16.803      865.817
10/12/2014  19:11:00      -38.015      182.161      -23.459       25.412       38.541       20.531      645.765     1485.436      421.534        1.887        0.128      186.085       14.405        0.006      341.777       16.724      865.834
10/12/2014  19:12:00      -55.448      100.112      -21.452       31.200       49.130       18.954      973.462     2413.790      359.239        0.865        0.187      114.441       18.985        0.028      341.732       16.649      865.841
10/12/2014  19:13:00      -63.817      149.034      -24.366       43.874       40.315       27.993     1924.892     1625.311      783.584        1.560        0.217      162.122       24.831        0.023      341.713       16.616      865.852
10/12/2014  19:14:00      -25.202      124.195      -10.095       35.119       38.372       28.034     1233.337     1472.413      785.930        0.983        0.175      126.726       23.435        0.034      341.693       16.583      865.866
10/12/2014  19:15:00        0.055       98.308       -8.272       35.968       36.456       17.574     1293.706     1329.056      308.829        0.633        0.147       98.308       18.251        0.034      341.654       16.518      865.865
10/12/2014  19:16:00      -27.316      159.749      -12.288       36.887       30.955       26.893     1360.676      958.190      723.253        1.473        0.152      162.067       20.061        0.015      341.653       16.514      865.875
10/12/2014  19:17:00      -40.814      156.667      -19.089       32.053       64.121       23.969     1027.413     4111.542      574.496        1.614        0.286      161.896       27.832        0.030      341.664       16.532      865.901
10/12/2014  19:18:00      -51.663      154.615      -21.036       33.359       68.983       21.203     1112.842     4758.609      449.572        1.667        0.316      163.018       22.198        0.019      341.624       16.465      865.925
10/12/2014  19:19:00      -49.442       67.697      -17.766       31.014       36.210       16.389      961.844     1311.140      268.606        0.494        0.127       83.830       11.089        0.017      341.667       16.539      865.945
10/12/2014  19:20:00      -66.948       69.247       -6.892       51.146       56.923       34.703     2615.925     3240.240     1204.333        0.819        0.353       96.318       28.015        0.085      341.631       16.477      865.966
10/12/2014  19:21:00      -91.440      127.177      -19.414       38.773       56.717       31.005     1503.356     3216.831      961.292        1.530        0.284      156.637       26.406        0.028      341.595       16.417      865.974
10/12/2014  19:22:00      -52.294      128.070      -19.901       44.602       57.847       28.221     1989.362     3346.246      796.424        1.283        0.307      138.335       18.670        0.018      341.640       16.492      865.971
10/12/2014  19:23:00      -68.587      130.546      -13.737       46.219       70.419       33.456     2136.178     4958.847     1119.335        1.507        0.411      147.467       31.285        0.045      341.644       16.499      865.970
10/12/2014  19:24:00      -64.289      133.565      -20.789       61.070       54.535       23.776     3729.505     2974.066      565.304        1.484        0.363      148.232       20.473        0.019      341.708       16.608      865.974
10/12/2014  19:25:00      -65.859       77.100       -7.875       41.699       32.753       29.034     1738.788     1072.778      842.989        0.700        0.183      101.399       27.366        0.073      341.653       16.514      865.973
10/12/2014  19:26:00      -82.803      124.223      -17.957       47.916       52.683       33.050     2295.956     2775.524     1092.294        1.439        0.308      149.290       33.777        0.051      341.619       16.457      865.973
10/12/2014  19:27:00      -38.482       73.759       -6.106       21.619       29.432       19.478      467.377      866.231      379.406        0.434        0.086       83.194       17.335        0.043      341.582       16.395      865.973
10/12/2014  19:28:00      -15.583       68.177        7.680       43.358       50.053       27.768     1879.930     2505.301      771.043        0.505        0.258       69.935       26.715        0.146      341.417       16.114      865.983
10/12/2014  19:29:00       -0.198      124.017      -23.938       21.885       32.241       18.898      478.952     1039.474      357.128        0.891        0.094      124.018       16.440        0.018      341.560       16.357      865.995
10/12/2014  19:30:00       -4.381       81.429      -16.530       19.175       21.842       10.562      367.682      477.066      111.553        0.394        0.048       81.547       10.206        0.016      341.553       16.346      866.014
10/12/2014  19:31:00      -27.237       94.408      -13.210       22.573       31.792       16.301      509.524     1010.728      265.714        0.581        0.089       98.259       16.766        0.029      341.585       16.399      866.021
10/12/2014  19:32:00      -34.295      130.745      -17.009       32.209       47.272       19.931     1037.429     2234.686      397.258        1.111        0.183      135.169       20.669        0.023      341.586       16.403      866.043
10/12/2014  19:33:00      -45.718       66.250       -7.201       27.279       23.816       19.871      744.140      567.225      394.840        0.412        0.085       80.494       14.020        0.030      341.501       16.256      866.051
10/12/2014  19:34:00      -60.600       63.925      -10.412       34.227       28.866       16.233     1171.468      833.220      263.498        0.507        0.113       88.084       16.555        0.035      341.522       16.292      866.057
10/12/2014  19:35:00      -61.008       85.186      -16.877       30.974       52.887       30.283      959.369     2797.064      917.071        0.797        0.234      104.780       27.786        0.070      341.489       16.237      866.050
10/12/2014  19:36:00     -109.147       69.552      -20.877       36.676       32.705       25.393     1345.164     1069.623      644.790        1.012        0.153      129.424       13.442        0.011      341.497       16.251      866.055
10/12/2014  19:37:00      -99.712       83.852      -22.535       30.897       34.147       24.490      954.620     1166.017      599.750        1.010        0.136      130.283       25.161        0.037      341.507       16.266      866.070
10/12/2014  19:38:00      -92.645      102.773      -23.378       31.760       35.916       21.750     1008.671     1289.944      473.045        1.123        0.139      138.367       21.487        0.024      341.491       16.240      866.085
10/12/2014  19:39:00      -99.960      104.215      -29.759       25.218       33.474       13.084      635.926     1120.498      171.201        1.183        0.096      144.405       13.045        0.008      341.522       16.294      866.103
10/12/2014  19:40:00     -100.270       95.944      -27.295       35.050       44.752       23.821     1228.494     2002.738      567.462        1.190        0.190      138.778       28.338        0.042      341.572       16.378      866.110
10/12/2014  19:41:00      -63.960      119.742      -12.296       52.261       44.202       29.483     2731.178     1953.799      869.236        1.207        0.278      135.753       28.600        0.044      341.479       16.220      866.123
10/12/2014  19:42:00      -49.452      126.076      -19.422       33.160       27.292       16.402     1099.606      744.874      269.017        1.042        0.106      135.427       10.064        0.006      341.560       16.357      866.134
10/12/2014  19:43:00      -48.793       76.770      -11.861       34.188       35.886       21.734     1168.791     1287.840      472.347        0.567        0.146       90.964       19.288        0.045      341.496       16.247      866.119
10/12/2014  19:44:00      -26.544      148.368      -18.934       38.011       49.626       21.630     1444.843     2462.721      467.867        1.373        0.219      150.724       16.727        0.012      341.484       16.229      866.119
10/12/2014  19:45:00      -47.754      182.482      -27.755       30.500       32.589       20.695      930.279     1062.034      428.264        1.939        0.121      188.627       16.799        0.008      341.469       16.201      866.106
10/12/2014  19:46:00      -32.221      128.317      -18.767       38.046       38.717       21.292     1447.510     1498.982      453.359        1.063        0.170      132.301       18.021        0.019      341.530       16.306      866.110
10/12/2014  19:47:00      -26.588      100.215      -17.989       26.711       43.291       16.415      713.477     1874.103      269.467        0.696        0.143      103.682       16.663        0.026      341.538       16.321      866.111
10/12/2014  19:48:00      -21.920      131.787      -16.726       23.759       35.769       11.631      564.472     1279.419      135.276        1.005        0.099      133.598        6.265        0.002      341.494       16.244      866.126
10/12/2014  19:49:00      -20.890      117.146      -14.002       26.079       54.639       20.124      680.099     2985.453      404.983        0.921        0.204      118.994       25.466        0.046      341.461       16.190      866.128
10/12/2014  19:50:00      -23.826      110.447      -15.344       35.760       43.734       20.208     1278.801     1912.678      408.371        0.830        0.180      112.988       21.984        0.038      341.488       16.236      866.144
10/12/2014  19:51:00      -24.304      129.571      -13.662       29.066       38.624       19.820      844.842     1491.840      392.835        1.015        0.136      131.831       20.783        0.025      341.423       16.125      866.143
10/12/2014  19:52:00      -40.091      156.261      -22.478       27.544       32.579       18.056      758.669     1061.393      326.032        1.434        0.107      161.322       12.754        0.006      341.416       16.113      866.162
10/12/2014  19:53:00      -37.496      145.109      -14.760       26.183       34.120       18.754      685.569     1164.205      351.726        1.244        0.110      149.875       16.799        0.013      341.446       16.164      866.172
10/12/2014  19:54:00      -27.340      134.717      -11.056       29.907       33.930       19.959      894.418     1151.220      398.363        1.073        0.122      137.463       14.473        0.011      341.346       15.995      866.179
10/12/2014  19:55:00      -47.717      141.975      -18.238       41.403       38.353       25.789     1714.223     1470.957      665.084        1.331        0.193      149.779       20.796        0.019      341.395       16.076      866.192
10/12/2014  19:56:00      -65.954      139.756      -18.828       32.600       37.247       26.993     1062.728     1387.356      728.604        1.371        0.159      154.537       18.914        0.015      341.434       16.144      866.189
10/12/2014  19:57:00      -62.501      114.276      -14.838       27.417       40.290       20.974      751.710     1623.297      439.897        1.000        0.141      130.251       19.842        0.023      341.372       16.040      866.201
10/12/2014  19:58:00      -60.151      108.890      -23.306       24.715       32.505       18.450      610.825     1056.580      340.401        0.901        0.100      124.399       17.784        0.020      341.427       16.132      866.189
10/12/2014  19:59:00      -44.880      111.909      -13.245       38.703       37.789       22.710     1497.912     1428.043      515.744        0.908        0.172      120.572       22.685        0.035      341.344       15.990      866.198
10/12/2014  20:00:00      -66.205       65.842      -13.757       25.688       42.812       22.327      659.878     1832.899      498.504        0.595        0.150       93.372       22.756        0.059      341.376       16.045      866.195
10/12/2014  20:01:00      -33.896       97.532       -2.828       33.134       46.816       21.891     1097.868     2191.770      479.203        0.722        0.188      103.254       18.297        0.031      341.351       16.004      866.199
10/12/2014  20:02:00      -49.734       66.199      -19.158       31.495       45.827       26.046      991.953     2100.115      678.406        0.550        0.189       82.800       29.143        0.124      341.335       15.976      866.207
10/12/2014  20:03:00      -31.596       61.440       -2.605       32.591       32.349       24.013     1062.194     1046.490      576.623        0.373        0.134       69.088       19.594        0.080      341.269       15.863      866.200
10/12/2014  20:04:00      -24.442      111.061      -13.864       24.665       34.917       16.053      608.385     1219.176      257.690        0.760        0.104      113.719       17.998        0.025      341.292       15.905      866.211
10/12/2014  20:05:00      -49.490      159.880      -23.914       27.378       43.483       18.705      749.563     1890.779      349.875        1.579        0.150      167.364       18.440        0.012      341.357       16.014      866.209
10/12/2014  20:06:00      -43.869      119.019      -16.598       29.320       20.947       19.886      859.659      438.782      395.438        0.903        0.085      126.847       15.958        0.016      341.369       16.033      866.210
10/12/2014  20:07:00      -18.531      106.986      -19.061       37.426       39.873       21.692     1400.731     1589.892      470.529        0.781        0.173      108.579       11.241        0.011      341.361       16.019      866.216
10/12/2014  20:08:00       -2.019      111.495      -10.165       27.829       38.131       19.905      774.452     1453.938      396.223        0.758        0.131      111.513       21.336        0.037      341.235       15.808      866.221
10/12/2014  20:09:00        2.085       76.513       -0.371       20.494       41.162       23.551      420.011     1694.297      554.664        0.426        0.133       76.542       22.640        0.087      341.190       15.731      866.225
10/12/2014  20:10:00      -17.472      133.241      -18.109       19.945       21.219       14.488      397.808      450.233      209.904        0.972        0.053      134.382       10.005        0.006      341.312       15.936      866.229
10/12/2014  20:11:00      -26.827      135.368      -19.175       17.418       27.348       15.641      303.375      747.923      244.629        1.035        0.065      138.000       13.810        0.010      341.318       15.949      866.230
10/12/2014  20:12:00      -27.685      126.353      -18.041       30.680       35.605       18.061      941.236     1267.732      326.217        0.980        0.127      129.350       14.705        0.013      341.285       15.892      866.239
10/12/2014  20:13:00      -10.024      158.836      -26.094       21.594       31.514       15.559      466.286      993.160      242.092        1.386        0.085      159.152       10.130        0.004      341.326       15.961      866.244
10/12/2014  20:14:00      -25.543      152.355      -23.203       27.638       29.847       14.141      763.849      890.867      199.964        1.313        0.093      154.481       12.269        0.006      341.271       15.869      866.254
10/12/2014  20:15:00      -26.418      169.705      -24.996       22.809       25.373       13.965      520.255      643.766      195.031        1.574        0.068      171.749        6.112        0.001      341.340       15.985      866.251
10/12/2014  20:16:00      -42.905      123.244      -17.178       31.163       44.734       23.317      971.146     2001.140      543.680        1.042        0.176      130.499       26.825        0.042      341.275       15.875      866.235
10/12/2014  20:17:00      -30.780      113.953      -10.374       27.133       43.855       21.231      736.226     1923.272      450.740        0.857        0.156      118.037       20.573        0.030      341.309       15.933      866.238
10/12/2014  20:18:00      -15.552       97.380      -11.866       38.626       30.751       16.023     1491.935      945.627      256.744        0.628        0.135       98.614        6.480        0.004      341.282       15.885      866.237
10/12/2014  20:19:00      -39.159       55.748       -9.330       29.641       25.885       20.341      878.559      670.027      413.744        0.334        0.098       68.127       14.848        0.047      341.262       15.853      866.231
10/12/2014  20:20:00      -42.909       95.807      -13.986       37.945       34.931       19.904     1439.839     1220.189      396.171        0.714        0.153      104.977       19.060        0.033      341.259       15.847      866.248
10/12/2014  20:21:00      -68.133       67.728      -18.923       21.777       40.565       15.947      474.245     1645.552      254.309        0.598        0.119       96.069       17.254        0.032      341.208       15.761      866.249
10/12/2014  20:22:00      -48.963       72.769      -12.093       32.225       24.729       18.605     1038.420      611.539      346.127        0.492        0.100       87.708       19.100        0.047      341.123       15.618      866.250
10/12/2014  20:23:00      -57.496       85.413      -13.380       35.406       31.451       21.072     1253.583      989.168      444.026        0.673        0.134      102.962       21.260        0.043      341.146       15.656      866.272
10/12/2014  20:24:00      -66.906       96.128      -17.846       31.571       25.490       19.798      996.735      649.763      391.944        0.804        0.102      117.119       16.786        0.021      341.141       15.648      866.275
10/12/2014  20:25:00      -51.302      106.448      -13.490       28.479       40.187       16.805      811.069     1615.003      282.425        0.843        0.135      118.166       14.970        0.016      341.197       15.743      866.277
10/12/2014  20:26:00      -49.515       64.196       -6.552       24.583       27.852       23.119      604.348      775.737      534.509        0.426        0.096       81.073       12.601        0.024      341.062       15.516      866.292
10/12/2014  20:27:00      -41.082       73.904       -5.806       33.579       38.362       20.761     1127.516     1471.628      431.010        0.511        0.152       84.555       20.116        0.057      341.117       15.608      866.295
10/12/2014  20:28:00      -59.922       72.102      -13.407       20.133       22.076       13.090      405.347      487.343      171.344        0.502        0.053       93.752        7.324        0.006      341.098       15.574      866.298
10/12/2014  20:29:00       24.367       71.083        8.954       38.251       45.553       31.578     1463.138     2075.065      997.169        0.513        0.227       75.143       32.679        0.189      341.134       15.635      866.312
10/12/2014  20:30:00        3.839      105.194      -12.197       20.604       34.944       14.194      424.508     1221.054      201.469        0.654        0.092      105.264       10.606        0.010      341.224       15.790      866.313
10/12/2014  20:31:00        0.907       72.486      -10.361       15.825       16.034       10.494      250.431      257.093      110.119        0.299        0.031       72.491        6.217        0.007      341.190       15.731      866.321
10/12/2014  20:32:00      -10.004       83.748       -2.284       28.185       28.392       19.349      794.406      806.133      374.380        0.455        0.099       84.344       20.040        0.056      341.158       15.676      866.330
10/12/2014  20:33:00      -17.483       27.689        5.090       22.970       24.266       11.706      527.630      588.857      137.028        0.118        0.063       32.747        8.389        0.066      341.056       15.505      866.321
10/12/2014  20:34:00      -57.798       -5.627       -5.990       22.656       14.012       13.252      513.284      196.335      175.617        0.215        0.044       58.071        5.257        0.008      341.006       15.418      866.324
10/12/2014  20:35:00      -59.424       15.396      -12.503       12.213       16.082       10.045      149.165      258.628      100.894        0.222        0.025       61.386        6.850        0.012      340.801       15.074      866.339
10/12/2014  20:36:00      -54.489        1.288       -8.075       25.369       19.585       16.995      643.595      383.591      288.834        0.218        0.066       54.504       14.361        0.069      340.709       14.918      866.334
10/12/2014  20:37:00      -75.720       -1.042      -16.315       21.768       19.986       16.473      473.845      399.444      271.363        0.357        0.057       75.727       14.088        0.035      340.706       14.911      866.346
10/12/2014  20:38:00      -95.291        5.521      -16.640       23.326       27.107       21.177      544.094      734.785      448.466        0.556        0.086       95.451       13.649        0.020      340.728       14.950      866.354
10/12/2014  20:39:00      -66.034       25.658      -10.298       36.973       43.200       21.494     1366.987     1866.253      461.996        0.441        0.185       70.844       15.273        0.046      340.800       15.071      866.364
10/12/2014  20:40:00      -73.691       44.583      -21.357       23.043       25.341       16.441      530.983      642.182      270.317        0.466        0.072       86.128       13.819        0.026      340.882       15.209      866.376
10/12/2014  20:41:00      -89.942       12.331      -13.494       27.991       31.606       18.424      783.522      998.957      339.453        0.527        0.106       90.784       17.932        0.039      340.847       15.149      866.369
10/12/2014  20:42:00      -70.481      -14.961       -4.691       22.739       23.449       19.992      517.045      549.860      399.696        0.334        0.073       72.052       17.265        0.057      340.728       14.950      866.345
10/12/2014  20:43:00      -86.788        8.309      -12.524       34.258       28.452       14.761     1173.587      809.500      217.874        0.498        0.110       87.185       17.438        0.040      340.789       15.051      866.329
10/12/2014  20:44:00      -62.903       15.537      -15.219       30.021       23.539       16.171      901.237      554.101      261.505        0.307        0.086       64.793       15.168        0.055      340.751       14.987      866.313
10/12/2014  20:45:00      -71.617       20.418      -11.897       18.594       23.585       14.046      345.724      556.245      197.285        0.339        0.055       74.471       10.992        0.022      340.749       14.983      866.300
10/12/2014  20:46:00      -95.842       57.690      -19.967       31.065       35.170       19.758      965.029     1236.916      390.367        0.775        0.130      111.865       22.137        0.039      340.885       15.214      866.306
10/12/2014  20:47:00      -82.102       49.477      -11.105       30.471       42.293       22.198      928.460     1788.667      492.770        0.626        0.160       95.857       17.517        0.033      340.799       15.069      866.297
10/12/2014  20:48:00      -84.624       22.113      -15.598       19.161       23.345       16.650      367.152      545.010      277.229        0.454        0.059       87.466       11.577        0.018      340.765       15.012      866.296
10/12/2014  20:49:00      -96.257       17.768      -16.705       32.964       30.697       18.617     1086.627      942.295      346.597        0.612        0.119       97.883       12.848        0.017      340.769       15.019      866.295
10/12/2014  20:50:00      -82.603       18.303      -15.872       21.000       32.769       18.076      441.019     1073.807      326.748        0.463        0.092       84.606       10.678        0.016      340.695       14.893      866.290
10/12/2014  20:51:00      -73.702       32.692      -12.241       21.015       24.781       17.463      441.613      614.099      304.969        0.401        0.068       80.627        9.355        0.013      340.689       14.883      866.306
10/12/2014  20:52:00      -93.618       35.729      -15.368       25.261       28.669       19.579      638.100      821.938      383.328        0.606        0.092      100.204       14.749        0.022      340.797       15.065      866.307
10/12/2014  20:53:00     -103.335       54.202      -21.131       34.843       35.405       21.492     1214.014     1253.502      461.914        0.850        0.146      116.688       19.879        0.029      340.843       15.144      866.306
10/12/2014  20:54:00     -103.876       40.205      -19.989       47.818       29.474       24.518     2286.547      868.692      601.117        0.828        0.188      111.385       19.669        0.031      340.899       15.239      866.316
10/12/2014  20:55:00      -86.674       37.382      -19.788       28.627       33.601       21.086      819.496     1129.026      444.633        0.585        0.120       94.392        8.420        0.008      340.775       15.026      866.320
10/12/2014  20:56:00      -59.608       11.590        2.181       27.849       20.347       20.572      775.578      414.017      423.190        0.265        0.081       60.724        8.552        0.020      340.694       14.892      866.303
10/12/2014  20:57:00      -83.680       18.432      -16.796       21.167       24.411       15.786      448.061      595.895      249.205        0.446        0.065       85.686       11.895        0.019      340.644       14.807      866.307
10/12/2014  20:58:00      -96.314       54.664      -19.634       29.457       33.320       20.345      867.690     1110.223      413.933        0.752        0.120      110.745       17.008        0.024      340.899       15.238      866.314
10/12/2014  20:59:00      -97.551       24.089      -10.128       25.466       29.605       23.234      648.517      876.466      539.830        0.613        0.103      100.481       18.638        0.034      340.580       14.699      866.311
10/12/2014  21:00:00      -76.099       32.996      -15.515       23.144       28.015       14.091      535.645      784.856      198.563        0.432        0.076       82.944        9.772        0.014      340.630       14.782      866.317
10/12/2014  21:01:00      -76.496       35.845      -13.132       24.954       40.718       19.796      622.705     1657.956      391.890        0.499        0.134       84.478       20.579        0.059      340.669       14.850      866.332
10/12/2014  21:02:00      -64.571       14.711      -10.786       24.294       34.885       18.737      590.190     1216.955      351.092        0.333        0.108       66.226       13.285        0.040      340.625       14.776      866.331
10/12/2014  21:03:00      -36.973       21.364        3.063       37.518       30.011       16.968     1407.574      900.640      287.915        0.221        0.130       42.701       16.512        0.150      340.519       14.596      866.325
10/12/2014  21:04:00      -23.607       -1.909       -3.941       30.135       21.742       11.068      908.090      472.715      122.505        0.104        0.075       23.684        5.870        0.061      340.470       14.513      866.333
10/12/2014  21:05:00      -50.776       25.784       -6.037       20.190       35.563       18.744      407.641     1264.714      351.342        0.265        0.101       56.948       15.196        0.071      340.486       14.540      866.349
10/12/2014  21:06:00      -47.022        3.342       -1.546       17.277       26.762       12.975      298.505      716.195      168.349        0.170        0.059       47.141        8.321        0.031      340.332       14.280      866.366
10/12/2014  21:07:00      -65.705       46.133      -12.745       26.236       28.200       19.620      688.319      795.240      384.929        0.424        0.093       80.283       19.147        0.057      340.547       14.642      866.382
10/12/2014  21:08:00      -84.357       83.932      -14.800       34.862       36.266       22.424     1215.364     1315.255      502.845        0.871        0.152      118.999       22.144        0.035      340.598       14.730      866.397
10/12/2014  21:09:00      -88.280       72.644      -22.516       28.772       33.483       18.310      827.830     1121.104      335.246        0.793        0.114      114.326       16.391        0.021      340.711       14.921      866.404
10/12/2014  21:10:00      -75.442      111.190      -12.071       21.798       33.417       18.906      475.169     1116.667      357.433        1.007        0.097      134.368       10.673        0.006      340.624       14.773      866.408
10/12/2014  21:11:00      -66.636       47.643      -14.319       16.289       32.155       17.572      265.330     1033.942      308.760        0.426        0.080       81.916        8.068        0.010      340.525       14.606      866.414
10/12/2014  21:12:00      -82.899       62.711      -18.645       27.779       34.703       18.182      771.653     1204.302      330.592        0.673        0.115      103.947       21.333        0.042      340.727       14.947      866.420
10/12/2014  21:13:00      -70.754       81.180      -17.780       26.734       31.627       18.827      714.700     1000.249      354.457        0.699        0.103      107.686       14.807        0.019      340.639       14.799      866.431
10/12/2014  21:14:00      -54.728       56.521       -8.947       24.667       38.847       16.886      608.438     1509.085      285.134        0.434        0.120       78.675       14.821        0.035      340.586       14.708      866.438
10/12/2014  21:15:00      -88.483       97.676      -27.011       24.841       44.167       20.632      617.078     1950.683      425.689        1.055        0.150      131.794       18.164        0.019      340.728       14.949      866.454
10/12/2014  21:16:00      -69.853       89.660      -17.663       25.729       29.532       19.331      661.978      872.156      373.668        0.757        0.095      113.659       12.160        0.011      340.671       14.852      866.464
10/12/2014  21:17:00      -76.542       50.739      -13.523       27.978       28.885       17.252      782.752      834.357      297.642        0.527        0.096       91.832       13.581        0.022      340.608       14.745      866.464
10/12/2014  21:18:00      -67.760       29.393      -11.351       14.338       36.834       13.594      205.565     1356.742      184.805        0.367        0.087       73.860       12.032        0.027      340.535       14.623      866.461
10/12/2014  21:19:00      -63.704       -0.437      -14.105       20.886       21.654       16.232      436.236      468.902      263.484        0.271        0.058       63.706       12.138        0.036      340.444       14.467      866.469
10/12/2014  21:20:00      -50.650      -14.943       -0.733       21.515       17.782       13.758      462.883      316.216      189.290        0.188        0.048       52.808        8.279        0.025      340.324       14.266      866.483
10/12/2014  21:21:00      -50.397       -7.565       -1.969       20.395       20.476       13.109      415.970      419.254      171.847        0.180        0.050       50.961       10.182        0.040      340.315       14.251      866.490
10/12/2014  21:22:00      -57.590       -9.552       -8.665       11.410       13.481       10.170      130.178      181.730      103.435        0.195        0.021       58.376        4.941        0.007      340.255       14.149      866.498
10/12/2014  21:23:00      -59.543      -19.891       -7.965       18.791       18.476       15.968      353.099      341.356      254.978        0.248        0.047       62.778       11.575        0.034      340.111       13.906      866.511
10/12/2014  21:24:00      -68.056      -25.880      -11.475       14.921       17.193       11.334      222.627      295.603      128.467        0.304        0.032       72.811        6.301        0.007      340.042       13.789      866.515
10/12/2014  21:25:00      -52.139       -8.946       -5.984       22.286       18.910       14.239      496.658      357.603      202.740        0.195        0.053       52.901        9.436        0.032      339.991       13.702      866.526
10/12/2014  21:26:00      -68.966       -8.484      -10.299       23.073       21.484       15.716      532.372      461.566      246.986        0.309        0.062       69.485       12.226        0.031      340.040       13.786      866.539
10/12/2014  21:27:00      -56.995       -8.857      -13.016       19.570       21.803       10.762      382.969      475.390      115.810        0.224        0.049       57.679        8.258        0.020      340.021       13.754      866.561
10/12/2014  21:28:00      -57.766      -11.571      -14.439       19.938       16.466       13.531      397.531      271.119      183.100        0.227        0.043       58.914        7.290        0.015      340.125       13.930      866.566
10/12/2014  21:29:00      -73.898        4.476      -16.936       19.815       22.846       12.801      392.639      521.954      163.854        0.342        0.054       74.034        3.519        0.002      340.222       14.093      866.566
10/12/2014  21:30:00      -68.241       19.141       -8.996       14.647       21.883       13.860      214.546      478.858      192.107        0.299        0.044       70.875       10.940        0.024      340.370       14.343      866.574
10/12/2014  21:31:00      -64.354       18.413      -13.188       18.884       20.729       10.734      356.591      429.679      115.220        0.278        0.045       66.936       10.264        0.024      340.329       14.273      866.588
10/12/2014  21:32:00      -76.261       28.074      -13.932       16.650       29.359       13.578      277.233      861.954      184.352        0.406        0.066       81.265       13.743        0.029      340.378       14.357      866.587
10/12/2014  21:33:00      -57.554       34.961      -13.988       15.489       16.936       13.145      239.909      286.818      172.792        0.271        0.035       67.340        9.107        0.018      340.383       14.364      866.607
10/12/2014  21:34:00      -73.469       31.900      -12.522       16.360       15.717       10.321      267.659      247.014      106.522        0.360        0.031       80.095        7.160        0.008      340.458       14.492      866.624
10/12/2014  21:35:00      -81.544       23.274       -9.518       24.237       18.660       10.548      587.421      348.205      111.252        0.416        0.052       84.801        8.071        0.009      340.410       14.412      866.631
10/12/2014  21:36:00      -43.777       10.846       -6.087       21.154       18.785       10.339      447.509      352.871      106.890        0.149        0.045       45.101       11.718        0.068      340.375       14.352      866.633
10/12/2014  21:37:00      -41.470      -19.796      -14.918       13.174       11.740        9.610      173.549      137.825       92.350        0.137        0.020       45.953        7.300        0.025      340.213       14.077      866.650
10/12/2014  21:38:00      -32.618      -11.546       -7.885       14.056       16.615       10.264      197.584      276.057      105.342        0.092        0.029       34.601        7.289        0.044      340.162       13.991      866.646
10/12/2014  21:39:00      -52.831       -4.984      -13.452       17.264       19.025       11.352      298.062      361.933      128.878        0.189        0.039       53.065       11.331        0.046      340.222       14.095      866.642
10/12/2014  21:40:00      -54.537        4.357       -8.142       15.605       15.551       10.355      243.531      241.835      107.224        0.183        0.030       54.711        7.695        0.020      340.200       14.056      866.644
10/12/2014  21:41:00      -63.089       12.552      -15.819       20.838       20.795       13.457      434.228      432.415      181.089        0.272        0.052       64.326        8.296        0.017      340.227       14.102      866.659
10/12/2014  21:42:00      -45.795       -2.778       -2.233       17.594       15.871       12.346      309.534      251.873      152.423        0.141        0.036       45.879        6.670        0.021      340.246       14.134      866.655
10/12/2014  21:43:00      -51.771      -14.573      -11.682       14.553       13.416       12.982      211.776      179.990      168.523        0.179        0.028       53.783        9.386        0.030      340.225       14.098      866.651
10/12/2014  21:44:00      -39.826        0.690       -6.515       11.707       12.154       11.693      137.044      147.730      136.716        0.103        0.021       39.832        8.035        0.041      340.185       14.030      866.651
10/12/2014  21:45:00      -47.488       -6.828      -11.853       10.534       14.872        8.131      110.958      221.179       66.119        0.142        0.020       47.976        5.637        0.014      340.138       13.951      866.660
10/12/2014  21:46:00      -55.615       23.868       -9.591       14.662       22.091       15.885      214.964      488.006      252.325        0.235        0.048       60.520       14.384        0.056      340.535       14.622      866.662
10/12/2014  21:47:00      -46.381       25.976       -4.241       21.543       21.640       13.683      464.082      468.268      187.232        0.198        0.056       53.160       14.430        0.074      340.337       14.287      866.665
10/12/2014  21:48:00      -50.183       64.594      -13.673       22.652       30.250       12.950      513.091      915.059      167.697        0.424        0.080       81.796       12.485        0.023      340.509       14.579      866.673
10/12/2014  21:49:00      -57.039        2.762       -8.625       20.105       18.596       10.028      404.194      345.812      100.554        0.209        0.043       57.106       12.078        0.045      340.256       14.151      866.663
10/12/2014  21:50:00      -40.733       -8.007       -7.605       10.304       15.192        9.277      106.172      230.793       86.055        0.110        0.021       41.513        4.173        0.010      340.176       14.015      866.652
10/12/2014  21:51:00      -25.358      -21.488       -5.413       15.073       14.938       12.926      227.210      223.144      167.083        0.088        0.031       33.238       10.215        0.094      340.083       13.859      866.640
10/12/2014  21:52:00      -23.886       -9.191       -9.692       28.315       13.202       19.360      801.734      174.303      374.791        0.105        0.068       25.594       19.543        0.583      340.096       13.880      866.626
10/12/2014  21:53:00      -18.952       12.012        8.407       18.674       11.621       14.888      348.734      135.053      221.657        0.064        0.035       22.438       13.042        0.338      340.154       13.979      866.613
10/12/2014  21:54:00      -30.153      -19.201       -3.845       13.287       12.248       10.701      176.547      150.019      114.506        0.087        0.022       35.747        6.407        0.032      340.103       13.892      866.620
10/12/2014  21:55:00      -33.748      -16.574       -6.133       19.543        9.907        8.075      381.937       98.140       65.213        0.100        0.027       37.598        3.234        0.007      339.957       13.647      866.635
10/12/2014  21:56:00      -36.880      -17.531      -13.993       13.855        9.337        9.627      191.972       87.183       92.673        0.112        0.019       40.835        6.430        0.025      339.909       13.566      866.640
10/12/2014  21:57:00      -49.058      -16.001       -6.919       12.991       14.111        9.495      168.765      199.118       90.158        0.158        0.023       51.602        4.775        0.009      339.873       13.506      866.650
10/12/2014  21:58:00      -57.547      -15.497      -10.245       13.987       14.168       11.648      195.643      200.731      135.682        0.209        0.027       59.597        7.284        0.015      339.940       13.618      866.670
10/12/2014  21:59:00      -70.185      -35.978      -13.616       19.745       22.122       12.290      389.846      489.394      151.043        0.372        0.052       78.869        4.537        0.003      339.780       13.350      866.694
10/12/2014  22:00:00     -109.096      -12.290      -17.950       12.735       13.605        9.465      162.187      185.101       89.581        0.641        0.022      109.786        8.015        0.005      339.700       13.213      866.705
10/12/2014  22:01:00      -84.658      -38.267      -12.872       16.327       20.767       15.953      266.579      431.262      254.495        0.487        0.048       92.904       14.851        0.026      339.683       13.185      866.716
10/12/2014  22:02:00      -76.392      -31.662       -8.548       28.977       24.523       18.457      839.652      601.360      340.678        0.435        0.089       82.694       17.071        0.043      339.571       12.995      866.734
10/12/2014  22:03:00     -100.410      -18.907      -12.914       23.859       22.247       14.290      569.241      494.942      204.207        0.594        0.063      102.174        8.976        0.008      339.584       13.019      866.725
10/12/2014  22:04:00      -94.952       -0.056      -11.752       28.727       19.290       17.952      825.257      372.101      322.256        0.534        0.076       94.952       14.810        0.024      339.602       13.049      866.721
10/12/2014  22:05:00      -92.684        3.657      -16.013       38.130       21.711       16.513     1453.904      471.357      272.665        0.553        0.110       92.756       15.359        0.027      339.661       13.148      866.711
10/12/2014  22:06:00      -78.420       -5.650      -11.065       38.614       21.669       17.935     1491.064      469.533      321.657        0.429        0.114       78.623       18.397        0.055      339.599       13.042      866.700
10/12/2014  22:07:00      -92.696      -16.020       -7.431       29.827       25.052       16.826      889.666      627.628      283.110        0.535        0.090       94.071        9.185        0.010      339.581       13.012      866.683
10/12/2014  22:08:00     -100.680      -11.731      -12.262       34.362       23.357       17.003     1180.737      545.546      289.116        0.622        0.101      101.361       15.744        0.024      339.567       12.990      866.666
10/12/2014  22:09:00      -92.783       -8.786       -6.041       40.056       24.901       20.859     1604.486      620.041      435.086        0.569        0.133       93.198       21.161        0.052      339.499       12.874      866.667
10/12/2014  22:10:00      -61.463      -12.667       -0.471       23.422       26.141       17.287      548.587      683.345      298.828        0.273        0.077       62.755       12.808        0.042      339.475       12.833      866.681
10/12/2014  22:11:00      -86.097      -19.313       -9.181       27.413       22.874       14.865      751.466      523.230      220.964        0.468        0.075       88.236       11.945        0.018      339.504       12.883      866.692
10/12/2014  22:12:00      -74.217      -25.587       -5.933       20.372       17.798       13.387      415.002      316.768      179.216        0.355        0.046       78.504       10.725        0.019      339.606       13.056      866.707
10/12/2014  22:13:00      -66.551       -5.389       -8.881       20.101       13.634       13.211      404.049      185.887      174.542        0.265        0.038       66.769        7.776        0.014      339.614       13.069      866.727
10/12/2014  22:14:00      -62.653      -10.817       -3.120       25.755       29.858       14.169      663.318      891.510      200.761        0.290        0.088       63.580        9.831        0.024      339.581       13.013      866.740
10/12/2014  22:15:00      -75.928      -49.894      -15.583       20.428       16.647       12.755      417.309      277.132      162.700        0.468        0.043       90.854        7.655        0.007      339.493       12.862      866.738
10/12/2014  22:16:00      -86.675      -29.826      -12.173       20.303       19.001       11.426      412.220      361.033      130.551        0.473        0.045       91.663        3.017        0.001      339.454       12.798      866.743
10/12/2014  22:17:00      -74.926      -13.668       -7.918       33.299       20.556       14.962     1108.825      422.536      223.867        0.381        0.088       76.163       17.801        0.055      339.401       12.709      866.745
10/12/2014  22:18:00      -73.578       -6.735      -12.082       21.633       20.505       14.179      467.988      420.445      201.047        0.335        0.054       73.886        9.549        0.017      339.367       12.651      866.732
10/12/2014  22:19:00      -68.120        0.736      -18.193       23.315       21.694       17.920      543.592      470.646      321.127        0.315        0.067       68.124       14.839        0.047      339.402       12.711      866.721
10/12/2014  22:20:00      -63.858        0.874      -19.258       12.013       13.879       10.682      144.321      192.627      114.114        0.245        0.023       63.864        8.597        0.018      339.437       12.771      866.722
10/12/2014  22:21:00      -58.036      -18.683      -13.099        9.712       15.139       10.111       94.318      229.181      102.241        0.216        0.021       60.969        6.753        0.012      339.417       12.736      866.709
10/12/2014  22:22:00      -63.447      -15.972      -13.908       14.808       16.397       12.579      219.277      268.860      158.219        0.256        0.032       65.426        9.415        0.021      339.401       12.708      866.699
10/12/2014  22:23:00      -62.834       -8.714      -10.881       13.753       17.310       13.170      189.135      299.620      173.454        0.240        0.033       63.435       10.663        0.028      339.455       12.801      866.693
10/12/2014  22:24:00      -40.404      -21.665       -3.269       15.950       13.641       13.471      254.408      186.078      181.464        0.137        0.031       45.846        7.114        0.024      339.396       12.701      866.683
10/12/2014  22:25:00      -46.946      -20.759       -9.622       16.289       11.975       10.825      265.317      143.397      117.181        0.163        0.026       51.331        6.210        0.015      339.405       12.714      866.669
10/12/2014  22:26:00      -29.108      -15.929       -4.763       17.647       11.797       11.414      311.422      139.179      130.285        0.085        0.029       33.182        8.761        0.070      339.508       12.890      866.664
10/12/2014  22:27:00      -29.507      -14.779       -2.057       16.114       12.193       17.055      259.675      148.666      290.879        0.090        0.035       33.001        7.073        0.046      339.726       13.256      866.642
10/12/2014  22:28:00      -36.398      -21.069       -8.264       17.002       16.735       12.889      289.067      280.053      166.126        0.129        0.037       42.056       11.458        0.074      339.564       12.985      866.643
10/12/2014  22:29:00      -54.987      -17.836      -14.224       11.766       14.723       13.584      138.439      216.765      184.520        0.204        0.027       57.807        5.881        0.010      339.491       12.861      866.646
10/12/2014  22:30:00      -64.557      -21.708      -17.444       13.821       13.208       12.056      191.021      174.464      145.359        0.273        0.026       68.109        6.643        0.010      339.415       12.733      866.650
10/12/2014  22:31:00      -56.174      -29.768       -9.314       13.550       12.531       11.253      183.604      157.031      126.627        0.230        0.023       63.574        5.003        0.006      339.317       12.565      866.660
10/12/2014  22:32:00      -51.227      -14.767       -6.642       15.364       15.281       15.580      236.056      233.504      242.739        0.180        0.036       53.313       12.003        0.051      339.206       12.379      866.663
10/12/2014  22:33:00      -46.388      -11.319      -13.031       11.421       24.569        9.395      130.435      603.621       88.258        0.164        0.041       47.749        5.152        0.012      339.233       12.424      866.670
10/12/2014  22:34:00      -51.283      -26.710       -7.033       17.405       17.066        9.566      302.937      291.244       91.518        0.204        0.034       57.822        7.873        0.019      339.308       12.552      866.665
10/12/2014  22:35:00      -52.409      -13.186      -11.011        9.722       11.404       12.769       94.512      130.042      163.036        0.171        0.019       54.043        8.371        0.024      339.317       12.566      866.672
10/12/2014  22:36:00      -37.769        6.712       -5.808       25.827       19.124       12.391      667.030      365.738      153.526        0.135        0.059       38.361        4.249        0.012      339.604       13.050      866.672
10/12/2014  22:37:00      -54.234       22.472       -7.732       21.705       19.805       12.025      471.105      392.235      144.595        0.226        0.050       58.705        9.685        0.027      339.647       13.124      866.689
10/12/2014  22:38:00      -55.378       47.442      -17.408       18.863       50.865       15.057      355.816     2587.246      226.718        0.439        0.158       72.921       23.052        0.100      339.702       13.215      866.683
10/12/2014  22:39:00      -46.113       39.262       -8.344       23.533       33.259       12.743      553.779     1106.151      162.397        0.278        0.091       60.564       15.338        0.064      339.782       13.351      866.679
10/12/2014  22:40:00      -38.265       23.146       -7.564       17.320       21.089       13.227      299.978      444.752      174.953        0.149        0.046       44.721       10.371        0.054      339.773       13.337      866.677
10/12/2014  22:41:00      -39.219        3.467       -8.366       15.776       13.937        8.784      248.874      194.239       77.161        0.107        0.026       39.372        8.204        0.043      339.680       13.181      866.668
10/12/2014  22:42:00      -27.687       -6.041       -0.121       20.449       20.783       12.523      418.170      431.922      156.828        0.090        0.050       28.338        8.572        0.091      339.461       12.810      866.658
10/12/2014  22:43:00      -50.134      -12.310       -6.754        9.882       13.836       10.869       97.659      191.438      118.135        0.156        0.020       51.623        7.324        0.020      339.254       12.462      866.654
10/12/2014  22:44:00      -40.583      -17.512       -4.136       11.887       12.997       11.413      141.298      168.931      130.250        0.121        0.022       44.200        8.244        0.035      339.265       12.481      866.649
10/12/2014  22:45:00      -33.433      -18.790       -7.300       11.651       11.086        8.912      135.747      122.910       79.428        0.093        0.017       38.351        4.279        0.012      339.236       12.432      866.623
10/12/2014  22:46:00      -34.975       -3.179       -9.700       14.887       26.222       11.597      221.627      687.582      134.480        0.119        0.052       35.119        6.710        0.037      339.356       12.634      866.604
10/12/2014  22:47:00      -50.416       -9.968       -2.821       14.311       13.206       11.355      204.813      174.388      128.942        0.158        0.025       51.391        8.907        0.030      339.369       12.655      866.593
10/12/2014  22:48:00      -31.163       -6.628       -3.053       16.416       13.796       10.157      269.480      190.323      103.168        0.079        0.028       31.860        9.567        0.090      339.320       12.572      866.612
10/12/2014  22:49:00      -27.541      -17.135       -0.031       11.746        7.428        9.427      137.961       55.182       88.876        0.067        0.014       32.436        5.373        0.027      339.309       12.555      866.619
10/12/2014  22:50:00      -25.070      -20.033       -5.846       12.968        9.514        9.606      168.170       90.519       92.271        0.071        0.018       32.091        7.784        0.059      339.311       12.559      866.620
10/12/2014  22:51:00      -40.975      -27.974       -8.834       16.763       11.076        9.601      281.012      122.686       92.183        0.152        0.025       49.613        6.204        0.016      339.153       12.291      866.624
10/12/2014  22:52:00      -58.804      -29.878      -12.045       13.567       12.653        7.927      184.067      160.104       62.841        0.245        0.020       65.959        4.928        0.006      339.147       12.280      866.627
10/12/2014  22:53:00      -75.722      -32.109      -12.569        9.330       10.694        6.834       87.045      114.371       46.702        0.359        0.012       82.248        2.943        0.001      339.103       12.207      866.632
10/12/2014  22:54:00      -29.383      -28.572       -0.572       34.557       11.904       13.177     1194.175      141.714      173.642        0.159        0.075       40.985       19.535        0.227      339.083       12.173      866.644
10/12/2014  22:55:00      -38.202      -26.388        3.737       17.637       13.111        8.152      311.074      171.904       66.449        0.136        0.027       46.430        7.853        0.029      339.095       12.192      866.638
10/12/2014  22:56:00      -35.251      -20.846        2.006       19.964       10.613        8.823      398.564      112.630       77.840        0.114        0.029       40.953        8.856        0.047      339.118       12.231      866.635
10/12/2014  22:57:00      -32.058      -20.690       -4.737       15.696       10.088        9.130      246.354      101.764       83.360        0.095        0.022       38.155        8.674        0.052      339.162       12.305      866.647
10/12/2014  22:58:00        0.891      -18.347        0.179       12.226       12.786        7.656      149.483      163.484       58.610        0.035        0.019       18.368        5.336        0.084      339.108       12.215      866.654
10/12/2014  22:59:00      -54.485      -59.094        0.303       33.830       38.500       17.260     1144.491     1482.226      297.923        0.469        0.146       80.378        9.395        0.014      339.002       12.035      866.657
10/12/2014  23:00:00      -46.309     -107.141       -0.387       34.529       34.904       17.416     1192.283     1218.271      303.304        0.817        0.136      116.721       10.544        0.008      338.918       11.895      866.653
10/12/2014  23:01:00      -11.844      -44.408       15.895       44.069       37.521       32.996     1942.120     1407.841     1088.743        0.340        0.222       45.960       29.468        0.411      338.764       11.637      866.637
10/12/2014  23:02:00      -24.698      -37.154       -5.134       37.584       39.444       22.294     1412.591     1555.816      497.029        0.274        0.173       44.614       16.236        0.132      338.745       11.606      866.627
10/12/2014  23:03:00      -74.617      -45.178       -7.962       42.469       24.920       18.407     1803.579      621.027      338.818        0.522        0.138       87.228       18.716        0.046      338.781       11.666      866.623
10/12/2014  23:04:00      -80.554      -61.635        0.453       28.727       30.573       22.147      825.233      934.689      490.511        0.627        0.113      101.429       14.073        0.019      338.757       11.627      866.619
10/12/2014  23:05:00      -82.298      -77.919      -11.209       26.148       39.245       20.437      683.726     1540.159      417.674        0.781        0.132      113.333       17.027        0.023      338.761       11.633      866.618
10/12/2014  23:06:00      -65.084      -47.296       -1.553       25.293       32.768       18.733      639.754     1073.771      350.942        0.427        0.103       80.454       13.940        0.030      338.734       11.587      866.616
10/12/2014  23:07:00      -79.781      -52.751       -4.816       20.572       28.888       18.826      423.194      834.494      354.406        0.539        0.081       95.643       10.723        0.013      338.715       11.554      866.632
10/12/2014  23:08:00      -83.698      -40.092       -9.241       17.821       22.673       13.432      317.591      514.046      180.425        0.485        0.051       92.805        5.171        0.003      338.748       11.609      866.634
10/12/2014  23:09:00     -100.144      -38.462       -4.273       18.331       20.681       14.487      336.022      427.691      209.878        0.625        0.049      107.276       10.661        0.010      338.737       11.591      866.638
10/12/2014  23:10:00      -87.996      -29.214       -9.525       18.783       13.988        9.941      352.801      195.661       98.831        0.467        0.032       92.719        8.375        0.008      338.664       11.468      866.655
10/12/2014  23:11:00      -82.519      -38.525      -13.241       17.000       15.830        9.673      289.002      250.574       93.573        0.455        0.032       91.069        5.270        0.003      338.702       11.534      866.665
10/12/2014  23:12:00      -87.846      -55.651       -9.202       23.509       16.935       15.183      552.657      286.782      230.527        0.598        0.053      103.990       10.749        0.011      338.705       11.538      866.668
10/12/2014  23:13:00      -82.090      -46.992        0.223       27.783       14.828       14.879      771.922      219.882      221.373        0.508        0.061       94.588       13.494        0.020      338.670       11.479      866.662
10/12/2014  23:14:00      -83.376      -37.785       -3.419       25.040       16.969       17.968      626.981      287.943      322.839        0.481        0.062       91.538       15.655        0.029      338.581       11.330      866.663
10/12/2014  23:15:00      -82.044      -53.504      -11.368       21.067       14.625       13.957      443.818      213.878      194.810        0.529        0.043       97.948       12.077        0.015      338.684       11.503      866.643
10/12/2014  23:16:00      -77.260      -28.082       -7.315       11.101       15.530       10.951      123.234      241.194      119.927        0.365        0.024       82.205        2.977        0.001      338.661       11.465      866.614
10/12/2014  23:17:00      -76.610      -34.875       -6.798       17.313       13.233        9.735      299.744      175.117       94.769        0.385        0.028       84.175        7.407        0.008      338.678       11.490      866.605
10/12/2014  23:18:00      -68.787      -31.536       -0.590       14.867       13.845        8.684      221.029      191.681       75.411        0.311        0.024       75.671        4.617        0.004      338.649       11.444      866.583
10/12/2014  23:19:00      -84.635      -28.158       -9.760       13.074       16.575       10.280      170.919      274.716      105.671        0.430        0.028       89.196        6.283        0.005      338.615       11.387      866.560
10/12/2014  23:20:00     -102.043      -36.807       -8.221       11.135       14.689       10.730      123.979      215.761      115.138        0.614        0.023      108.478        2.951        0.001      338.623       11.399      866.545
10/12/2014  23:21:00      -98.739      -29.733      -15.153       11.755       11.465        8.746      138.172      131.446       76.490        0.560        0.017      103.119        4.955        0.002      338.539       11.260      866.533
10/12/2014  23:22:00      -94.721      -24.888      -14.778       13.222       13.468       10.445      174.825      181.392      109.097        0.514        0.023       97.936        5.150        0.003      338.596       11.356      866.527
10/12/2014  23:23:00     -104.805      -29.736       -9.101       11.617       12.755       11.489      134.947      162.697      131.987        0.619        0.021      108.942        5.156        0.002      338.589       11.343      866.532
10/12/2014  23:24:00      -96.655      -19.730       -9.524       11.159       13.409        9.767      124.518      179.798       95.391        0.511        0.020       98.649        5.109        0.003      338.583       11.335      866.539
10/12/2014  23:25:00      -74.915      -13.208       -3.824       19.553       17.615       11.591      382.322      310.279      134.353        0.331        0.041       76.071        9.729        0.016      338.536       11.254      866.542
10/12/2014  23:26:00      -95.699      -25.582      -13.394       12.205       13.032        8.161      148.965      169.830       66.602        0.519        0.019       99.059        5.533        0.003      338.559       11.294      866.547
10/12/2014  23:27:00      -93.498      -32.360      -15.231        7.017        8.942        7.738       49.232       79.957       59.881        0.511        0.009       98.940        4.159        0.002      338.514       11.218      866.541
10/12/2014  23:28:00      -88.782      -21.276      -14.001        9.418        9.511        7.745       88.703       90.451       59.993        0.438        0.012       91.295        3.310        0.001      338.463       11.132      866.538
10/12/2014  23:29:00      -74.407      -26.144      -15.340        8.542        8.589        8.898       72.972       73.768       79.168        0.334        0.011       78.867        2.756        0.001      338.438       11.088      866.546
10/12/2014  23:30:00      -72.393      -25.817       -7.545       11.615       12.255       13.231      134.909      150.181      175.052        0.321        0.023       76.858        6.069        0.006      338.394       11.016      866.554
10/12/2014  23:31:00      -96.200      -22.674      -13.146       18.673       13.362       12.069      348.665      178.545      145.656        0.531        0.034       98.836        9.503        0.009      338.245       10.766      866.540
10/12/2014  23:32:00     -106.221      -16.924      -15.973       20.040       13.645        9.110      401.618      186.195       82.993        0.625        0.034      107.561        8.504        0.006      338.211       10.709      866.535
10/12/2014  23:33:00      -88.738      -26.174      -13.642       20.127       24.485       15.238      405.095      599.538      232.196        0.499        0.062       92.518       12.549        0.018      338.206       10.701      866.528
10/12/2014  23:34:00      -61.174      -31.306      -15.970       17.940       15.058       12.265      321.852      226.755      150.429        0.284        0.035       68.719        7.724        0.013      338.244       10.763      866.518
10/12/2014  23:35:00      -61.006      -11.398       -8.297       12.555       22.240       12.053      157.634      494.601      145.272        0.236        0.040       62.062        7.491        0.015      338.353       10.946      866.520
10/12/2014  23:36:00      -73.067       -8.188      -11.698       17.308       14.797       11.521      299.560      218.960      132.725        0.310        0.033       73.525        8.666        0.014      338.311       10.875      866.516
10/12/2014  23:37:00      -74.053       -5.954      -14.837       16.798       19.628       11.428      282.171      385.256      130.596        0.327        0.040       74.292        9.639        0.017      338.180       10.656      866.510
10/12/2014  23:38:00      -72.111       -9.150       -9.527       23.333       17.093       10.865      544.444      292.169      118.059        0.316        0.048       72.689        8.913        0.015      338.153       10.611      866.511
10/12/2014  23:39:00      -68.291       -9.681       -9.497       24.258       16.169       12.415      588.444      261.422      154.126        0.293        0.050       68.974       10.498        0.023      338.143       10.593      866.503
10/12/2014  23:40:00      -45.479       -9.269      -15.257       36.225       20.612       14.245     1312.224      424.846      202.933        0.216        0.097       46.414        3.856        0.007      338.191       10.676      866.488
10/12/2014  23:41:00      -66.426       15.337      -20.806       19.907       30.867       20.565      396.306      952.749      422.933        0.343        0.089       68.174       13.912        0.042      338.282       10.828      866.483
10/12/2014  23:42:00      -46.674      -11.538      -10.512       18.279       17.021       13.997      334.132      289.721      195.903        0.162        0.041       48.079        9.293        0.037      338.296       10.851      866.470
10/12/2014  23:43:00      -75.650      -21.654      -11.409       23.964       26.265       13.802      574.267      689.844      190.491        0.389        0.073       78.688        6.192        0.006      338.174       10.646      866.442
10/12/2014  23:44:00      -76.368      -15.180      -12.910       26.638       31.772       17.093      709.606     1009.467      292.175        0.412        0.101       77.862        7.890        0.010      338.234       10.747      866.427
10/12/2014  23:45:00      -66.603       -0.188      -11.573       25.799       17.030       12.922      665.599      290.019      166.975        0.285        0.056       66.603       11.110        0.028      338.181       10.658      866.407
10/12/2014  23:46:00      -71.189      -14.223      -13.276       15.290       14.404       14.446      233.776      207.464      208.700        0.305        0.032       72.596       10.270        0.020      338.229       10.737      866.377
10/12/2014  23:47:00      -74.846      -19.669      -13.372       14.047       12.250       12.493      197.317      150.055      156.066        0.334        0.025       77.387        6.238        0.006      338.145       10.597      866.366
10/12/2014  23:48:00      -62.128      -27.231      -13.416       18.288       15.528       12.077      334.459      241.129      145.861        0.275        0.036       67.834        7.937        0.014      338.131       10.574      866.347
10/12/2014  23:49:00      -51.878      -22.027       -7.160       29.483       17.811       14.581      869.232      317.222      212.601        0.231        0.070       56.360       14.301        0.064      338.079       10.487      866.334
10/12/2014  23:50:00      -25.655      -37.232       -5.190       23.703       28.484       17.814      561.844      811.334      317.330        0.188        0.085       45.215       13.360        0.087      338.087       10.501      866.332
10/12/2014  23:51:00      -52.166      -30.693      -10.333       22.245       24.314       15.041      494.838      591.173      226.246        0.254        0.066       60.526       10.009        0.027      338.125       10.563      866.321
10/12/2014  23:52:00      -85.696      -34.513      -21.408       15.572       19.471       15.871      242.489      379.133      251.897        0.493        0.044       92.385       11.483        0.015      338.084       10.496      866.321
10/12/2014  23:53:00      -72.124      -46.507      -28.510       21.402       21.426       16.362      458.067      459.079      267.730        0.468        0.059       85.818        9.862        0.013      338.140       10.590      866.325
10/12/2014  23:54:00      -31.779      -23.328        2.947       30.467       23.757       17.467      928.235      564.390      305.092        0.168        0.090       39.422       18.399        0.218      338.044       10.428      866.315
10/12/2014  23:55:00      -70.595      -16.174       -5.839       39.613       27.896       19.471     1569.169      778.172      379.126        0.400        0.136       72.424       21.313        0.087      338.042       10.423      866.308
10/12/2014  23:56:00      -63.123      -28.292       -8.559       26.746       17.558       18.715      715.328      308.300      350.256        0.312        0.069       69.173       16.120        0.054      338.042       10.425      866.310
10/12/2014  23:57:00      -66.718       -7.216        0.021       28.753       23.000       15.112      826.752      529.019      228.366        0.304        0.079       67.107       12.725        0.036      338.116       10.549      866.307
10/12/2014  23:58:00      -80.025        5.228      -12.746       32.079       21.932       16.413     1029.060      481.029      269.402        0.419        0.089       80.195       12.667        0.025      338.025       10.396      866.306
10/12/2014  23:59:00      -84.873      -23.906       -7.036       20.440       23.048       15.942      417.794      531.233      254.157        0.451        0.060       88.176        9.339        0.011      337.961       10.287      866.303
